<?xml version="1.0" encoding="UTF-8" standalone="no" ?>
<gpx xmlns="http://www.topografix.com/GPX/1/1" xmlns:xsi="http://www.w3.org/2001/XMLSchema-instance" xsi:schemaLocation="http://www.topografix.com/GPX/1/1 http://www.topografix.com/GPX/1/1/gpx.xsd" version="1.1" creator="VisuGPX - https://www.visugpx.com">
  <metadata>
    <name>Montious, Jambet, Tech y Lion</name>
    <desc><![CDATA[https://subircumbres.com/2025/06/16/montious-2173m-sommet-du-jambet-sommet-du-tech-y-pic-du-lion/]]></desc>
  </metadata>
  <trk>
    <name><![CDATA[2025-06-09 11:42:01]]></name>
    <trkseg>
      <trkpt lat="42.89226" lon="0.43006">
        <ele>1123.84</ele>
        <time>2025-06-09T04:40:33Z</time>
      </trkpt>
      <trkpt lat="42.89223" lon="0.43004">
        <ele>1123.16</ele>
        <time>2025-06-09T04:40:52Z</time>
      </trkpt>
      <trkpt lat="42.89222" lon="0.43005">
        <ele>1123.8</ele>
        <time>2025-06-09T04:41:05Z</time>
      </trkpt>
      <trkpt lat="42.8922" lon="0.42992">
        <ele>1123.16</ele>
        <time>2025-06-09T04:41:12Z</time>
      </trkpt>
      <trkpt lat="42.89216" lon="0.42979">
        <ele>1120.99</ele>
        <time>2025-06-09T04:41:27Z</time>
      </trkpt>
      <trkpt lat="42.89216" lon="0.42979">
        <ele>1125.81</ele>
        <time>2025-06-09T04:41:28Z</time>
      </trkpt>
      <trkpt lat="42.89216" lon="0.42979">
        <ele>1123.57</ele>
        <time>2025-06-09T04:41:29Z</time>
      </trkpt>
      <trkpt lat="42.89212" lon="0.4298">
        <ele>1123.27</ele>
        <time>2025-06-09T04:41:53Z</time>
      </trkpt>
      <trkpt lat="42.89211" lon="0.42975">
        <ele>1123.6</ele>
        <time>2025-06-09T04:42:11Z</time>
      </trkpt>
      <trkpt lat="42.89211" lon="0.42964">
        <ele>1124.39</ele>
        <time>2025-06-09T04:42:19Z</time>
      </trkpt>
      <trkpt lat="42.89211" lon="0.42946">
        <ele>1125.03</ele>
        <time>2025-06-09T04:42:28Z</time>
      </trkpt>
      <trkpt lat="42.89208" lon="0.42941">
        <ele>1124.78</ele>
        <time>2025-06-09T04:42:40Z</time>
      </trkpt>
      <trkpt lat="42.89207" lon="0.42938">
        <ele>1125.06</ele>
        <time>2025-06-09T04:42:59Z</time>
      </trkpt>
      <trkpt lat="42.89204" lon="0.42943">
        <ele>1124.84</ele>
        <time>2025-06-09T04:43:24Z</time>
      </trkpt>
      <trkpt lat="42.892" lon="0.42948">
        <ele>1127.85</ele>
        <time>2025-06-09T04:43:40Z</time>
      </trkpt>
      <trkpt lat="42.89195" lon="0.4295">
        <ele>1129.46</ele>
        <time>2025-06-09T04:43:47Z</time>
      </trkpt>
      <trkpt lat="42.89187" lon="0.42958">
        <ele>1131.37</ele>
        <time>2025-06-09T04:43:59Z</time>
      </trkpt>
      <trkpt lat="42.89179" lon="0.42973">
        <ele>1134.39</ele>
        <time>2025-06-09T04:44:12Z</time>
      </trkpt>
      <trkpt lat="42.89167" lon="0.42985">
        <ele>1137.51</ele>
        <time>2025-06-09T04:44:27Z</time>
      </trkpt>
      <trkpt lat="42.89157" lon="0.42996">
        <ele>1141.13</ele>
        <time>2025-06-09T04:44:40Z</time>
      </trkpt>
      <trkpt lat="42.89154" lon="0.43">
        <ele>1142.31</ele>
        <time>2025-06-09T04:44:44Z</time>
      </trkpt>
      <trkpt lat="42.89153" lon="0.43002">
        <ele>1142.3</ele>
        <time>2025-06-09T04:44:45Z</time>
      </trkpt>
      <trkpt lat="42.8914" lon="0.43014">
        <ele>1142.72</ele>
        <time>2025-06-09T04:44:54Z</time>
      </trkpt>
      <trkpt lat="42.89133" lon="0.43028">
        <ele>1144.39</ele>
        <time>2025-06-09T04:45:10Z</time>
      </trkpt>
      <trkpt lat="42.89127" lon="0.43049">
        <ele>1145.54</ele>
        <time>2025-06-09T04:45:23Z</time>
      </trkpt>
      <trkpt lat="42.89118" lon="0.43065">
        <ele>1146.65</ele>
        <time>2025-06-09T04:45:36Z</time>
      </trkpt>
      <trkpt lat="42.89111" lon="0.43072">
        <ele>1146.01</ele>
        <time>2025-06-09T04:46:10Z</time>
      </trkpt>
      <trkpt lat="42.89106" lon="0.43095">
        <ele>1148.01</ele>
        <time>2025-06-09T04:46:29Z</time>
      </trkpt>
      <trkpt lat="42.89102" lon="0.43119">
        <ele>1149.64</ele>
        <time>2025-06-09T04:46:46Z</time>
      </trkpt>
      <trkpt lat="42.89108" lon="0.43148">
        <ele>1152.27</ele>
        <time>2025-06-09T04:47:05Z</time>
      </trkpt>
      <trkpt lat="42.89102" lon="0.43181">
        <ele>1154.14</ele>
        <time>2025-06-09T04:47:26Z</time>
      </trkpt>
      <trkpt lat="42.8909" lon="0.43217">
        <ele>1157.17</ele>
        <time>2025-06-09T04:47:47Z</time>
      </trkpt>
      <trkpt lat="42.89081" lon="0.43239">
        <ele>1160.45</ele>
        <time>2025-06-09T04:48:04Z</time>
      </trkpt>
      <trkpt lat="42.89068" lon="0.43275">
        <ele>1162.4</ele>
        <time>2025-06-09T04:48:24Z</time>
      </trkpt>
      <trkpt lat="42.89055" lon="0.43303">
        <ele>1165.72</ele>
        <time>2025-06-09T04:48:40Z</time>
      </trkpt>
      <trkpt lat="42.89043" lon="0.43332">
        <ele>1169.13</ele>
        <time>2025-06-09T04:48:58Z</time>
      </trkpt>
      <trkpt lat="42.89037" lon="0.43357">
        <ele>1171.66</ele>
        <time>2025-06-09T04:49:14Z</time>
      </trkpt>
      <trkpt lat="42.89029" lon="0.43382">
        <ele>1174.67</ele>
        <time>2025-06-09T04:49:30Z</time>
      </trkpt>
      <trkpt lat="42.89018" lon="0.43407">
        <ele>1177.89</ele>
        <time>2025-06-09T04:49:47Z</time>
      </trkpt>
      <trkpt lat="42.89014" lon="0.43427">
        <ele>1181.26</ele>
        <time>2025-06-09T04:49:58Z</time>
      </trkpt>
      <trkpt lat="42.89014" lon="0.4343">
        <ele>1181.25</ele>
        <time>2025-06-09T04:49:59Z</time>
      </trkpt>
      <trkpt lat="42.89013" lon="0.43432">
        <ele>1181.18</ele>
        <time>2025-06-09T04:50:02Z</time>
      </trkpt>
      <trkpt lat="42.89009" lon="0.4345">
        <ele>1181.92</ele>
        <time>2025-06-09T04:50:22Z</time>
      </trkpt>
      <trkpt lat="42.89009" lon="0.43462">
        <ele>1184.95</ele>
        <time>2025-06-09T04:50:37Z</time>
      </trkpt>
      <trkpt lat="42.89007" lon="0.43471">
        <ele>1186.76</ele>
        <time>2025-06-09T04:50:45Z</time>
      </trkpt>
      <trkpt lat="42.89004" lon="0.43487">
        <ele>1189.14</ele>
        <time>2025-06-09T04:50:55Z</time>
      </trkpt>
      <trkpt lat="42.89002" lon="0.43498">
        <ele>1187.53</ele>
        <time>2025-06-09T04:51:08Z</time>
      </trkpt>
      <trkpt lat="42.89004" lon="0.43512">
        <ele>1188.25</ele>
        <time>2025-06-09T04:51:33Z</time>
      </trkpt>
      <trkpt lat="42.89001" lon="0.43521">
        <ele>1191.31</ele>
        <time>2025-06-09T04:51:51Z</time>
      </trkpt>
      <trkpt lat="42.88999" lon="0.43526">
        <ele>1192.14</ele>
        <time>2025-06-09T04:51:56Z</time>
      </trkpt>
      <trkpt lat="42.88994" lon="0.43552">
        <ele>1196.41</ele>
        <time>2025-06-09T04:52:17Z</time>
      </trkpt>
      <trkpt lat="42.8899" lon="0.4358">
        <ele>1199.77</ele>
        <time>2025-06-09T04:52:34Z</time>
      </trkpt>
      <trkpt lat="42.88983" lon="0.4361">
        <ele>1203.48</ele>
        <time>2025-06-09T04:52:53Z</time>
      </trkpt>
      <trkpt lat="42.88981" lon="0.43638">
        <ele>1206.58</ele>
        <time>2025-06-09T04:53:08Z</time>
      </trkpt>
      <trkpt lat="42.88978" lon="0.43654">
        <ele>1209.62</ele>
        <time>2025-06-09T04:53:23Z</time>
      </trkpt>
      <trkpt lat="42.8898" lon="0.43673">
        <ele>1212.12</ele>
        <time>2025-06-09T04:53:35Z</time>
      </trkpt>
      <trkpt lat="42.88977" lon="0.43696">
        <ele>1215.03</ele>
        <time>2025-06-09T04:53:50Z</time>
      </trkpt>
      <trkpt lat="42.88977" lon="0.43704">
        <ele>1216.13</ele>
        <time>2025-06-09T04:53:56Z</time>
      </trkpt>
      <trkpt lat="42.88971" lon="0.43725">
        <ele>1219.77</ele>
        <time>2025-06-09T04:54:13Z</time>
      </trkpt>
      <trkpt lat="42.88972" lon="0.43729">
        <ele>1219.65</ele>
        <time>2025-06-09T04:54:16Z</time>
      </trkpt>
      <trkpt lat="42.88971" lon="0.43748">
        <ele>1222.91</ele>
        <time>2025-06-09T04:54:31Z</time>
      </trkpt>
      <trkpt lat="42.88968" lon="0.4378">
        <ele>1225.92</ele>
        <time>2025-06-09T04:54:49Z</time>
      </trkpt>
      <trkpt lat="42.88964" lon="0.43812">
        <ele>1229.23</ele>
        <time>2025-06-09T04:55:08Z</time>
      </trkpt>
      <trkpt lat="42.88971" lon="0.43837">
        <ele>1232.3</ele>
        <time>2025-06-09T04:55:26Z</time>
      </trkpt>
      <trkpt lat="42.88967" lon="0.43875">
        <ele>1235.11</ele>
        <time>2025-06-09T04:55:46Z</time>
      </trkpt>
      <trkpt lat="42.88967" lon="0.43876">
        <ele>1235.22</ele>
        <time>2025-06-09T04:55:47Z</time>
      </trkpt>
      <trkpt lat="42.88967" lon="0.43893">
        <ele>1234.32</ele>
        <time>2025-06-09T04:56:07Z</time>
      </trkpt>
      <trkpt lat="42.88959" lon="0.43917">
        <ele>1237.98</ele>
        <time>2025-06-09T04:56:24Z</time>
      </trkpt>
      <trkpt lat="42.88952" lon="0.4394">
        <ele>1240.45</ele>
        <time>2025-06-09T04:56:41Z</time>
      </trkpt>
      <trkpt lat="42.88944" lon="0.43977">
        <ele>1241.62</ele>
        <time>2025-06-09T04:57:01Z</time>
      </trkpt>
      <trkpt lat="42.88943" lon="0.44011">
        <ele>1243.33</ele>
        <time>2025-06-09T04:57:19Z</time>
      </trkpt>
      <trkpt lat="42.88937" lon="0.44031">
        <ele>1243.72</ele>
        <time>2025-06-09T04:57:47Z</time>
      </trkpt>
      <trkpt lat="42.88948" lon="0.44033">
        <ele>1242.79</ele>
        <time>2025-06-09T04:58:14Z</time>
      </trkpt>
      <trkpt lat="42.88944" lon="0.44035">
        <ele>1242.9</ele>
        <time>2025-06-09T04:58:44Z</time>
      </trkpt>
      <trkpt lat="42.88948" lon="0.44037">
        <ele>1242.6</ele>
        <time>2025-06-09T04:59:12Z</time>
      </trkpt>
      <trkpt lat="42.88949" lon="0.44037">
        <ele>1238.91</ele>
        <time>2025-06-09T04:59:13Z</time>
      </trkpt>
      <trkpt lat="42.88948" lon="0.44036">
        <ele>1246.1</ele>
        <time>2025-06-09T04:59:14Z</time>
      </trkpt>
      <trkpt lat="42.88949" lon="0.44036">
        <ele>1241.9</ele>
        <time>2025-06-09T04:59:15Z</time>
      </trkpt>
      <trkpt lat="42.8895" lon="0.44043">
        <ele>1243.71</ele>
        <time>2025-06-09T04:59:31Z</time>
      </trkpt>
      <trkpt lat="42.88957" lon="0.4407">
        <ele>1247.5</ele>
        <time>2025-06-09T04:59:50Z</time>
      </trkpt>
      <trkpt lat="42.88947" lon="0.44097">
        <ele>1250.3</ele>
        <time>2025-06-09T05:00:10Z</time>
      </trkpt>
      <trkpt lat="42.88946" lon="0.441">
        <ele>1250.89</ele>
        <time>2025-06-09T05:00:12Z</time>
      </trkpt>
      <trkpt lat="42.8893" lon="0.44115">
        <ele>1252.11</ele>
        <time>2025-06-09T05:00:27Z</time>
      </trkpt>
      <trkpt lat="42.88917" lon="0.44134">
        <ele>1254.77</ele>
        <time>2025-06-09T05:00:46Z</time>
      </trkpt>
      <trkpt lat="42.88901" lon="0.44162">
        <ele>1256.32</ele>
        <time>2025-06-09T05:01:05Z</time>
      </trkpt>
      <trkpt lat="42.88883" lon="0.44184">
        <ele>1256.79</ele>
        <time>2025-06-09T05:01:25Z</time>
      </trkpt>
      <trkpt lat="42.88861" lon="0.44206">
        <ele>1258.1</ele>
        <time>2025-06-09T05:01:45Z</time>
      </trkpt>
      <trkpt lat="42.8884" lon="0.44234">
        <ele>1259.65</ele>
        <time>2025-06-09T05:02:04Z</time>
      </trkpt>
      <trkpt lat="42.88824" lon="0.4426">
        <ele>1261.47</ele>
        <time>2025-06-09T05:02:24Z</time>
      </trkpt>
      <trkpt lat="42.88808" lon="0.44287">
        <ele>1262.99</ele>
        <time>2025-06-09T05:02:42Z</time>
      </trkpt>
      <trkpt lat="42.88793" lon="0.44316">
        <ele>1264.18</ele>
        <time>2025-06-09T05:03:02Z</time>
      </trkpt>
      <trkpt lat="42.88775" lon="0.44345">
        <ele>1265.22</ele>
        <time>2025-06-09T05:03:21Z</time>
      </trkpt>
      <trkpt lat="42.88763" lon="0.44373">
        <ele>1266.83</ele>
        <time>2025-06-09T05:03:38Z</time>
      </trkpt>
      <trkpt lat="42.88757" lon="0.444">
        <ele>1268.89</ele>
        <time>2025-06-09T05:03:56Z</time>
      </trkpt>
      <trkpt lat="42.88745" lon="0.44431">
        <ele>1272.02</ele>
        <time>2025-06-09T05:04:16Z</time>
      </trkpt>
      <trkpt lat="42.88734" lon="0.44462">
        <ele>1273.93</ele>
        <time>2025-06-09T05:04:34Z</time>
      </trkpt>
      <trkpt lat="42.88722" lon="0.44491">
        <ele>1277.29</ele>
        <time>2025-06-09T05:04:54Z</time>
      </trkpt>
      <trkpt lat="42.88705" lon="0.44519">
        <ele>1279.78</ele>
        <time>2025-06-09T05:05:17Z</time>
      </trkpt>
      <trkpt lat="42.88702" lon="0.44523">
        <ele>1279.64</ele>
        <time>2025-06-09T05:05:19Z</time>
      </trkpt>
      <trkpt lat="42.88679" lon="0.44552">
        <ele>1281.16</ele>
        <time>2025-06-09T05:05:39Z</time>
      </trkpt>
      <trkpt lat="42.88662" lon="0.44585">
        <ele>1282.99</ele>
        <time>2025-06-09T05:06:00Z</time>
      </trkpt>
      <trkpt lat="42.88647" lon="0.4461">
        <ele>1286.06</ele>
        <time>2025-06-09T05:06:17Z</time>
      </trkpt>
      <trkpt lat="42.88632" lon="0.44633">
        <ele>1289.22</ele>
        <time>2025-06-09T05:06:36Z</time>
      </trkpt>
      <trkpt lat="42.88615" lon="0.44662">
        <ele>1290.25</ele>
        <time>2025-06-09T05:06:51Z</time>
      </trkpt>
      <trkpt lat="42.8861" lon="0.44667">
        <ele>1289.4</ele>
        <time>2025-06-09T05:07:13Z</time>
      </trkpt>
      <trkpt lat="42.88608" lon="0.44665">
        <ele>1289.08</ele>
        <time>2025-06-09T05:07:37Z</time>
      </trkpt>
      <trkpt lat="42.88612" lon="0.44657">
        <ele>1289.11</ele>
        <time>2025-06-09T05:08:01Z</time>
      </trkpt>
      <trkpt lat="42.8861" lon="0.4466">
        <ele>1289.14</ele>
        <time>2025-06-09T05:08:23Z</time>
      </trkpt>
      <trkpt lat="42.88611" lon="0.44662">
        <ele>1289.07</ele>
        <time>2025-06-09T05:08:32Z</time>
      </trkpt>
      <trkpt lat="42.88605" lon="0.44667">
        <ele>1292.12</ele>
        <time>2025-06-09T05:08:48Z</time>
      </trkpt>
      <trkpt lat="42.886" lon="0.44676">
        <ele>1294.42</ele>
        <time>2025-06-09T05:08:58Z</time>
      </trkpt>
      <trkpt lat="42.88588" lon="0.44687">
        <ele>1297.7</ele>
        <time>2025-06-09T05:09:15Z</time>
      </trkpt>
      <trkpt lat="42.88579" lon="0.44697">
        <ele>1300.76</ele>
        <time>2025-06-09T05:09:32Z</time>
      </trkpt>
      <trkpt lat="42.88567" lon="0.44713">
        <ele>1303.47</ele>
        <time>2025-06-09T05:09:47Z</time>
      </trkpt>
      <trkpt lat="42.88548" lon="0.44736">
        <ele>1306.92</ele>
        <time>2025-06-09T05:10:05Z</time>
      </trkpt>
      <trkpt lat="42.88538" lon="0.44746">
        <ele>1308.41</ele>
        <time>2025-06-09T05:10:15Z</time>
      </trkpt>
      <trkpt lat="42.88527" lon="0.44758">
        <ele>1311.35</ele>
        <time>2025-06-09T05:10:30Z</time>
      </trkpt>
      <trkpt lat="42.88522" lon="0.44766">
        <ele>1312.05</ele>
        <time>2025-06-09T05:10:37Z</time>
      </trkpt>
      <trkpt lat="42.88505" lon="0.44781">
        <ele>1315.04</ele>
        <time>2025-06-09T05:10:55Z</time>
      </trkpt>
      <trkpt lat="42.88482" lon="0.44801">
        <ele>1316.57</ele>
        <time>2025-06-09T05:11:13Z</time>
      </trkpt>
      <trkpt lat="42.88467" lon="0.4482">
        <ele>1319.95</ele>
        <time>2025-06-09T05:11:29Z</time>
      </trkpt>
      <trkpt lat="42.88454" lon="0.44847">
        <ele>1323.35</ele>
        <time>2025-06-09T05:11:46Z</time>
      </trkpt>
      <trkpt lat="42.88443" lon="0.44863">
        <ele>1324.62</ele>
        <time>2025-06-09T05:12:06Z</time>
      </trkpt>
      <trkpt lat="42.88437" lon="0.44875">
        <ele>1325.77</ele>
        <time>2025-06-09T05:12:25Z</time>
      </trkpt>
      <trkpt lat="42.88439" lon="0.44876">
        <ele>1325.73</ele>
        <time>2025-06-09T05:12:53Z</time>
      </trkpt>
      <trkpt lat="42.88436" lon="0.44878">
        <ele>1325.66</ele>
        <time>2025-06-09T05:13:21Z</time>
      </trkpt>
      <trkpt lat="42.88429" lon="0.44879">
        <ele>1328.99</ele>
        <time>2025-06-09T05:13:38Z</time>
      </trkpt>
      <trkpt lat="42.88424" lon="0.44884">
        <ele>1330.05</ele>
        <time>2025-06-09T05:13:56Z</time>
      </trkpt>
      <trkpt lat="42.88413" lon="0.44899">
        <ele>1333.05</ele>
        <time>2025-06-09T05:14:14Z</time>
      </trkpt>
      <trkpt lat="42.88399" lon="0.44918">
        <ele>1335.25</ele>
        <time>2025-06-09T05:14:30Z</time>
      </trkpt>
      <trkpt lat="42.8838" lon="0.4495">
        <ele>1338.32</ele>
        <time>2025-06-09T05:14:49Z</time>
      </trkpt>
      <trkpt lat="42.88366" lon="0.44968">
        <ele>1338.33</ele>
        <time>2025-06-09T05:15:02Z</time>
      </trkpt>
      <trkpt lat="42.88359" lon="0.44975">
        <ele>1339.25</ele>
        <time>2025-06-09T05:15:06Z</time>
      </trkpt>
      <trkpt lat="42.88358" lon="0.44978">
        <ele>1339.2</ele>
        <time>2025-06-09T05:15:08Z</time>
      </trkpt>
      <trkpt lat="42.88342" lon="0.45007">
        <ele>1340.1</ele>
        <time>2025-06-09T05:15:23Z</time>
      </trkpt>
      <trkpt lat="42.88339" lon="0.45016">
        <ele>1340.16</ele>
        <time>2025-06-09T05:15:28Z</time>
      </trkpt>
      <trkpt lat="42.88335" lon="0.45035">
        <ele>1339.71</ele>
        <time>2025-06-09T05:15:37Z</time>
      </trkpt>
      <trkpt lat="42.88334" lon="0.45041">
        <ele>1340.78</ele>
        <time>2025-06-09T05:15:40Z</time>
      </trkpt>
      <trkpt lat="42.88329" lon="0.4506">
        <ele>1340.72</ele>
        <time>2025-06-09T05:15:49Z</time>
      </trkpt>
      <trkpt lat="42.88329" lon="0.4507">
        <ele>1341.35</ele>
        <time>2025-06-09T05:15:55Z</time>
      </trkpt>
      <trkpt lat="42.88317" lon="0.45102">
        <ele>1341.16</ele>
        <time>2025-06-09T05:16:11Z</time>
      </trkpt>
      <trkpt lat="42.88316" lon="0.45104">
        <ele>1341.15</ele>
        <time>2025-06-09T05:16:13Z</time>
      </trkpt>
      <trkpt lat="42.88308" lon="0.4512">
        <ele>1341.68</ele>
        <time>2025-06-09T05:16:23Z</time>
      </trkpt>
      <trkpt lat="42.88299" lon="0.45127">
        <ele>1342.29</ele>
        <time>2025-06-09T05:16:29Z</time>
      </trkpt>
      <trkpt lat="42.8829" lon="0.45141">
        <ele>1342.36</ele>
        <time>2025-06-09T05:16:37Z</time>
      </trkpt>
      <trkpt lat="42.88284" lon="0.45148">
        <ele>1342.27</ele>
        <time>2025-06-09T05:16:42Z</time>
      </trkpt>
      <trkpt lat="42.88273" lon="0.45173">
        <ele>1343.5</ele>
        <time>2025-06-09T05:16:55Z</time>
      </trkpt>
      <trkpt lat="42.88272" lon="0.45175">
        <ele>1343.72</ele>
        <time>2025-06-09T05:16:56Z</time>
      </trkpt>
      <trkpt lat="42.88261" lon="0.45222">
        <ele>1346.52</ele>
        <time>2025-06-09T05:17:16Z</time>
      </trkpt>
      <trkpt lat="42.88249" lon="0.45256">
        <ele>1349.77</ele>
        <time>2025-06-09T05:17:37Z</time>
      </trkpt>
      <trkpt lat="42.88248" lon="0.45259">
        <ele>1349.87</ele>
        <time>2025-06-09T05:17:39Z</time>
      </trkpt>
      <trkpt lat="42.88231" lon="0.45293">
        <ele>1352.93</ele>
        <time>2025-06-09T05:18:01Z</time>
      </trkpt>
      <trkpt lat="42.88228" lon="0.45298">
        <ele>1353.88</ele>
        <time>2025-06-09T05:18:03Z</time>
      </trkpt>
      <trkpt lat="42.88225" lon="0.45303">
        <ele>1354.45</ele>
        <time>2025-06-09T05:18:06Z</time>
      </trkpt>
      <trkpt lat="42.88206" lon="0.45339">
        <ele>1357.08</ele>
        <time>2025-06-09T05:18:28Z</time>
      </trkpt>
      <trkpt lat="42.88202" lon="0.45349">
        <ele>1357.26</ele>
        <time>2025-06-09T05:18:34Z</time>
      </trkpt>
      <trkpt lat="42.88186" lon="0.45378">
        <ele>1360.46</ele>
        <time>2025-06-09T05:18:51Z</time>
      </trkpt>
      <trkpt lat="42.88175" lon="0.45405">
        <ele>1363.11</ele>
        <time>2025-06-09T05:19:10Z</time>
      </trkpt>
      <trkpt lat="42.88154" lon="0.45418">
        <ele>1365.96</ele>
        <time>2025-06-09T05:19:30Z</time>
      </trkpt>
      <trkpt lat="42.88128" lon="0.45453">
        <ele>1368.43</ele>
        <time>2025-06-09T05:19:53Z</time>
      </trkpt>
      <trkpt lat="42.88097" lon="0.45483">
        <ele>1369.2</ele>
        <time>2025-06-09T05:20:14Z</time>
      </trkpt>
      <trkpt lat="42.88082" lon="0.45496">
        <ele>1369.28</ele>
        <time>2025-06-09T05:20:25Z</time>
      </trkpt>
      <trkpt lat="42.88079" lon="0.45497">
        <ele>1369.12</ele>
        <time>2025-06-09T05:20:27Z</time>
      </trkpt>
      <trkpt lat="42.88061" lon="0.45503">
        <ele>1370.09</ele>
        <time>2025-06-09T05:20:40Z</time>
      </trkpt>
      <trkpt lat="42.88054" lon="0.45502">
        <ele>1371.95</ele>
        <time>2025-06-09T05:20:45Z</time>
      </trkpt>
      <trkpt lat="42.88041" lon="0.45506">
        <ele>1371.13</ele>
        <time>2025-06-09T05:20:54Z</time>
      </trkpt>
      <trkpt lat="42.88022" lon="0.45526">
        <ele>1371.11</ele>
        <time>2025-06-09T05:21:06Z</time>
      </trkpt>
      <trkpt lat="42.88008" lon="0.45535">
        <ele>1371.41</ele>
        <time>2025-06-09T05:21:14Z</time>
      </trkpt>
      <trkpt lat="42.87997" lon="0.45542">
        <ele>1371.5</ele>
        <time>2025-06-09T05:21:22Z</time>
      </trkpt>
      <trkpt lat="42.87976" lon="0.45546">
        <ele>1372.38</ele>
        <time>2025-06-09T05:21:35Z</time>
      </trkpt>
      <trkpt lat="42.87975" lon="0.45547">
        <ele>1372.43</ele>
        <time>2025-06-09T05:21:36Z</time>
      </trkpt>
      <trkpt lat="42.87968" lon="0.45549">
        <ele>1372.49</ele>
        <time>2025-06-09T05:21:41Z</time>
      </trkpt>
      <trkpt lat="42.87947" lon="0.45554">
        <ele>1373.22</ele>
        <time>2025-06-09T05:21:54Z</time>
      </trkpt>
      <trkpt lat="42.87929" lon="0.45566">
        <ele>1373.72</ele>
        <time>2025-06-09T05:22:06Z</time>
      </trkpt>
      <trkpt lat="42.87907" lon="0.45572">
        <ele>1374.58</ele>
        <time>2025-06-09T05:22:22Z</time>
      </trkpt>
      <trkpt lat="42.87891" lon="0.45582">
        <ele>1375.83</ele>
        <time>2025-06-09T05:22:34Z</time>
      </trkpt>
      <trkpt lat="42.87857" lon="0.45611">
        <ele>1376.81</ele>
        <time>2025-06-09T05:22:51Z</time>
      </trkpt>
      <trkpt lat="42.87829" lon="0.45619">
        <ele>1378.3</ele>
        <time>2025-06-09T05:23:06Z</time>
      </trkpt>
      <trkpt lat="42.87796" lon="0.45626">
        <ele>1380.84</ele>
        <time>2025-06-09T05:23:28Z</time>
      </trkpt>
      <trkpt lat="42.87769" lon="0.45646">
        <ele>1383.83</ele>
        <time>2025-06-09T05:23:46Z</time>
      </trkpt>
      <trkpt lat="42.87744" lon="0.45656">
        <ele>1386.17</ele>
        <time>2025-06-09T05:24:04Z</time>
      </trkpt>
      <trkpt lat="42.87709" lon="0.4567">
        <ele>1389</ele>
        <time>2025-06-09T05:24:27Z</time>
      </trkpt>
      <trkpt lat="42.87681" lon="0.45686">
        <ele>1390.82</ele>
        <time>2025-06-09T05:24:45Z</time>
      </trkpt>
      <trkpt lat="42.8767" lon="0.45689">
        <ele>1392.5</ele>
        <time>2025-06-09T05:24:52Z</time>
      </trkpt>
      <trkpt lat="42.87658" lon="0.45681">
        <ele>1395.71</ele>
        <time>2025-06-09T05:25:03Z</time>
      </trkpt>
      <trkpt lat="42.87657" lon="0.45677">
        <ele>1395.28</ele>
        <time>2025-06-09T05:25:21Z</time>
      </trkpt>
      <trkpt lat="42.87651" lon="0.45677">
        <ele>1396.08</ele>
        <time>2025-06-09T05:25:28Z</time>
      </trkpt>
      <trkpt lat="42.87644" lon="0.45677">
        <ele>1396.69</ele>
        <time>2025-06-09T05:25:33Z</time>
      </trkpt>
      <trkpt lat="42.87634" lon="0.45677">
        <ele>1398.44</ele>
        <time>2025-06-09T05:25:41Z</time>
      </trkpt>
      <trkpt lat="42.87632" lon="0.45676">
        <ele>1398.93</ele>
        <time>2025-06-09T05:25:43Z</time>
      </trkpt>
      <trkpt lat="42.8763" lon="0.45674">
        <ele>1400.09</ele>
        <time>2025-06-09T05:25:45Z</time>
      </trkpt>
      <trkpt lat="42.87627" lon="0.45674">
        <ele>1399.87</ele>
        <time>2025-06-09T05:25:47Z</time>
      </trkpt>
      <trkpt lat="42.87622" lon="0.45672">
        <ele>1401.33</ele>
        <time>2025-06-09T05:25:51Z</time>
      </trkpt>
      <trkpt lat="42.87602" lon="0.45667">
        <ele>1404.3</ele>
        <time>2025-06-09T05:26:08Z</time>
      </trkpt>
      <trkpt lat="42.87591" lon="0.45667">
        <ele>1407.58</ele>
        <time>2025-06-09T05:26:19Z</time>
      </trkpt>
      <trkpt lat="42.8758" lon="0.45667">
        <ele>1409.59</ele>
        <time>2025-06-09T05:26:28Z</time>
      </trkpt>
      <trkpt lat="42.87568" lon="0.4567">
        <ele>1411.18</ele>
        <time>2025-06-09T05:26:40Z</time>
      </trkpt>
      <trkpt lat="42.87555" lon="0.45672">
        <ele>1413.4</ele>
        <time>2025-06-09T05:26:59Z</time>
      </trkpt>
      <trkpt lat="42.87554" lon="0.4567">
        <ele>1413.43</ele>
        <time>2025-06-09T05:27:02Z</time>
      </trkpt>
      <trkpt lat="42.87543" lon="0.45668">
        <ele>1415.51</ele>
        <time>2025-06-09T05:27:24Z</time>
      </trkpt>
      <trkpt lat="42.87533" lon="0.45668">
        <ele>1418.65</ele>
        <time>2025-06-09T05:27:35Z</time>
      </trkpt>
      <trkpt lat="42.87523" lon="0.45671">
        <ele>1421.85</ele>
        <time>2025-06-09T05:27:47Z</time>
      </trkpt>
      <trkpt lat="42.87513" lon="0.45671">
        <ele>1424.99</ele>
        <time>2025-06-09T05:28:00Z</time>
      </trkpt>
      <trkpt lat="42.87505" lon="0.45668">
        <ele>1428.1</ele>
        <time>2025-06-09T05:28:12Z</time>
      </trkpt>
      <trkpt lat="42.87493" lon="0.45669">
        <ele>1431.26</ele>
        <time>2025-06-09T05:28:24Z</time>
      </trkpt>
      <trkpt lat="42.87482" lon="0.45671">
        <ele>1434.52</ele>
        <time>2025-06-09T05:28:37Z</time>
      </trkpt>
      <trkpt lat="42.87474" lon="0.4567">
        <ele>1437.72</ele>
        <time>2025-06-09T05:28:51Z</time>
      </trkpt>
      <trkpt lat="42.8747" lon="0.45669">
        <ele>1438.05</ele>
        <time>2025-06-09T05:28:54Z</time>
      </trkpt>
      <trkpt lat="42.87467" lon="0.45668">
        <ele>1438.72</ele>
        <time>2025-06-09T05:28:57Z</time>
      </trkpt>
      <trkpt lat="42.87453" lon="0.45663">
        <ele>1440.51</ele>
        <time>2025-06-09T05:29:09Z</time>
      </trkpt>
      <trkpt lat="42.8745" lon="0.45662">
        <ele>1441.61</ele>
        <time>2025-06-09T05:29:15Z</time>
      </trkpt>
      <trkpt lat="42.8745" lon="0.45661">
        <ele>1438.42</ele>
        <time>2025-06-09T05:29:27Z</time>
      </trkpt>
      <trkpt lat="42.8745" lon="0.45661">
        <ele>1438.42</ele>
        <time>2025-06-09T05:29:28Z</time>
      </trkpt>
      <trkpt lat="42.87449" lon="0.45661">
        <ele>1441.1</ele>
        <time>2025-06-09T05:29:30Z</time>
      </trkpt>
      <trkpt lat="42.8744" lon="0.4566">
        <ele>1439.21</ele>
        <time>2025-06-09T05:29:41Z</time>
      </trkpt>
      <trkpt lat="42.87425" lon="0.45667">
        <ele>1441.98</ele>
        <time>2025-06-09T05:29:58Z</time>
      </trkpt>
      <trkpt lat="42.87404" lon="0.4568">
        <ele>1444.74</ele>
        <time>2025-06-09T05:30:17Z</time>
      </trkpt>
      <trkpt lat="42.87377" lon="0.45685">
        <ele>1446.41</ele>
        <time>2025-06-09T05:30:39Z</time>
      </trkpt>
      <trkpt lat="42.8736" lon="0.45684">
        <ele>1448.36</ele>
        <time>2025-06-09T05:30:56Z</time>
      </trkpt>
      <trkpt lat="42.87352" lon="0.45689">
        <ele>1449.65</ele>
        <time>2025-06-09T05:31:15Z</time>
      </trkpt>
      <trkpt lat="42.87332" lon="0.45698">
        <ele>1450.26</ele>
        <time>2025-06-09T05:31:34Z</time>
      </trkpt>
      <trkpt lat="42.87324" lon="0.45695">
        <ele>1451.5</ele>
        <time>2025-06-09T05:31:41Z</time>
      </trkpt>
      <trkpt lat="42.87317" lon="0.45698">
        <ele>1451.94</ele>
        <time>2025-06-09T05:31:48Z</time>
      </trkpt>
      <trkpt lat="42.87308" lon="0.45702">
        <ele>1452.33</ele>
        <time>2025-06-09T05:31:54Z</time>
      </trkpt>
      <trkpt lat="42.87287" lon="0.45727">
        <ele>1453.48</ele>
        <time>2025-06-09T05:32:11Z</time>
      </trkpt>
      <trkpt lat="42.87279" lon="0.4574">
        <ele>1453.11</ele>
        <time>2025-06-09T05:32:20Z</time>
      </trkpt>
      <trkpt lat="42.87268" lon="0.45757">
        <ele>1453.32</ele>
        <time>2025-06-09T05:32:31Z</time>
      </trkpt>
      <trkpt lat="42.87258" lon="0.45786">
        <ele>1452.79</ele>
        <time>2025-06-09T05:32:47Z</time>
      </trkpt>
      <trkpt lat="42.87253" lon="0.45801">
        <ele>1456.22</ele>
        <time>2025-06-09T05:32:59Z</time>
      </trkpt>
      <trkpt lat="42.87248" lon="0.45813">
        <ele>1459.3</ele>
        <time>2025-06-09T05:33:09Z</time>
      </trkpt>
      <trkpt lat="42.8725" lon="0.45825">
        <ele>1459.49</ele>
        <time>2025-06-09T05:33:39Z</time>
      </trkpt>
      <trkpt lat="42.87248" lon="0.45831">
        <ele>1459.95</ele>
        <time>2025-06-09T05:33:43Z</time>
      </trkpt>
      <trkpt lat="42.87237" lon="0.45845">
        <ele>1463.35</ele>
        <time>2025-06-09T05:33:57Z</time>
      </trkpt>
      <trkpt lat="42.87231" lon="0.45852">
        <ele>1466.51</ele>
        <time>2025-06-09T05:34:05Z</time>
      </trkpt>
      <trkpt lat="42.87219" lon="0.45869">
        <ele>1470.27</ele>
        <time>2025-06-09T05:34:21Z</time>
      </trkpt>
      <trkpt lat="42.87219" lon="0.45869">
        <ele>1470.5</ele>
        <time>2025-06-09T05:34:22Z</time>
      </trkpt>
      <trkpt lat="42.87214" lon="0.45871">
        <ele>1471.6</ele>
        <time>2025-06-09T05:34:27Z</time>
      </trkpt>
      <trkpt lat="42.87198" lon="0.45877">
        <ele>1474.37</ele>
        <time>2025-06-09T05:34:43Z</time>
      </trkpt>
      <trkpt lat="42.87178" lon="0.45885">
        <ele>1478.32</ele>
        <time>2025-06-09T05:35:00Z</time>
      </trkpt>
      <trkpt lat="42.87167" lon="0.45896">
        <ele>1480.28</ele>
        <time>2025-06-09T05:35:16Z</time>
      </trkpt>
      <trkpt lat="42.87161" lon="0.459">
        <ele>1481.32</ele>
        <time>2025-06-09T05:35:38Z</time>
      </trkpt>
      <trkpt lat="42.87161" lon="0.45903">
        <ele>1482.45</ele>
        <time>2025-06-09T05:36:38Z</time>
      </trkpt>
      <trkpt lat="42.87158" lon="0.45905">
        <ele>1483.17</ele>
        <time>2025-06-09T05:36:48Z</time>
      </trkpt>
      <trkpt lat="42.87147" lon="0.45914">
        <ele>1486.54</ele>
        <time>2025-06-09T05:37:00Z</time>
      </trkpt>
      <trkpt lat="42.87146" lon="0.45915">
        <ele>1486.7</ele>
        <time>2025-06-09T05:37:01Z</time>
      </trkpt>
      <trkpt lat="42.87126" lon="0.45931">
        <ele>1488.82</ele>
        <time>2025-06-09T05:37:19Z</time>
      </trkpt>
      <trkpt lat="42.87118" lon="0.45936">
        <ele>1489.75</ele>
        <time>2025-06-09T05:37:25Z</time>
      </trkpt>
      <trkpt lat="42.87096" lon="0.45951">
        <ele>1491.4</ele>
        <time>2025-06-09T05:37:44Z</time>
      </trkpt>
      <trkpt lat="42.87072" lon="0.45967">
        <ele>1493.02</ele>
        <time>2025-06-09T05:38:03Z</time>
      </trkpt>
      <trkpt lat="42.87071" lon="0.45968">
        <ele>1493.74</ele>
        <time>2025-06-09T05:38:05Z</time>
      </trkpt>
      <trkpt lat="42.8707" lon="0.45972">
        <ele>1493.19</ele>
        <time>2025-06-09T05:38:08Z</time>
      </trkpt>
      <trkpt lat="42.87056" lon="0.45993">
        <ele>1495.9</ele>
        <time>2025-06-09T05:38:24Z</time>
      </trkpt>
      <trkpt lat="42.87048" lon="0.4601">
        <ele>1498.32</ele>
        <time>2025-06-09T05:38:35Z</time>
      </trkpt>
      <trkpt lat="42.87045" lon="0.4602">
        <ele>1498.46</ele>
        <time>2025-06-09T05:38:40Z</time>
      </trkpt>
      <trkpt lat="42.87043" lon="0.46028">
        <ele>1499.47</ele>
        <time>2025-06-09T05:38:44Z</time>
      </trkpt>
      <trkpt lat="42.87038" lon="0.46032">
        <ele>1500.86</ele>
        <time>2025-06-09T05:39:03Z</time>
      </trkpt>
      <trkpt lat="42.87038" lon="0.46032">
        <ele>1501.88</ele>
        <time>2025-06-09T05:39:43Z</time>
      </trkpt>
      <trkpt lat="42.87038" lon="0.46033">
        <ele>1501.9</ele>
        <time>2025-06-09T05:39:47Z</time>
      </trkpt>
      <trkpt lat="42.87039" lon="0.46033">
        <ele>1501.71</ele>
        <time>2025-06-09T05:40:00Z</time>
      </trkpt>
      <trkpt lat="42.87035" lon="0.46034">
        <ele>1502.82</ele>
        <time>2025-06-09T05:40:17Z</time>
      </trkpt>
      <trkpt lat="42.8702" lon="0.46047">
        <ele>1506.07</ele>
        <time>2025-06-09T05:40:31Z</time>
      </trkpt>
      <trkpt lat="42.87012" lon="0.46051">
        <ele>1508.21</ele>
        <time>2025-06-09T05:40:38Z</time>
      </trkpt>
      <trkpt lat="42.87003" lon="0.46057">
        <ele>1509.83</ele>
        <time>2025-06-09T05:40:48Z</time>
      </trkpt>
      <trkpt lat="42.86987" lon="0.46064">
        <ele>1513.55</ele>
        <time>2025-06-09T05:41:04Z</time>
      </trkpt>
      <trkpt lat="42.86975" lon="0.46073">
        <ele>1516.59</ele>
        <time>2025-06-09T05:41:17Z</time>
      </trkpt>
      <trkpt lat="42.86962" lon="0.46084">
        <ele>1520.09</ele>
        <time>2025-06-09T05:41:32Z</time>
      </trkpt>
      <trkpt lat="42.8695" lon="0.46092">
        <ele>1523.73</ele>
        <time>2025-06-09T05:41:46Z</time>
      </trkpt>
      <trkpt lat="42.86945" lon="0.46097">
        <ele>1525.63</ele>
        <time>2025-06-09T05:41:53Z</time>
      </trkpt>
      <trkpt lat="42.86934" lon="0.46107">
        <ele>1528.92</ele>
        <time>2025-06-09T05:42:07Z</time>
      </trkpt>
      <trkpt lat="42.86922" lon="0.46112">
        <ele>1532.06</ele>
        <time>2025-06-09T05:42:20Z</time>
      </trkpt>
      <trkpt lat="42.86909" lon="0.46115">
        <ele>1535.29</ele>
        <time>2025-06-09T05:42:34Z</time>
      </trkpt>
      <trkpt lat="42.86901" lon="0.46117">
        <ele>1537.83</ele>
        <time>2025-06-09T05:42:44Z</time>
      </trkpt>
      <trkpt lat="42.86889" lon="0.46126">
        <ele>1540.87</ele>
        <time>2025-06-09T05:43:00Z</time>
      </trkpt>
      <trkpt lat="42.86879" lon="0.46125">
        <ele>1543.2</ele>
        <time>2025-06-09T05:43:11Z</time>
      </trkpt>
      <trkpt lat="42.86867" lon="0.46124">
        <ele>1545.45</ele>
        <time>2025-06-09T05:43:21Z</time>
      </trkpt>
      <trkpt lat="42.86856" lon="0.46123">
        <ele>1548.02</ele>
        <time>2025-06-09T05:43:35Z</time>
      </trkpt>
      <trkpt lat="42.86849" lon="0.46121">
        <ele>1549.35</ele>
        <time>2025-06-09T05:43:42Z</time>
      </trkpt>
      <trkpt lat="42.86837" lon="0.46121">
        <ele>1551.79</ele>
        <time>2025-06-09T05:43:51Z</time>
      </trkpt>
      <trkpt lat="42.86821" lon="0.46124">
        <ele>1554.77</ele>
        <time>2025-06-09T05:44:05Z</time>
      </trkpt>
      <trkpt lat="42.8681" lon="0.46127">
        <ele>1556.29</ele>
        <time>2025-06-09T05:44:14Z</time>
      </trkpt>
      <trkpt lat="42.86804" lon="0.46131">
        <ele>1557.56</ele>
        <time>2025-06-09T05:44:19Z</time>
      </trkpt>
      <trkpt lat="42.86784" lon="0.46142">
        <ele>1559.94</ele>
        <time>2025-06-09T05:44:36Z</time>
      </trkpt>
      <trkpt lat="42.86762" lon="0.46152">
        <ele>1563.41</ele>
        <time>2025-06-09T05:44:52Z</time>
      </trkpt>
      <trkpt lat="42.86761" lon="0.46152">
        <ele>1563.71</ele>
        <time>2025-06-09T05:44:53Z</time>
      </trkpt>
      <trkpt lat="42.86758" lon="0.46152">
        <ele>1563.3</ele>
        <time>2025-06-09T05:44:55Z</time>
      </trkpt>
      <trkpt lat="42.86754" lon="0.46152">
        <ele>1561.92</ele>
        <time>2025-06-09T05:44:59Z</time>
      </trkpt>
      <trkpt lat="42.86748" lon="0.46151">
        <ele>1564.41</ele>
        <time>2025-06-09T05:45:03Z</time>
      </trkpt>
      <trkpt lat="42.86739" lon="0.46149">
        <ele>1567.56</ele>
        <time>2025-06-09T05:45:13Z</time>
      </trkpt>
      <trkpt lat="42.86729" lon="0.46152">
        <ele>1570.61</ele>
        <time>2025-06-09T05:45:26Z</time>
      </trkpt>
      <trkpt lat="42.8672" lon="0.46154">
        <ele>1574.03</ele>
        <time>2025-06-09T05:45:40Z</time>
      </trkpt>
      <trkpt lat="42.86706" lon="0.46153">
        <ele>1577.29</ele>
        <time>2025-06-09T05:45:53Z</time>
      </trkpt>
      <trkpt lat="42.86697" lon="0.46153">
        <ele>1579.2</ele>
        <time>2025-06-09T05:46:01Z</time>
      </trkpt>
      <trkpt lat="42.86689" lon="0.46151">
        <ele>1580.95</ele>
        <time>2025-06-09T05:46:19Z</time>
      </trkpt>
      <trkpt lat="42.86681" lon="0.46142">
        <ele>1584.21</ele>
        <time>2025-06-09T05:46:33Z</time>
      </trkpt>
      <trkpt lat="42.86681" lon="0.46141">
        <ele>1584.89</ele>
        <time>2025-06-09T05:46:35Z</time>
      </trkpt>
      <trkpt lat="42.86671" lon="0.46134">
        <ele>1588.29</ele>
        <time>2025-06-09T05:46:49Z</time>
      </trkpt>
      <trkpt lat="42.86671" lon="0.46134">
        <ele>1588.57</ele>
        <time>2025-06-09T05:46:50Z</time>
      </trkpt>
      <trkpt lat="42.86658" lon="0.46131">
        <ele>1591.65</ele>
        <time>2025-06-09T05:47:03Z</time>
      </trkpt>
      <trkpt lat="42.86642" lon="0.46134">
        <ele>1592.88</ele>
        <time>2025-06-09T05:47:16Z</time>
      </trkpt>
      <trkpt lat="42.86638" lon="0.46133">
        <ele>1594.48</ele>
        <time>2025-06-09T05:47:21Z</time>
      </trkpt>
      <trkpt lat="42.86629" lon="0.46134">
        <ele>1594.67</ele>
        <time>2025-06-09T05:47:27Z</time>
      </trkpt>
      <trkpt lat="42.86615" lon="0.46128">
        <ele>1595.73</ele>
        <time>2025-06-09T05:47:38Z</time>
      </trkpt>
      <trkpt lat="42.86614" lon="0.46128">
        <ele>1595.92</ele>
        <time>2025-06-09T05:47:39Z</time>
      </trkpt>
      <trkpt lat="42.86609" lon="0.46133">
        <ele>1596.25</ele>
        <time>2025-06-09T05:47:43Z</time>
      </trkpt>
      <trkpt lat="42.86602" lon="0.46138">
        <ele>1596.14</ele>
        <time>2025-06-09T05:47:48Z</time>
      </trkpt>
      <trkpt lat="42.86593" lon="0.46145">
        <ele>1599.08</ele>
        <time>2025-06-09T05:48:02Z</time>
      </trkpt>
      <trkpt lat="42.86593" lon="0.46145">
        <ele>1598.75</ele>
        <time>2025-06-09T05:48:03Z</time>
      </trkpt>
      <trkpt lat="42.86592" lon="0.46144">
        <ele>1598.73</ele>
        <time>2025-06-09T05:48:11Z</time>
      </trkpt>
      <trkpt lat="42.86592" lon="0.46145">
        <ele>1599.09</ele>
        <time>2025-06-09T05:48:24Z</time>
      </trkpt>
      <trkpt lat="42.86591" lon="0.46148">
        <ele>1598.6</ele>
        <time>2025-06-09T05:48:44Z</time>
      </trkpt>
      <trkpt lat="42.86589" lon="0.46153">
        <ele>1598.97</ele>
        <time>2025-06-09T05:48:48Z</time>
      </trkpt>
      <trkpt lat="42.86582" lon="0.46156">
        <ele>1601.24</ele>
        <time>2025-06-09T05:48:55Z</time>
      </trkpt>
      <trkpt lat="42.86577" lon="0.46148">
        <ele>1602.13</ele>
        <time>2025-06-09T05:49:01Z</time>
      </trkpt>
      <trkpt lat="42.86577" lon="0.46144">
        <ele>1603.4</ele>
        <time>2025-06-09T05:49:04Z</time>
      </trkpt>
      <trkpt lat="42.86573" lon="0.46141">
        <ele>1604.17</ele>
        <time>2025-06-09T05:49:09Z</time>
      </trkpt>
      <trkpt lat="42.8657" lon="0.46141">
        <ele>1604.8</ele>
        <time>2025-06-09T05:49:17Z</time>
      </trkpt>
      <trkpt lat="42.86564" lon="0.46143">
        <ele>1606</ele>
        <time>2025-06-09T05:49:23Z</time>
      </trkpt>
      <trkpt lat="42.86563" lon="0.46146">
        <ele>1606.57</ele>
        <time>2025-06-09T05:49:26Z</time>
      </trkpt>
      <trkpt lat="42.86556" lon="0.4615">
        <ele>1608.59</ele>
        <time>2025-06-09T05:49:35Z</time>
      </trkpt>
      <trkpt lat="42.86556" lon="0.46136">
        <ele>1611.41</ele>
        <time>2025-06-09T05:49:46Z</time>
      </trkpt>
      <trkpt lat="42.8655" lon="0.46132">
        <ele>1614.93</ele>
        <time>2025-06-09T05:49:58Z</time>
      </trkpt>
      <trkpt lat="42.86543" lon="0.4613">
        <ele>1617.65</ele>
        <time>2025-06-09T05:50:15Z</time>
      </trkpt>
      <trkpt lat="42.8654" lon="0.46122">
        <ele>1620.93</ele>
        <time>2025-06-09T05:50:26Z</time>
      </trkpt>
      <trkpt lat="42.86536" lon="0.46113">
        <ele>1624.11</ele>
        <time>2025-06-09T05:50:41Z</time>
      </trkpt>
      <trkpt lat="42.86528" lon="0.46111">
        <ele>1627.26</ele>
        <time>2025-06-09T05:50:55Z</time>
      </trkpt>
      <trkpt lat="42.8652" lon="0.46115">
        <ele>1630.39</ele>
        <time>2025-06-09T05:51:11Z</time>
      </trkpt>
      <trkpt lat="42.86516" lon="0.46114">
        <ele>1633.89</ele>
        <time>2025-06-09T05:51:25Z</time>
      </trkpt>
      <trkpt lat="42.86511" lon="0.46117">
        <ele>1637.23</ele>
        <time>2025-06-09T05:51:38Z</time>
      </trkpt>
      <trkpt lat="42.8651" lon="0.46104">
        <ele>1640.72</ele>
        <time>2025-06-09T05:51:54Z</time>
      </trkpt>
      <trkpt lat="42.86502" lon="0.46105">
        <ele>1644.31</ele>
        <time>2025-06-09T05:52:10Z</time>
      </trkpt>
      <trkpt lat="42.86493" lon="0.46104">
        <ele>1647.44</ele>
        <time>2025-06-09T05:52:26Z</time>
      </trkpt>
      <trkpt lat="42.86487" lon="0.46104">
        <ele>1649.92</ele>
        <time>2025-06-09T05:52:35Z</time>
      </trkpt>
      <trkpt lat="42.86477" lon="0.46102">
        <ele>1653</ele>
        <time>2025-06-09T05:52:50Z</time>
      </trkpt>
      <trkpt lat="42.86461" lon="0.46096">
        <ele>1656.35</ele>
        <time>2025-06-09T05:53:08Z</time>
      </trkpt>
      <trkpt lat="42.86452" lon="0.4609">
        <ele>1657.32</ele>
        <time>2025-06-09T05:53:19Z</time>
      </trkpt>
      <trkpt lat="42.86438" lon="0.46076">
        <ele>1658</ele>
        <time>2025-06-09T05:53:34Z</time>
      </trkpt>
      <trkpt lat="42.86437" lon="0.46074">
        <ele>1659.34</ele>
        <time>2025-06-09T05:53:39Z</time>
      </trkpt>
      <trkpt lat="42.86428" lon="0.46074">
        <ele>1661.68</ele>
        <time>2025-06-09T05:53:49Z</time>
      </trkpt>
      <trkpt lat="42.86417" lon="0.46071">
        <ele>1664.72</ele>
        <time>2025-06-09T05:54:01Z</time>
      </trkpt>
      <trkpt lat="42.86408" lon="0.46065">
        <ele>1667.88</ele>
        <time>2025-06-09T05:54:15Z</time>
      </trkpt>
      <trkpt lat="42.864" lon="0.46068">
        <ele>1670.29</ele>
        <time>2025-06-09T05:54:28Z</time>
      </trkpt>
      <trkpt lat="42.86397" lon="0.46073">
        <ele>1670.67</ele>
        <time>2025-06-09T05:54:34Z</time>
      </trkpt>
      <trkpt lat="42.86387" lon="0.46073">
        <ele>1672.67</ele>
        <time>2025-06-09T05:54:47Z</time>
      </trkpt>
      <trkpt lat="42.86386" lon="0.46072">
        <ele>1673.34</ele>
        <time>2025-06-09T05:54:49Z</time>
      </trkpt>
      <trkpt lat="42.86377" lon="0.46059">
        <ele>1676.19</ele>
        <time>2025-06-09T05:55:03Z</time>
      </trkpt>
      <trkpt lat="42.86371" lon="0.46059">
        <ele>1678.24</ele>
        <time>2025-06-09T05:55:11Z</time>
      </trkpt>
      <trkpt lat="42.86357" lon="0.46064">
        <ele>1680.58</ele>
        <time>2025-06-09T05:55:26Z</time>
      </trkpt>
      <trkpt lat="42.86348" lon="0.46063">
        <ele>1683.72</ele>
        <time>2025-06-09T05:55:37Z</time>
      </trkpt>
      <trkpt lat="42.86339" lon="0.46065">
        <ele>1685.95</ele>
        <time>2025-06-09T05:55:52Z</time>
      </trkpt>
      <trkpt lat="42.86337" lon="0.46063">
        <ele>1687.55</ele>
        <time>2025-06-09T05:56:11Z</time>
      </trkpt>
      <trkpt lat="42.86336" lon="0.4606">
        <ele>1689.13</ele>
        <time>2025-06-09T05:56:38Z</time>
      </trkpt>
      <trkpt lat="42.86336" lon="0.4606">
        <ele>1689.14</ele>
        <time>2025-06-09T05:56:39Z</time>
      </trkpt>
      <trkpt lat="42.86329" lon="0.46061">
        <ele>1691.32</ele>
        <time>2025-06-09T05:56:57Z</time>
      </trkpt>
      <trkpt lat="42.86321" lon="0.46062">
        <ele>1694.51</ele>
        <time>2025-06-09T05:57:10Z</time>
      </trkpt>
      <trkpt lat="42.86311" lon="0.46063">
        <ele>1697.68</ele>
        <time>2025-06-09T05:57:21Z</time>
      </trkpt>
      <trkpt lat="42.86304" lon="0.46065">
        <ele>1701.05</ele>
        <time>2025-06-09T05:57:34Z</time>
      </trkpt>
      <trkpt lat="42.86299" lon="0.46068">
        <ele>1703.31</ele>
        <time>2025-06-09T05:57:43Z</time>
      </trkpt>
      <trkpt lat="42.86289" lon="0.46071">
        <ele>1704.85</ele>
        <time>2025-06-09T05:58:00Z</time>
      </trkpt>
      <trkpt lat="42.86288" lon="0.46071">
        <ele>1705.46</ele>
        <time>2025-06-09T05:58:02Z</time>
      </trkpt>
      <trkpt lat="42.8628" lon="0.46077">
        <ele>1708.61</ele>
        <time>2025-06-09T05:58:18Z</time>
      </trkpt>
      <trkpt lat="42.86279" lon="0.4607">
        <ele>1711.48</ele>
        <time>2025-06-09T05:58:30Z</time>
      </trkpt>
      <trkpt lat="42.86281" lon="0.46063">
        <ele>1714.72</ele>
        <time>2025-06-09T05:58:41Z</time>
      </trkpt>
      <trkpt lat="42.8628" lon="0.46058">
        <ele>1716.21</ele>
        <time>2025-06-09T05:58:49Z</time>
      </trkpt>
      <trkpt lat="42.86278" lon="0.4605">
        <ele>1719.45</ele>
        <time>2025-06-09T05:59:05Z</time>
      </trkpt>
      <trkpt lat="42.86275" lon="0.46044">
        <ele>1722.74</ele>
        <time>2025-06-09T05:59:18Z</time>
      </trkpt>
      <trkpt lat="42.86278" lon="0.46031">
        <ele>1725.7</ele>
        <time>2025-06-09T05:59:33Z</time>
      </trkpt>
      <trkpt lat="42.86277" lon="0.46015">
        <ele>1730.55</ele>
        <time>2025-06-09T05:59:52Z</time>
      </trkpt>
      <trkpt lat="42.86277" lon="0.46015">
        <ele>1730.57</ele>
        <time>2025-06-09T05:59:53Z</time>
      </trkpt>
      <trkpt lat="42.86278" lon="0.46014">
        <ele>1728.87</ele>
        <time>2025-06-09T05:59:58Z</time>
      </trkpt>
      <trkpt lat="42.86278" lon="0.46013">
        <ele>1728.98</ele>
        <time>2025-06-09T06:00:13Z</time>
      </trkpt>
      <trkpt lat="42.86276" lon="0.46008">
        <ele>1730.04</ele>
        <time>2025-06-09T06:00:29Z</time>
      </trkpt>
      <trkpt lat="42.86269" lon="0.46002">
        <ele>1733.44</ele>
        <time>2025-06-09T06:00:42Z</time>
      </trkpt>
      <trkpt lat="42.86268" lon="0.46001">
        <ele>1733.38</ele>
        <time>2025-06-09T06:00:44Z</time>
      </trkpt>
      <trkpt lat="42.86262" lon="0.45993">
        <ele>1736.48</ele>
        <time>2025-06-09T06:00:54Z</time>
      </trkpt>
      <trkpt lat="42.86254" lon="0.45984">
        <ele>1738.7</ele>
        <time>2025-06-09T06:01:05Z</time>
      </trkpt>
      <trkpt lat="42.86249" lon="0.45982">
        <ele>1739.62</ele>
        <time>2025-06-09T06:01:10Z</time>
      </trkpt>
      <trkpt lat="42.86239" lon="0.45982">
        <ele>1743.15</ele>
        <time>2025-06-09T06:01:19Z</time>
      </trkpt>
      <trkpt lat="42.86236" lon="0.45983">
        <ele>1743.37</ele>
        <time>2025-06-09T06:01:23Z</time>
      </trkpt>
      <trkpt lat="42.86232" lon="0.45985">
        <ele>1744.79</ele>
        <time>2025-06-09T06:01:27Z</time>
      </trkpt>
      <trkpt lat="42.86215" lon="0.45997">
        <ele>1747.3</ele>
        <time>2025-06-09T06:01:45Z</time>
      </trkpt>
      <trkpt lat="42.86204" lon="0.46003">
        <ele>1750.49</ele>
        <time>2025-06-09T06:01:55Z</time>
      </trkpt>
      <trkpt lat="42.86185" lon="0.46012">
        <ele>1751.92</ele>
        <time>2025-06-09T06:02:12Z</time>
      </trkpt>
      <trkpt lat="42.86181" lon="0.46015">
        <ele>1754.06</ele>
        <time>2025-06-09T06:02:21Z</time>
      </trkpt>
      <trkpt lat="42.86182" lon="0.46015">
        <ele>1752.65</ele>
        <time>2025-06-09T06:02:29Z</time>
      </trkpt>
      <trkpt lat="42.86182" lon="0.46015">
        <ele>1752.82</ele>
        <time>2025-06-09T06:02:42Z</time>
      </trkpt>
      <trkpt lat="42.86185" lon="0.46015">
        <ele>1751.85</ele>
        <time>2025-06-09T06:02:44Z</time>
      </trkpt>
      <trkpt lat="42.86185" lon="0.46014">
        <ele>1752.59</ele>
        <time>2025-06-09T06:02:56Z</time>
      </trkpt>
      <trkpt lat="42.86185" lon="0.46014">
        <ele>1753.1</ele>
        <time>2025-06-09T06:03:07Z</time>
      </trkpt>
      <trkpt lat="42.86183" lon="0.46015">
        <ele>1752.77</ele>
        <time>2025-06-09T06:03:30Z</time>
      </trkpt>
      <trkpt lat="42.8618" lon="0.46015">
        <ele>1751.58</ele>
        <time>2025-06-09T06:03:49Z</time>
      </trkpt>
      <trkpt lat="42.8618" lon="0.46015">
        <ele>1752.19</ele>
        <time>2025-06-09T06:04:02Z</time>
      </trkpt>
      <trkpt lat="42.86177" lon="0.46015">
        <ele>1752.17</ele>
        <time>2025-06-09T06:04:18Z</time>
      </trkpt>
      <trkpt lat="42.8618" lon="0.46014">
        <ele>1752.5</ele>
        <time>2025-06-09T06:05:16Z</time>
      </trkpt>
      <trkpt lat="42.8618" lon="0.46013">
        <ele>1753.45</ele>
        <time>2025-06-09T06:06:10Z</time>
      </trkpt>
      <trkpt lat="42.8618" lon="0.46013">
        <ele>1754.1</ele>
        <time>2025-06-09T06:07:12Z</time>
      </trkpt>
      <trkpt lat="42.86179" lon="0.46013">
        <ele>1754.36</ele>
        <time>2025-06-09T06:08:14Z</time>
      </trkpt>
      <trkpt lat="42.8618" lon="0.46013">
        <ele>1756.86</ele>
        <time>2025-06-09T06:08:57Z</time>
      </trkpt>
      <trkpt lat="42.86179" lon="0.46015">
        <ele>1756.63</ele>
        <time>2025-06-09T06:09:21Z</time>
      </trkpt>
      <trkpt lat="42.86179" lon="0.46015">
        <ele>1756.93</ele>
        <time>2025-06-09T06:09:49Z</time>
      </trkpt>
      <trkpt lat="42.8618" lon="0.46012">
        <ele>1756.73</ele>
        <time>2025-06-09T06:09:58Z</time>
      </trkpt>
      <trkpt lat="42.86178" lon="0.4601">
        <ele>1756.76</ele>
        <time>2025-06-09T06:10:01Z</time>
      </trkpt>
      <trkpt lat="42.86171" lon="0.46005">
        <ele>1757.31</ele>
        <time>2025-06-09T06:10:08Z</time>
      </trkpt>
      <trkpt lat="42.86166" lon="0.46">
        <ele>1759.02</ele>
        <time>2025-06-09T06:10:14Z</time>
      </trkpt>
      <trkpt lat="42.86156" lon="0.45991">
        <ele>1761.79</ele>
        <time>2025-06-09T06:10:28Z</time>
      </trkpt>
      <trkpt lat="42.86153" lon="0.45985">
        <ele>1763.61</ele>
        <time>2025-06-09T06:10:43Z</time>
      </trkpt>
      <trkpt lat="42.86152" lon="0.45985">
        <ele>1763.21</ele>
        <time>2025-06-09T06:10:45Z</time>
      </trkpt>
      <trkpt lat="42.8615" lon="0.45984">
        <ele>1763.18</ele>
        <time>2025-06-09T06:10:47Z</time>
      </trkpt>
      <trkpt lat="42.86146" lon="0.4598">
        <ele>1764.22</ele>
        <time>2025-06-09T06:10:52Z</time>
      </trkpt>
      <trkpt lat="42.8614" lon="0.45961">
        <ele>1767.57</ele>
        <time>2025-06-09T06:11:09Z</time>
      </trkpt>
      <trkpt lat="42.86139" lon="0.45954">
        <ele>1769.8</ele>
        <time>2025-06-09T06:11:19Z</time>
      </trkpt>
      <trkpt lat="42.86138" lon="0.45944">
        <ele>1770.65</ele>
        <time>2025-06-09T06:11:31Z</time>
      </trkpt>
      <trkpt lat="42.86138" lon="0.45944">
        <ele>1772.25</ele>
        <time>2025-06-09T06:11:51Z</time>
      </trkpt>
      <trkpt lat="42.86127" lon="0.45921">
        <ele>1773.94</ele>
        <time>2025-06-09T06:12:09Z</time>
      </trkpt>
      <trkpt lat="42.86112" lon="0.45909">
        <ele>1777.39</ele>
        <time>2025-06-09T06:12:24Z</time>
      </trkpt>
      <trkpt lat="42.861" lon="0.459">
        <ele>1780.59</ele>
        <time>2025-06-09T06:12:41Z</time>
      </trkpt>
      <trkpt lat="42.86099" lon="0.4589">
        <ele>1783.89</ele>
        <time>2025-06-09T06:12:57Z</time>
      </trkpt>
      <trkpt lat="42.86093" lon="0.45881">
        <ele>1788.12</ele>
        <time>2025-06-09T06:13:14Z</time>
      </trkpt>
      <trkpt lat="42.86092" lon="0.45881">
        <ele>1787.91</ele>
        <time>2025-06-09T06:13:15Z</time>
      </trkpt>
      <trkpt lat="42.86088" lon="0.45872">
        <ele>1791.28</ele>
        <time>2025-06-09T06:13:29Z</time>
      </trkpt>
      <trkpt lat="42.86086" lon="0.45869">
        <ele>1791.29</ele>
        <time>2025-06-09T06:13:32Z</time>
      </trkpt>
      <trkpt lat="42.86081" lon="0.45863">
        <ele>1792.77</ele>
        <time>2025-06-09T06:13:46Z</time>
      </trkpt>
      <trkpt lat="42.86078" lon="0.45861">
        <ele>1792.78</ele>
        <time>2025-06-09T06:13:50Z</time>
      </trkpt>
      <trkpt lat="42.86074" lon="0.4586">
        <ele>1792.85</ele>
        <time>2025-06-09T06:14:06Z</time>
      </trkpt>
      <trkpt lat="42.86073" lon="0.45859">
        <ele>1793.07</ele>
        <time>2025-06-09T06:14:40Z</time>
      </trkpt>
      <trkpt lat="42.86072" lon="0.45855">
        <ele>1793.1</ele>
        <time>2025-06-09T06:14:43Z</time>
      </trkpt>
      <trkpt lat="42.86072" lon="0.45848">
        <ele>1793.13</ele>
        <time>2025-06-09T06:14:47Z</time>
      </trkpt>
      <trkpt lat="42.86069" lon="0.45822">
        <ele>1793.23</ele>
        <time>2025-06-09T06:15:02Z</time>
      </trkpt>
      <trkpt lat="42.86068" lon="0.45819">
        <ele>1793.25</ele>
        <time>2025-06-09T06:15:04Z</time>
      </trkpt>
      <trkpt lat="42.86067" lon="0.45785">
        <ele>1793.37</ele>
        <time>2025-06-09T06:15:22Z</time>
      </trkpt>
      <trkpt lat="42.86064" lon="0.45754">
        <ele>1793.48</ele>
        <time>2025-06-09T06:15:40Z</time>
      </trkpt>
      <trkpt lat="42.86063" lon="0.45728">
        <ele>1793.59</ele>
        <time>2025-06-09T06:15:57Z</time>
      </trkpt>
      <trkpt lat="42.86065" lon="0.4571">
        <ele>1793.71</ele>
        <time>2025-06-09T06:16:12Z</time>
      </trkpt>
      <trkpt lat="42.86065" lon="0.45692">
        <ele>1793.85</ele>
        <time>2025-06-09T06:16:27Z</time>
      </trkpt>
      <trkpt lat="42.86062" lon="0.45685">
        <ele>1793.91</ele>
        <time>2025-06-09T06:16:33Z</time>
      </trkpt>
      <trkpt lat="42.86057" lon="0.45678">
        <ele>1807.93</ele>
        <time>2025-06-09T06:16:42Z</time>
      </trkpt>
      <trkpt lat="42.86056" lon="0.45678">
        <ele>1808.19</ele>
        <time>2025-06-09T06:16:43Z</time>
      </trkpt>
      <trkpt lat="42.86054" lon="0.45671">
        <ele>1810.91</ele>
        <time>2025-06-09T06:16:54Z</time>
      </trkpt>
      <trkpt lat="42.86052" lon="0.45668">
        <ele>1812.51</ele>
        <time>2025-06-09T06:17:00Z</time>
      </trkpt>
      <trkpt lat="42.86052" lon="0.45658">
        <ele>1815.56</ele>
        <time>2025-06-09T06:17:13Z</time>
      </trkpt>
      <trkpt lat="42.86053" lon="0.45645">
        <ele>1818.72</ele>
        <time>2025-06-09T06:17:27Z</time>
      </trkpt>
      <trkpt lat="42.86053" lon="0.45643">
        <ele>1819.04</ele>
        <time>2025-06-09T06:17:29Z</time>
      </trkpt>
      <trkpt lat="42.86053" lon="0.4563">
        <ele>1820</ele>
        <time>2025-06-09T06:17:44Z</time>
      </trkpt>
      <trkpt lat="42.86053" lon="0.45632">
        <ele>1821.41</ele>
        <time>2025-06-09T06:18:21Z</time>
      </trkpt>
      <trkpt lat="42.86055" lon="0.45627">
        <ele>1822.16</ele>
        <time>2025-06-09T06:18:49Z</time>
      </trkpt>
      <trkpt lat="42.86053" lon="0.45601">
        <ele>1825.75</ele>
        <time>2025-06-09T06:19:05Z</time>
      </trkpt>
      <trkpt lat="42.86051" lon="0.45569">
        <ele>1828.43</ele>
        <time>2025-06-09T06:19:25Z</time>
      </trkpt>
      <trkpt lat="42.86046" lon="0.45551">
        <ele>1831.76</ele>
        <time>2025-06-09T06:19:37Z</time>
      </trkpt>
      <trkpt lat="42.86046" lon="0.4555">
        <ele>1831.34</ele>
        <time>2025-06-09T06:19:38Z</time>
      </trkpt>
      <trkpt lat="42.86045" lon="0.45545">
        <ele>1831.33</ele>
        <time>2025-06-09T06:19:41Z</time>
      </trkpt>
      <trkpt lat="42.86046" lon="0.45537">
        <ele>1831.35</ele>
        <time>2025-06-09T06:19:47Z</time>
      </trkpt>
      <trkpt lat="42.86047" lon="0.45526">
        <ele>1832.23</ele>
        <time>2025-06-09T06:20:05Z</time>
      </trkpt>
      <trkpt lat="42.86047" lon="0.45525">
        <ele>1833.13</ele>
        <time>2025-06-09T06:20:18Z</time>
      </trkpt>
      <trkpt lat="42.86046" lon="0.45519">
        <ele>1833.09</ele>
        <time>2025-06-09T06:20:22Z</time>
      </trkpt>
      <trkpt lat="42.86043" lon="0.45494">
        <ele>1836.51</ele>
        <time>2025-06-09T06:20:38Z</time>
      </trkpt>
      <trkpt lat="42.8604" lon="0.45469">
        <ele>1837.7</ele>
        <time>2025-06-09T06:20:53Z</time>
      </trkpt>
      <trkpt lat="42.8604" lon="0.4544">
        <ele>1840.1</ele>
        <time>2025-06-09T06:21:09Z</time>
      </trkpt>
      <trkpt lat="42.86036" lon="0.45416">
        <ele>1842.3</ele>
        <time>2025-06-09T06:21:24Z</time>
      </trkpt>
      <trkpt lat="42.86034" lon="0.45409">
        <ele>1842.79</ele>
        <time>2025-06-09T06:21:28Z</time>
      </trkpt>
      <trkpt lat="42.86029" lon="0.45381">
        <ele>1845.28</ele>
        <time>2025-06-09T06:21:45Z</time>
      </trkpt>
      <trkpt lat="42.86029" lon="0.45379">
        <ele>1845.93</ele>
        <time>2025-06-09T06:21:47Z</time>
      </trkpt>
      <trkpt lat="42.86025" lon="0.45363">
        <ele>1848.59</ele>
        <time>2025-06-09T06:21:58Z</time>
      </trkpt>
      <trkpt lat="42.86023" lon="0.45359">
        <ele>1849.69</ele>
        <time>2025-06-09T06:22:03Z</time>
      </trkpt>
      <trkpt lat="42.86023" lon="0.4534">
        <ele>1853.48</ele>
        <time>2025-06-09T06:22:19Z</time>
      </trkpt>
      <trkpt lat="42.86022" lon="0.45316">
        <ele>1855.73</ele>
        <time>2025-06-09T06:22:35Z</time>
      </trkpt>
      <trkpt lat="42.86012" lon="0.45285">
        <ele>1857.59</ele>
        <time>2025-06-09T06:22:53Z</time>
      </trkpt>
      <trkpt lat="42.86005" lon="0.45259">
        <ele>1860.21</ele>
        <time>2025-06-09T06:23:09Z</time>
      </trkpt>
      <trkpt lat="42.86001" lon="0.45244">
        <ele>1863.43</ele>
        <time>2025-06-09T06:23:24Z</time>
      </trkpt>
      <trkpt lat="42.85998" lon="0.45234">
        <ele>1866.52</ele>
        <time>2025-06-09T06:23:36Z</time>
      </trkpt>
      <trkpt lat="42.85996" lon="0.45231">
        <ele>1867.07</ele>
        <time>2025-06-09T06:23:40Z</time>
      </trkpt>
      <trkpt lat="42.85994" lon="0.45216">
        <ele>1870.57</ele>
        <time>2025-06-09T06:23:55Z</time>
      </trkpt>
      <trkpt lat="42.85992" lon="0.45204">
        <ele>1873.41</ele>
        <time>2025-06-09T06:24:09Z</time>
      </trkpt>
      <trkpt lat="42.85992" lon="0.45201">
        <ele>1873.48</ele>
        <time>2025-06-09T06:24:11Z</time>
      </trkpt>
      <trkpt lat="42.85991" lon="0.45191">
        <ele>1876.28</ele>
        <time>2025-06-09T06:24:21Z</time>
      </trkpt>
      <trkpt lat="42.8599" lon="0.45184">
        <ele>1877.16</ele>
        <time>2025-06-09T06:24:26Z</time>
      </trkpt>
      <trkpt lat="42.85987" lon="0.4518">
        <ele>1877.95</ele>
        <time>2025-06-09T06:24:31Z</time>
      </trkpt>
      <trkpt lat="42.85983" lon="0.45169">
        <ele>1880.21</ele>
        <time>2025-06-09T06:24:40Z</time>
      </trkpt>
      <trkpt lat="42.85983" lon="0.45166">
        <ele>1880.38</ele>
        <time>2025-06-09T06:24:42Z</time>
      </trkpt>
      <trkpt lat="42.85982" lon="0.45164">
        <ele>1881.11</ele>
        <time>2025-06-09T06:24:44Z</time>
      </trkpt>
      <trkpt lat="42.85979" lon="0.4516">
        <ele>1881.62</ele>
        <time>2025-06-09T06:24:53Z</time>
      </trkpt>
      <trkpt lat="42.85975" lon="0.45154">
        <ele>1883.06</ele>
        <time>2025-06-09T06:25:01Z</time>
      </trkpt>
      <trkpt lat="42.85976" lon="0.45152">
        <ele>1884.32</ele>
        <time>2025-06-09T06:25:04Z</time>
      </trkpt>
      <trkpt lat="42.85974" lon="0.45146">
        <ele>1885.57</ele>
        <time>2025-06-09T06:25:11Z</time>
      </trkpt>
      <trkpt lat="42.8597" lon="0.45138">
        <ele>1889.02</ele>
        <time>2025-06-09T06:25:23Z</time>
      </trkpt>
      <trkpt lat="42.85968" lon="0.45128">
        <ele>1892.05</ele>
        <time>2025-06-09T06:25:37Z</time>
      </trkpt>
      <trkpt lat="42.85966" lon="0.45118">
        <ele>1895.86</ele>
        <time>2025-06-09T06:25:52Z</time>
      </trkpt>
      <trkpt lat="42.85966" lon="0.45106">
        <ele>1898.05</ele>
        <time>2025-06-09T06:26:09Z</time>
      </trkpt>
      <trkpt lat="42.85965" lon="0.45097">
        <ele>1901.98</ele>
        <time>2025-06-09T06:26:21Z</time>
      </trkpt>
      <trkpt lat="42.85965" lon="0.45085">
        <ele>1904.64</ele>
        <time>2025-06-09T06:26:35Z</time>
      </trkpt>
      <trkpt lat="42.85962" lon="0.45075">
        <ele>1907.76</ele>
        <time>2025-06-09T06:26:51Z</time>
      </trkpt>
      <trkpt lat="42.85963" lon="0.45064">
        <ele>1910.2</ele>
        <time>2025-06-09T06:27:06Z</time>
      </trkpt>
      <trkpt lat="42.85964" lon="0.45063">
        <ele>1910.24</ele>
        <time>2025-06-09T06:27:24Z</time>
      </trkpt>
      <trkpt lat="42.85964" lon="0.45064">
        <ele>1910.56</ele>
        <time>2025-06-09T06:27:34Z</time>
      </trkpt>
      <trkpt lat="42.85961" lon="0.45058">
        <ele>1911.45</ele>
        <time>2025-06-09T06:27:48Z</time>
      </trkpt>
      <trkpt lat="42.8596" lon="0.45042">
        <ele>1914</ele>
        <time>2025-06-09T06:28:05Z</time>
      </trkpt>
      <trkpt lat="42.85961" lon="0.45034">
        <ele>1915.95</ele>
        <time>2025-06-09T06:28:15Z</time>
      </trkpt>
      <trkpt lat="42.85966" lon="0.45028">
        <ele>1918.53</ele>
        <time>2025-06-09T06:28:24Z</time>
      </trkpt>
      <trkpt lat="42.85967" lon="0.4502">
        <ele>1922.06</ele>
        <time>2025-06-09T06:28:36Z</time>
      </trkpt>
      <trkpt lat="42.85966" lon="0.45013">
        <ele>1923.65</ele>
        <time>2025-06-09T06:28:46Z</time>
      </trkpt>
      <trkpt lat="42.85967" lon="0.45004">
        <ele>1926.95</ele>
        <time>2025-06-09T06:28:59Z</time>
      </trkpt>
      <trkpt lat="42.8597" lon="0.44992">
        <ele>1929.24</ele>
        <time>2025-06-09T06:29:12Z</time>
      </trkpt>
      <trkpt lat="42.85969" lon="0.44979">
        <ele>1932.26</ele>
        <time>2025-06-09T06:29:26Z</time>
      </trkpt>
      <trkpt lat="42.85964" lon="0.44967">
        <ele>1935.63</ele>
        <time>2025-06-09T06:29:40Z</time>
      </trkpt>
      <trkpt lat="42.85963" lon="0.44956">
        <ele>1938.45</ele>
        <time>2025-06-09T06:29:54Z</time>
      </trkpt>
      <trkpt lat="42.85959" lon="0.44948">
        <ele>1941.7</ele>
        <time>2025-06-09T06:30:06Z</time>
      </trkpt>
      <trkpt lat="42.85962" lon="0.44931">
        <ele>1944.97</ele>
        <time>2025-06-09T06:30:25Z</time>
      </trkpt>
      <trkpt lat="42.85963" lon="0.44926">
        <ele>1945.7</ele>
        <time>2025-06-09T06:30:29Z</time>
      </trkpt>
      <trkpt lat="42.85965" lon="0.44915">
        <ele>1946.85</ele>
        <time>2025-06-09T06:30:37Z</time>
      </trkpt>
      <trkpt lat="42.85964" lon="0.44909">
        <ele>1947.19</ele>
        <time>2025-06-09T06:30:41Z</time>
      </trkpt>
      <trkpt lat="42.85963" lon="0.44884">
        <ele>1950.34</ele>
        <time>2025-06-09T06:30:58Z</time>
      </trkpt>
      <trkpt lat="42.85966" lon="0.44862">
        <ele>1953.01</ele>
        <time>2025-06-09T06:31:14Z</time>
      </trkpt>
      <trkpt lat="42.85966" lon="0.44849">
        <ele>1956.09</ele>
        <time>2025-06-09T06:31:26Z</time>
      </trkpt>
      <trkpt lat="42.85964" lon="0.44838">
        <ele>1959.4</ele>
        <time>2025-06-09T06:31:39Z</time>
      </trkpt>
      <trkpt lat="42.85964" lon="0.44822">
        <ele>1962.14</ele>
        <time>2025-06-09T06:31:52Z</time>
      </trkpt>
      <trkpt lat="42.85967" lon="0.44801">
        <ele>1965.18</ele>
        <time>2025-06-09T06:32:08Z</time>
      </trkpt>
      <trkpt lat="42.85968" lon="0.44793">
        <ele>1967.01</ele>
        <time>2025-06-09T06:32:16Z</time>
      </trkpt>
      <trkpt lat="42.85968" lon="0.44791">
        <ele>1967.44</ele>
        <time>2025-06-09T06:32:18Z</time>
      </trkpt>
      <trkpt lat="42.85966" lon="0.44783">
        <ele>1969.65</ele>
        <time>2025-06-09T06:32:26Z</time>
      </trkpt>
      <trkpt lat="42.8596" lon="0.44775">
        <ele>1972.67</ele>
        <time>2025-06-09T06:32:39Z</time>
      </trkpt>
      <trkpt lat="42.85954" lon="0.44764">
        <ele>1975.76</ele>
        <time>2025-06-09T06:32:57Z</time>
      </trkpt>
      <trkpt lat="42.85955" lon="0.44752">
        <ele>1979.3</ele>
        <time>2025-06-09T06:33:11Z</time>
      </trkpt>
      <trkpt lat="42.8595" lon="0.44739">
        <ele>1982.71</ele>
        <time>2025-06-09T06:33:26Z</time>
      </trkpt>
      <trkpt lat="42.85952" lon="0.44727">
        <ele>1986.33</ele>
        <time>2025-06-09T06:33:43Z</time>
      </trkpt>
      <trkpt lat="42.85949" lon="0.44716">
        <ele>1989.36</ele>
        <time>2025-06-09T06:33:57Z</time>
      </trkpt>
      <trkpt lat="42.85946" lon="0.44706">
        <ele>1992.39</ele>
        <time>2025-06-09T06:34:13Z</time>
      </trkpt>
      <trkpt lat="42.85943" lon="0.44701">
        <ele>1995.82</ele>
        <time>2025-06-09T06:34:27Z</time>
      </trkpt>
      <trkpt lat="42.85941" lon="0.44694">
        <ele>1998.96</ele>
        <time>2025-06-09T06:34:44Z</time>
      </trkpt>
      <trkpt lat="42.85933" lon="0.44688">
        <ele>2002.38</ele>
        <time>2025-06-09T06:35:00Z</time>
      </trkpt>
      <trkpt lat="42.8593" lon="0.44682">
        <ele>2005.75</ele>
        <time>2025-06-09T06:35:14Z</time>
      </trkpt>
      <trkpt lat="42.85929" lon="0.4467">
        <ele>2009.33</ele>
        <time>2025-06-09T06:35:34Z</time>
      </trkpt>
      <trkpt lat="42.8593" lon="0.44663">
        <ele>2012.41</ele>
        <time>2025-06-09T06:35:46Z</time>
      </trkpt>
      <trkpt lat="42.85927" lon="0.44654">
        <ele>2015.45</ele>
        <time>2025-06-09T06:36:00Z</time>
      </trkpt>
      <trkpt lat="42.85928" lon="0.44647">
        <ele>2018.06</ele>
        <time>2025-06-09T06:36:20Z</time>
      </trkpt>
      <trkpt lat="42.85931" lon="0.44649">
        <ele>2018.19</ele>
        <time>2025-06-09T06:37:04Z</time>
      </trkpt>
      <trkpt lat="42.85932" lon="0.44647">
        <ele>2019.19</ele>
        <time>2025-06-09T06:37:37Z</time>
      </trkpt>
      <trkpt lat="42.85933" lon="0.44638">
        <ele>2022.33</ele>
        <time>2025-06-09T06:37:50Z</time>
      </trkpt>
      <trkpt lat="42.85933" lon="0.44636">
        <ele>2027.03</ele>
        <time>2025-06-09T06:37:56Z</time>
      </trkpt>
      <trkpt lat="42.85934" lon="0.44635">
        <ele>2024.53</ele>
        <time>2025-06-09T06:37:57Z</time>
      </trkpt>
      <trkpt lat="42.85942" lon="0.44632">
        <ele>2027.88</ele>
        <time>2025-06-09T06:38:13Z</time>
      </trkpt>
      <trkpt lat="42.8595" lon="0.44621">
        <ele>2030.9</ele>
        <time>2025-06-09T06:38:28Z</time>
      </trkpt>
      <trkpt lat="42.8595" lon="0.44618">
        <ele>2031.77</ele>
        <time>2025-06-09T06:38:32Z</time>
      </trkpt>
      <trkpt lat="42.8595" lon="0.44615">
        <ele>2032.77</ele>
        <time>2025-06-09T06:38:38Z</time>
      </trkpt>
      <trkpt lat="42.85951" lon="0.44616">
        <ele>2031.83</ele>
        <time>2025-06-09T06:39:06Z</time>
      </trkpt>
      <trkpt lat="42.85951" lon="0.44617">
        <ele>2035.33</ele>
        <time>2025-06-09T06:39:10Z</time>
      </trkpt>
      <trkpt lat="42.85951" lon="0.44617">
        <ele>2032.12</ele>
        <time>2025-06-09T06:39:12Z</time>
      </trkpt>
      <trkpt lat="42.85951" lon="0.44605">
        <ele>2035.26</ele>
        <time>2025-06-09T06:39:24Z</time>
      </trkpt>
      <trkpt lat="42.85944" lon="0.44596">
        <ele>2038.52</ele>
        <time>2025-06-09T06:39:37Z</time>
      </trkpt>
      <trkpt lat="42.85943" lon="0.44595">
        <ele>2039.57</ele>
        <time>2025-06-09T06:39:39Z</time>
      </trkpt>
      <trkpt lat="42.85939" lon="0.44586">
        <ele>2043.12</ele>
        <time>2025-06-09T06:39:51Z</time>
      </trkpt>
      <trkpt lat="42.85944" lon="0.44581">
        <ele>2046.15</ele>
        <time>2025-06-09T06:40:08Z</time>
      </trkpt>
      <trkpt lat="42.85941" lon="0.44572">
        <ele>2049.53</ele>
        <time>2025-06-09T06:40:22Z</time>
      </trkpt>
      <trkpt lat="42.85938" lon="0.44563">
        <ele>2052.62</ele>
        <time>2025-06-09T06:40:37Z</time>
      </trkpt>
      <trkpt lat="42.85933" lon="0.44556">
        <ele>2056.06</ele>
        <time>2025-06-09T06:40:51Z</time>
      </trkpt>
      <trkpt lat="42.85929" lon="0.4455">
        <ele>2059.51</ele>
        <time>2025-06-09T06:41:07Z</time>
      </trkpt>
      <trkpt lat="42.85927" lon="0.44545">
        <ele>2061.44</ele>
        <time>2025-06-09T06:41:24Z</time>
      </trkpt>
      <trkpt lat="42.85929" lon="0.4454">
        <ele>2064.58</ele>
        <time>2025-06-09T06:41:37Z</time>
      </trkpt>
      <trkpt lat="42.85931" lon="0.44534">
        <ele>2068.05</ele>
        <time>2025-06-09T06:41:50Z</time>
      </trkpt>
      <trkpt lat="42.85933" lon="0.44525">
        <ele>2070.54</ele>
        <time>2025-06-09T06:42:07Z</time>
      </trkpt>
      <trkpt lat="42.85933" lon="0.44529">
        <ele>2069.62</ele>
        <time>2025-06-09T06:42:26Z</time>
      </trkpt>
      <trkpt lat="42.85929" lon="0.44532">
        <ele>2070.74</ele>
        <time>2025-06-09T06:42:51Z</time>
      </trkpt>
      <trkpt lat="42.85927" lon="0.44532">
        <ele>2070.9</ele>
        <time>2025-06-09T06:43:31Z</time>
      </trkpt>
      <trkpt lat="42.85928" lon="0.44532">
        <ele>2070.95</ele>
        <time>2025-06-09T06:43:54Z</time>
      </trkpt>
      <trkpt lat="42.85933" lon="0.44528">
        <ele>2070.59</ele>
        <time>2025-06-09T06:44:03Z</time>
      </trkpt>
      <trkpt lat="42.85944" lon="0.44517">
        <ele>2071.86</ele>
        <time>2025-06-09T06:44:13Z</time>
      </trkpt>
      <trkpt lat="42.85946" lon="0.44515">
        <ele>2072.87</ele>
        <time>2025-06-09T06:44:22Z</time>
      </trkpt>
      <trkpt lat="42.85948" lon="0.44514">
        <ele>2072.68</ele>
        <time>2025-06-09T06:44:25Z</time>
      </trkpt>
      <trkpt lat="42.85953" lon="0.44509">
        <ele>2073.07</ele>
        <time>2025-06-09T06:44:32Z</time>
      </trkpt>
      <trkpt lat="42.85955" lon="0.44507">
        <ele>2072.6</ele>
        <time>2025-06-09T06:44:34Z</time>
      </trkpt>
      <trkpt lat="42.85961" lon="0.44504">
        <ele>2074.04</ele>
        <time>2025-06-09T06:44:40Z</time>
      </trkpt>
      <trkpt lat="42.85969" lon="0.44496">
        <ele>2073.65</ele>
        <time>2025-06-09T06:44:54Z</time>
      </trkpt>
      <trkpt lat="42.8597" lon="0.44496">
        <ele>2073.46</ele>
        <time>2025-06-09T06:44:55Z</time>
      </trkpt>
      <trkpt lat="42.85973" lon="0.44494">
        <ele>2073.82</ele>
        <time>2025-06-09T06:44:58Z</time>
      </trkpt>
      <trkpt lat="42.85979" lon="0.4449">
        <ele>2074.52</ele>
        <time>2025-06-09T06:45:03Z</time>
      </trkpt>
      <trkpt lat="42.85987" lon="0.44487">
        <ele>2075.62</ele>
        <time>2025-06-09T06:45:12Z</time>
      </trkpt>
      <trkpt lat="42.85993" lon="0.44484">
        <ele>2075.59</ele>
        <time>2025-06-09T06:45:17Z</time>
      </trkpt>
      <trkpt lat="42.86012" lon="0.44474">
        <ele>2076.9</ele>
        <time>2025-06-09T06:45:33Z</time>
      </trkpt>
      <trkpt lat="42.86016" lon="0.44469">
        <ele>2075.76</ele>
        <time>2025-06-09T06:45:37Z</time>
      </trkpt>
      <trkpt lat="42.86022" lon="0.44464">
        <ele>2075.89</ele>
        <time>2025-06-09T06:45:42Z</time>
      </trkpt>
      <trkpt lat="42.86024" lon="0.44462">
        <ele>2076.41</ele>
        <time>2025-06-09T06:45:44Z</time>
      </trkpt>
      <trkpt lat="42.86024" lon="0.44459">
        <ele>2076.29</ele>
        <time>2025-06-09T06:45:47Z</time>
      </trkpt>
      <trkpt lat="42.86027" lon="0.44453">
        <ele>2077.26</ele>
        <time>2025-06-09T06:45:53Z</time>
      </trkpt>
      <trkpt lat="42.86033" lon="0.44443">
        <ele>2077.93</ele>
        <time>2025-06-09T06:46:02Z</time>
      </trkpt>
      <trkpt lat="42.86039" lon="0.44441">
        <ele>2078.37</ele>
        <time>2025-06-09T06:46:32Z</time>
      </trkpt>
      <trkpt lat="42.86041" lon="0.44435">
        <ele>2078.19</ele>
        <time>2025-06-09T06:46:37Z</time>
      </trkpt>
      <trkpt lat="42.86042" lon="0.44429">
        <ele>2078.96</ele>
        <time>2025-06-09T06:46:41Z</time>
      </trkpt>
      <trkpt lat="42.86043" lon="0.44423">
        <ele>2079.47</ele>
        <time>2025-06-09T06:46:45Z</time>
      </trkpt>
      <trkpt lat="42.86044" lon="0.44421">
        <ele>2080.4</ele>
        <time>2025-06-09T06:46:47Z</time>
      </trkpt>
      <trkpt lat="42.86049" lon="0.44398">
        <ele>2082.06</ele>
        <time>2025-06-09T06:47:02Z</time>
      </trkpt>
      <trkpt lat="42.8605" lon="0.44388">
        <ele>2082.54</ele>
        <time>2025-06-09T06:47:10Z</time>
      </trkpt>
      <trkpt lat="42.86051" lon="0.44383">
        <ele>2084.12</ele>
        <time>2025-06-09T06:47:18Z</time>
      </trkpt>
      <trkpt lat="42.8605" lon="0.44379">
        <ele>2084.48</ele>
        <time>2025-06-09T06:47:22Z</time>
      </trkpt>
      <trkpt lat="42.8605" lon="0.44362">
        <ele>2088.21</ele>
        <time>2025-06-09T06:47:37Z</time>
      </trkpt>
      <trkpt lat="42.8605" lon="0.44352">
        <ele>2090.31</ele>
        <time>2025-06-09T06:47:53Z</time>
      </trkpt>
      <trkpt lat="42.86049" lon="0.44341">
        <ele>2092.25</ele>
        <time>2025-06-09T06:48:04Z</time>
      </trkpt>
      <trkpt lat="42.86047" lon="0.44328">
        <ele>2096.08</ele>
        <time>2025-06-09T06:48:19Z</time>
      </trkpt>
      <trkpt lat="42.86046" lon="0.4432">
        <ele>2099.11</ele>
        <time>2025-06-09T06:48:34Z</time>
      </trkpt>
      <trkpt lat="42.86045" lon="0.44312">
        <ele>2102.09</ele>
        <time>2025-06-09T06:48:53Z</time>
      </trkpt>
      <trkpt lat="42.86046" lon="0.44311">
        <ele>2103.2</ele>
        <time>2025-06-09T06:48:56Z</time>
      </trkpt>
      <trkpt lat="42.86047" lon="0.4431">
        <ele>2105.81</ele>
        <time>2025-06-09T06:49:06Z</time>
      </trkpt>
      <trkpt lat="42.86047" lon="0.44309">
        <ele>2104.25</ele>
        <time>2025-06-09T06:49:09Z</time>
      </trkpt>
      <trkpt lat="42.86047" lon="0.44305">
        <ele>2107.34</ele>
        <time>2025-06-09T06:49:21Z</time>
      </trkpt>
      <trkpt lat="42.86045" lon="0.44299">
        <ele>2110.72</ele>
        <time>2025-06-09T06:49:39Z</time>
      </trkpt>
      <trkpt lat="42.86045" lon="0.44298">
        <ele>2110.98</ele>
        <time>2025-06-09T06:49:43Z</time>
      </trkpt>
      <trkpt lat="42.86044" lon="0.44292">
        <ele>2114.86</ele>
        <time>2025-06-09T06:49:57Z</time>
      </trkpt>
      <trkpt lat="42.86043" lon="0.44287">
        <ele>2115.96</ele>
        <time>2025-06-09T06:50:16Z</time>
      </trkpt>
      <trkpt lat="42.86037" lon="0.44283">
        <ele>2114.09</ele>
        <time>2025-06-09T06:50:37Z</time>
      </trkpt>
      <trkpt lat="42.86037" lon="0.44283">
        <ele>2109.65</ele>
        <time>2025-06-09T06:50:41Z</time>
      </trkpt>
      <trkpt lat="42.86037" lon="0.44282">
        <ele>2119.06</ele>
        <time>2025-06-09T06:50:42Z</time>
      </trkpt>
      <trkpt lat="42.86037" lon="0.44282">
        <ele>2114.91</ele>
        <time>2025-06-09T06:50:43Z</time>
      </trkpt>
      <trkpt lat="42.86038" lon="0.4428">
        <ele>2118.39</ele>
        <time>2025-06-09T06:50:53Z</time>
      </trkpt>
      <trkpt lat="42.86041" lon="0.44275">
        <ele>2120.64</ele>
        <time>2025-06-09T06:51:13Z</time>
      </trkpt>
      <trkpt lat="42.8604" lon="0.44274">
        <ele>2123.97</ele>
        <time>2025-06-09T06:51:24Z</time>
      </trkpt>
      <trkpt lat="42.86038" lon="0.44266">
        <ele>2124</ele>
        <time>2025-06-09T06:51:36Z</time>
      </trkpt>
      <trkpt lat="42.86034" lon="0.44257">
        <ele>2127.75</ele>
        <time>2025-06-09T06:51:50Z</time>
      </trkpt>
      <trkpt lat="42.86033" lon="0.44256">
        <ele>2127.87</ele>
        <time>2025-06-09T06:51:51Z</time>
      </trkpt>
      <trkpt lat="42.86031" lon="0.44253">
        <ele>2130.05</ele>
        <time>2025-06-09T06:52:10Z</time>
      </trkpt>
      <trkpt lat="42.86033" lon="0.44248">
        <ele>2134.42</ele>
        <time>2025-06-09T06:52:28Z</time>
      </trkpt>
      <trkpt lat="42.86033" lon="0.44248">
        <ele>2133.25</ele>
        <time>2025-06-09T06:52:29Z</time>
      </trkpt>
      <trkpt lat="42.86033" lon="0.44245">
        <ele>2139.11</ele>
        <time>2025-06-09T06:52:45Z</time>
      </trkpt>
      <trkpt lat="42.86037" lon="0.44244">
        <ele>2139.17</ele>
        <time>2025-06-09T06:53:03Z</time>
      </trkpt>
      <trkpt lat="42.86042" lon="0.44245">
        <ele>2141.68</ele>
        <time>2025-06-09T06:53:18Z</time>
      </trkpt>
      <trkpt lat="42.86048" lon="0.44239">
        <ele>2143.69</ele>
        <time>2025-06-09T06:53:31Z</time>
      </trkpt>
      <trkpt lat="42.8605" lon="0.44234">
        <ele>2144.15</ele>
        <time>2025-06-09T06:53:35Z</time>
      </trkpt>
      <trkpt lat="42.86054" lon="0.44231">
        <ele>2144.3</ele>
        <time>2025-06-09T06:53:39Z</time>
      </trkpt>
      <trkpt lat="42.86063" lon="0.44217">
        <ele>2145.52</ele>
        <time>2025-06-09T06:53:51Z</time>
      </trkpt>
      <trkpt lat="42.86063" lon="0.44212">
        <ele>2145.55</ele>
        <time>2025-06-09T06:53:56Z</time>
      </trkpt>
      <trkpt lat="42.86067" lon="0.44194">
        <ele>2143.5</ele>
        <time>2025-06-09T06:54:11Z</time>
      </trkpt>
      <trkpt lat="42.86069" lon="0.44194">
        <ele>2143.86</ele>
        <time>2025-06-09T06:54:44Z</time>
      </trkpt>
      <trkpt lat="42.8607" lon="0.44193">
        <ele>2143.97</ele>
        <time>2025-06-09T06:55:09Z</time>
      </trkpt>
      <trkpt lat="42.86071" lon="0.4419">
        <ele>2142.79</ele>
        <time>2025-06-09T06:55:12Z</time>
      </trkpt>
      <trkpt lat="42.86073" lon="0.44185">
        <ele>2142.39</ele>
        <time>2025-06-09T06:55:15Z</time>
      </trkpt>
      <trkpt lat="42.86075" lon="0.44182">
        <ele>2142.85</ele>
        <time>2025-06-09T06:55:18Z</time>
      </trkpt>
      <trkpt lat="42.86077" lon="0.44178">
        <ele>2142.18</ele>
        <time>2025-06-09T06:55:21Z</time>
      </trkpt>
      <trkpt lat="42.86076" lon="0.44178">
        <ele>2141.82</ele>
        <time>2025-06-09T06:55:23Z</time>
      </trkpt>
      <trkpt lat="42.86079" lon="0.44169">
        <ele>2140.29</ele>
        <time>2025-06-09T06:55:30Z</time>
      </trkpt>
      <trkpt lat="42.86082" lon="0.44159">
        <ele>2140.1</ele>
        <time>2025-06-09T06:55:37Z</time>
      </trkpt>
      <trkpt lat="42.86085" lon="0.44158">
        <ele>2139.85</ele>
        <time>2025-06-09T06:55:39Z</time>
      </trkpt>
      <trkpt lat="42.8609" lon="0.44154">
        <ele>2144.08</ele>
        <time>2025-06-09T06:55:49Z</time>
      </trkpt>
      <trkpt lat="42.86096" lon="0.44149">
        <ele>2146.02</ele>
        <time>2025-06-09T06:56:06Z</time>
      </trkpt>
      <trkpt lat="42.86099" lon="0.44148">
        <ele>2149.87</ele>
        <time>2025-06-09T06:56:20Z</time>
      </trkpt>
      <trkpt lat="42.86099" lon="0.44148">
        <ele>2148.57</ele>
        <time>2025-06-09T06:56:21Z</time>
      </trkpt>
      <trkpt lat="42.86102" lon="0.44152">
        <ele>2148.45</ele>
        <time>2025-06-09T06:56:26Z</time>
      </trkpt>
      <trkpt lat="42.86109" lon="0.44146">
        <ele>2148.48</ele>
        <time>2025-06-09T06:56:40Z</time>
      </trkpt>
      <trkpt lat="42.8611" lon="0.44147">
        <ele>2152.49</ele>
        <time>2025-06-09T06:56:41Z</time>
      </trkpt>
      <trkpt lat="42.86114" lon="0.44143">
        <ele>2147.84</ele>
        <time>2025-06-09T06:56:52Z</time>
      </trkpt>
      <trkpt lat="42.8612" lon="0.44133">
        <ele>2147.63</ele>
        <time>2025-06-09T06:57:06Z</time>
      </trkpt>
      <trkpt lat="42.86121" lon="0.4413">
        <ele>2146.74</ele>
        <time>2025-06-09T06:57:09Z</time>
      </trkpt>
      <trkpt lat="42.86124" lon="0.44126">
        <ele>2145.75</ele>
        <time>2025-06-09T06:57:13Z</time>
      </trkpt>
      <trkpt lat="42.86133" lon="0.44117">
        <ele>2144.38</ele>
        <time>2025-06-09T06:57:27Z</time>
      </trkpt>
      <trkpt lat="42.86138" lon="0.44106">
        <ele>2142.85</ele>
        <time>2025-06-09T06:57:40Z</time>
      </trkpt>
      <trkpt lat="42.86139" lon="0.44104">
        <ele>2142.34</ele>
        <time>2025-06-09T06:57:43Z</time>
      </trkpt>
      <trkpt lat="42.86141" lon="0.44101">
        <ele>2141.44</ele>
        <time>2025-06-09T06:57:46Z</time>
      </trkpt>
      <trkpt lat="42.86147" lon="0.44091">
        <ele>2141.78</ele>
        <time>2025-06-09T06:57:53Z</time>
      </trkpt>
      <trkpt lat="42.86156" lon="0.4407">
        <ele>2143.89</ele>
        <time>2025-06-09T06:58:08Z</time>
      </trkpt>
      <trkpt lat="42.86158" lon="0.44067">
        <ele>2145.6</ele>
        <time>2025-06-09T06:58:13Z</time>
      </trkpt>
      <trkpt lat="42.86159" lon="0.44062">
        <ele>2146.41</ele>
        <time>2025-06-09T06:58:17Z</time>
      </trkpt>
      <trkpt lat="42.86174" lon="0.44042">
        <ele>2146.84</ele>
        <time>2025-06-09T06:58:34Z</time>
      </trkpt>
      <trkpt lat="42.86174" lon="0.44041">
        <ele>2146.74</ele>
        <time>2025-06-09T06:58:36Z</time>
      </trkpt>
      <trkpt lat="42.86176" lon="0.44037">
        <ele>2145.97</ele>
        <time>2025-06-09T06:58:39Z</time>
      </trkpt>
      <trkpt lat="42.86181" lon="0.44024">
        <ele>2146.16</ele>
        <time>2025-06-09T06:58:47Z</time>
      </trkpt>
      <trkpt lat="42.8618" lon="0.44018">
        <ele>2147.62</ele>
        <time>2025-06-09T06:58:53Z</time>
      </trkpt>
      <trkpt lat="42.86177" lon="0.44017">
        <ele>2147.7</ele>
        <time>2025-06-09T06:58:56Z</time>
      </trkpt>
      <trkpt lat="42.86174" lon="0.44012">
        <ele>2148.5</ele>
        <time>2025-06-09T06:59:01Z</time>
      </trkpt>
      <trkpt lat="42.86178" lon="0.44005">
        <ele>2150.33</ele>
        <time>2025-06-09T06:59:08Z</time>
      </trkpt>
      <trkpt lat="42.86185" lon="0.43995">
        <ele>2153.53</ele>
        <time>2025-06-09T06:59:21Z</time>
      </trkpt>
      <trkpt lat="42.86189" lon="0.43983">
        <ele>2154.4</ele>
        <time>2025-06-09T06:59:35Z</time>
      </trkpt>
      <trkpt lat="42.86191" lon="0.43973">
        <ele>2155.99</ele>
        <time>2025-06-09T06:59:50Z</time>
      </trkpt>
      <trkpt lat="42.86191" lon="0.43971">
        <ele>2156.53</ele>
        <time>2025-06-09T07:00:09Z</time>
      </trkpt>
      <trkpt lat="42.8619" lon="0.43974">
        <ele>2156.25</ele>
        <time>2025-06-09T07:00:38Z</time>
      </trkpt>
      <trkpt lat="42.8619" lon="0.43975">
        <ele>2155.13</ele>
        <time>2025-06-09T07:00:55Z</time>
      </trkpt>
      <trkpt lat="42.8619" lon="0.43974">
        <ele>2154.93</ele>
        <time>2025-06-09T07:01:16Z</time>
      </trkpt>
      <trkpt lat="42.8619" lon="0.43974">
        <ele>2155.51</ele>
        <time>2025-06-09T07:02:04Z</time>
      </trkpt>
      <trkpt lat="42.8619" lon="0.43974">
        <ele>2155.76</ele>
        <time>2025-06-09T07:02:26Z</time>
      </trkpt>
      <trkpt lat="42.86191" lon="0.43974">
        <ele>2155.91</ele>
        <time>2025-06-09T07:03:03Z</time>
      </trkpt>
      <trkpt lat="42.86191" lon="0.43974">
        <ele>2155.96</ele>
        <time>2025-06-09T07:03:27Z</time>
      </trkpt>
      <trkpt lat="42.8619" lon="0.43974">
        <ele>2156.15</ele>
        <time>2025-06-09T07:04:22Z</time>
      </trkpt>
      <trkpt lat="42.86191" lon="0.43974">
        <ele>2156.79</ele>
        <time>2025-06-09T07:05:10Z</time>
      </trkpt>
      <trkpt lat="42.8619" lon="0.43973">
        <ele>2157.37</ele>
        <time>2025-06-09T07:05:55Z</time>
      </trkpt>
      <trkpt lat="42.8619" lon="0.43974">
        <ele>2156.29</ele>
        <time>2025-06-09T07:06:06Z</time>
      </trkpt>
      <trkpt lat="42.8619" lon="0.43973">
        <ele>2156.81</ele>
        <time>2025-06-09T07:06:17Z</time>
      </trkpt>
      <trkpt lat="42.86191" lon="0.43973">
        <ele>2157.07</ele>
        <time>2025-06-09T07:07:18Z</time>
      </trkpt>
      <trkpt lat="42.86191" lon="0.43974">
        <ele>2157.67</ele>
        <time>2025-06-09T07:08:10Z</time>
      </trkpt>
      <trkpt lat="42.86191" lon="0.43974">
        <ele>2157.9</ele>
        <time>2025-06-09T07:08:54Z</time>
      </trkpt>
      <trkpt lat="42.86191" lon="0.43974">
        <ele>2158.99</ele>
        <time>2025-06-09T07:09:45Z</time>
      </trkpt>
      <trkpt lat="42.86191" lon="0.43973">
        <ele>2159.53</ele>
        <time>2025-06-09T07:10:37Z</time>
      </trkpt>
      <trkpt lat="42.86191" lon="0.43973">
        <ele>2159.78</ele>
        <time>2025-06-09T07:10:58Z</time>
      </trkpt>
      <trkpt lat="42.86191" lon="0.43974">
        <ele>2159.39</ele>
        <time>2025-06-09T07:11:48Z</time>
      </trkpt>
      <trkpt lat="42.8619" lon="0.43974">
        <ele>2160.23</ele>
        <time>2025-06-09T07:12:09Z</time>
      </trkpt>
      <trkpt lat="42.86191" lon="0.43973">
        <ele>2160.09</ele>
        <time>2025-06-09T07:12:51Z</time>
      </trkpt>
      <trkpt lat="42.86191" lon="0.43973">
        <ele>2160.7</ele>
        <time>2025-06-09T07:13:26Z</time>
      </trkpt>
      <trkpt lat="42.86191" lon="0.43973">
        <ele>2160.52</ele>
        <time>2025-06-09T07:14:25Z</time>
      </trkpt>
      <trkpt lat="42.86191" lon="0.43973">
        <ele>2160.63</ele>
        <time>2025-06-09T07:15:09Z</time>
      </trkpt>
      <trkpt lat="42.86192" lon="0.43973">
        <ele>2161.29</ele>
        <time>2025-06-09T07:15:43Z</time>
      </trkpt>
      <trkpt lat="42.86192" lon="0.43973">
        <ele>2161.79</ele>
        <time>2025-06-09T07:16:21Z</time>
      </trkpt>
      <trkpt lat="42.86192" lon="0.43973">
        <ele>2161.56</ele>
        <time>2025-06-09T07:16:57Z</time>
      </trkpt>
      <trkpt lat="42.86192" lon="0.43973">
        <ele>2161.67</ele>
        <time>2025-06-09T07:17:21Z</time>
      </trkpt>
      <trkpt lat="42.86191" lon="0.43974">
        <ele>2162.56</ele>
        <time>2025-06-09T07:17:40Z</time>
      </trkpt>
      <trkpt lat="42.8619" lon="0.43977">
        <ele>2162.65</ele>
        <time>2025-06-09T07:17:55Z</time>
      </trkpt>
      <trkpt lat="42.86185" lon="0.43984">
        <ele>2160.84</ele>
        <time>2025-06-09T07:18:07Z</time>
      </trkpt>
      <trkpt lat="42.86185" lon="0.43991">
        <ele>2161.19</ele>
        <time>2025-06-09T07:18:22Z</time>
      </trkpt>
      <trkpt lat="42.86185" lon="0.43992">
        <ele>2161.22</ele>
        <time>2025-06-09T07:18:42Z</time>
      </trkpt>
      <trkpt lat="42.86185" lon="0.43993">
        <ele>2161.82</ele>
        <time>2025-06-09T07:19:07Z</time>
      </trkpt>
      <trkpt lat="42.86182" lon="0.43998">
        <ele>2160.43</ele>
        <time>2025-06-09T07:19:17Z</time>
      </trkpt>
      <trkpt lat="42.86179" lon="0.44003">
        <ele>2158.74</ele>
        <time>2025-06-09T07:19:25Z</time>
      </trkpt>
      <trkpt lat="42.86175" lon="0.44009">
        <ele>2156.74</ele>
        <time>2025-06-09T07:19:31Z</time>
      </trkpt>
      <trkpt lat="42.86182" lon="0.44017">
        <ele>2155.47</ele>
        <time>2025-06-09T07:19:41Z</time>
      </trkpt>
      <trkpt lat="42.86177" lon="0.44037">
        <ele>2156.17</ele>
        <time>2025-06-09T07:19:55Z</time>
      </trkpt>
      <trkpt lat="42.86177" lon="0.44037">
        <ele>2156.72</ele>
        <time>2025-06-09T07:19:56Z</time>
      </trkpt>
      <trkpt lat="42.86175" lon="0.44038">
        <ele>2155.9</ele>
        <time>2025-06-09T07:19:58Z</time>
      </trkpt>
      <trkpt lat="42.86162" lon="0.44059">
        <ele>2155.09</ele>
        <time>2025-06-09T07:20:15Z</time>
      </trkpt>
      <trkpt lat="42.86157" lon="0.44066">
        <ele>2152.66</ele>
        <time>2025-06-09T07:20:26Z</time>
      </trkpt>
      <trkpt lat="42.86155" lon="0.44073">
        <ele>2151.58</ele>
        <time>2025-06-09T07:20:30Z</time>
      </trkpt>
      <trkpt lat="42.86149" lon="0.44087">
        <ele>2151.4</ele>
        <time>2025-06-09T07:20:38Z</time>
      </trkpt>
      <trkpt lat="42.86142" lon="0.44099">
        <ele>2152.25</ele>
        <time>2025-06-09T07:20:49Z</time>
      </trkpt>
      <trkpt lat="42.86137" lon="0.4411">
        <ele>2154.11</ele>
        <time>2025-06-09T07:21:02Z</time>
      </trkpt>
      <trkpt lat="42.86128" lon="0.44119">
        <ele>2156.65</ele>
        <time>2025-06-09T07:21:16Z</time>
      </trkpt>
      <trkpt lat="42.86122" lon="0.44129">
        <ele>2158.47</ele>
        <time>2025-06-09T07:21:30Z</time>
      </trkpt>
      <trkpt lat="42.86119" lon="0.44135">
        <ele>2158.85</ele>
        <time>2025-06-09T07:21:37Z</time>
      </trkpt>
      <trkpt lat="42.86111" lon="0.44144">
        <ele>2160.9</ele>
        <time>2025-06-09T07:21:50Z</time>
      </trkpt>
      <trkpt lat="42.86108" lon="0.44149">
        <ele>2159.84</ele>
        <time>2025-06-09T07:22:03Z</time>
      </trkpt>
      <trkpt lat="42.86108" lon="0.44149">
        <ele>2160.32</ele>
        <time>2025-06-09T07:22:21Z</time>
      </trkpt>
      <trkpt lat="42.86103" lon="0.44145">
        <ele>2159.48</ele>
        <time>2025-06-09T07:23:02Z</time>
      </trkpt>
      <trkpt lat="42.86098" lon="0.44143">
        <ele>2157.67</ele>
        <time>2025-06-09T07:23:16Z</time>
      </trkpt>
      <trkpt lat="42.86094" lon="0.44149">
        <ele>2154.88</ele>
        <time>2025-06-09T07:23:30Z</time>
      </trkpt>
      <trkpt lat="42.8609" lon="0.44152">
        <ele>2151.68</ele>
        <time>2025-06-09T07:23:39Z</time>
      </trkpt>
      <trkpt lat="42.86081" lon="0.44166">
        <ele>2152.45</ele>
        <time>2025-06-09T07:23:52Z</time>
      </trkpt>
      <trkpt lat="42.86074" lon="0.44181">
        <ele>2154.72</ele>
        <time>2025-06-09T07:24:06Z</time>
      </trkpt>
      <trkpt lat="42.86072" lon="0.44187">
        <ele>2155.2</ele>
        <time>2025-06-09T07:24:11Z</time>
      </trkpt>
      <trkpt lat="42.8607" lon="0.44189">
        <ele>2155.39</ele>
        <time>2025-06-09T07:24:13Z</time>
      </trkpt>
      <trkpt lat="42.8607" lon="0.44195">
        <ele>2156.21</ele>
        <time>2025-06-09T07:24:19Z</time>
      </trkpt>
      <trkpt lat="42.86068" lon="0.44203">
        <ele>2157.07</ele>
        <time>2025-06-09T07:24:24Z</time>
      </trkpt>
      <trkpt lat="42.86066" lon="0.44209">
        <ele>2157.24</ele>
        <time>2025-06-09T07:24:28Z</time>
      </trkpt>
      <trkpt lat="42.86062" lon="0.44216">
        <ele>2157.72</ele>
        <time>2025-06-09T07:24:33Z</time>
      </trkpt>
      <trkpt lat="42.8606" lon="0.44219">
        <ele>2157.5</ele>
        <time>2025-06-09T07:24:36Z</time>
      </trkpt>
      <trkpt lat="42.86057" lon="0.44225">
        <ele>2156.97</ele>
        <time>2025-06-09T07:24:40Z</time>
      </trkpt>
      <trkpt lat="42.86047" lon="0.44241">
        <ele>2155.77</ele>
        <time>2025-06-09T07:24:54Z</time>
      </trkpt>
      <trkpt lat="42.86047" lon="0.44245">
        <ele>2155.5</ele>
        <time>2025-06-09T07:25:09Z</time>
      </trkpt>
      <trkpt lat="42.86046" lon="0.44244">
        <ele>2155.48</ele>
        <time>2025-06-09T07:25:55Z</time>
      </trkpt>
      <trkpt lat="42.86042" lon="0.44245">
        <ele>2154.29</ele>
        <time>2025-06-09T07:26:02Z</time>
      </trkpt>
      <trkpt lat="42.86039" lon="0.44246">
        <ele>2151.2</ele>
        <time>2025-06-09T07:26:12Z</time>
      </trkpt>
      <trkpt lat="42.86034" lon="0.44246">
        <ele>2150.39</ele>
        <time>2025-06-09T07:26:24Z</time>
      </trkpt>
      <trkpt lat="42.86031" lon="0.4425">
        <ele>2147.18</ele>
        <time>2025-06-09T07:26:34Z</time>
      </trkpt>
      <trkpt lat="42.8603" lon="0.44256">
        <ele>2144.15</ele>
        <time>2025-06-09T07:26:47Z</time>
      </trkpt>
      <trkpt lat="42.86031" lon="0.44262">
        <ele>2140.72</ele>
        <time>2025-06-09T07:27:02Z</time>
      </trkpt>
      <trkpt lat="42.86034" lon="0.44273">
        <ele>2137.31</ele>
        <time>2025-06-09T07:27:12Z</time>
      </trkpt>
      <trkpt lat="42.86034" lon="0.44274">
        <ele>2136.81</ele>
        <time>2025-06-09T07:27:13Z</time>
      </trkpt>
      <trkpt lat="42.86036" lon="0.44277">
        <ele>2136.02</ele>
        <time>2025-06-09T07:27:15Z</time>
      </trkpt>
      <trkpt lat="42.86039" lon="0.44284">
        <ele>2133.36</ele>
        <time>2025-06-09T07:27:30Z</time>
      </trkpt>
      <trkpt lat="42.86035" lon="0.44286">
        <ele>2130.12</ele>
        <time>2025-06-09T07:27:45Z</time>
      </trkpt>
      <trkpt lat="42.86033" lon="0.44291">
        <ele>2127.44</ele>
        <time>2025-06-09T07:28:01Z</time>
      </trkpt>
      <trkpt lat="42.8603" lon="0.44292">
        <ele>2124.13</ele>
        <time>2025-06-09T07:28:12Z</time>
      </trkpt>
      <trkpt lat="42.8603" lon="0.44297">
        <ele>2122</ele>
        <time>2025-06-09T07:28:21Z</time>
      </trkpt>
      <trkpt lat="42.86026" lon="0.44299">
        <ele>2119.17</ele>
        <time>2025-06-09T07:28:29Z</time>
      </trkpt>
      <trkpt lat="42.86026" lon="0.443">
        <ele>2118.74</ele>
        <time>2025-06-09T07:28:31Z</time>
      </trkpt>
      <trkpt lat="42.86027" lon="0.44302">
        <ele>2117.58</ele>
        <time>2025-06-09T07:28:35Z</time>
      </trkpt>
      <trkpt lat="42.86029" lon="0.44305">
        <ele>2115.22</ele>
        <time>2025-06-09T07:28:49Z</time>
      </trkpt>
      <trkpt lat="42.86029" lon="0.44309">
        <ele>2112.84</ele>
        <time>2025-06-09T07:29:05Z</time>
      </trkpt>
      <trkpt lat="42.86028" lon="0.44312">
        <ele>2111.38</ele>
        <time>2025-06-09T07:29:22Z</time>
      </trkpt>
      <trkpt lat="42.86032" lon="0.44317">
        <ele>2108.57</ele>
        <time>2025-06-09T07:29:34Z</time>
      </trkpt>
      <trkpt lat="42.86032" lon="0.44317">
        <ele>2108.17</ele>
        <time>2025-06-09T07:29:35Z</time>
      </trkpt>
      <trkpt lat="42.86035" lon="0.44323">
        <ele>2106.84</ele>
        <time>2025-06-09T07:29:39Z</time>
      </trkpt>
      <trkpt lat="42.86042" lon="0.4434">
        <ele>2104.26</ele>
        <time>2025-06-09T07:29:53Z</time>
      </trkpt>
      <trkpt lat="42.86044" lon="0.44347">
        <ele>2102.69</ele>
        <time>2025-06-09T07:29:58Z</time>
      </trkpt>
      <trkpt lat="42.86047" lon="0.44354">
        <ele>2101.84</ele>
        <time>2025-06-09T07:30:07Z</time>
      </trkpt>
      <trkpt lat="42.86049" lon="0.44358">
        <ele>2101.72</ele>
        <time>2025-06-09T07:30:10Z</time>
      </trkpt>
      <trkpt lat="42.86049" lon="0.44363">
        <ele>2100.42</ele>
        <time>2025-06-09T07:30:13Z</time>
      </trkpt>
      <trkpt lat="42.8605" lon="0.44383">
        <ele>2097.1</ele>
        <time>2025-06-09T07:30:24Z</time>
      </trkpt>
      <trkpt lat="42.8605" lon="0.44394">
        <ele>2097</ele>
        <time>2025-06-09T07:30:31Z</time>
      </trkpt>
      <trkpt lat="42.86049" lon="0.44401">
        <ele>2096.62</ele>
        <time>2025-06-09T07:30:36Z</time>
      </trkpt>
      <trkpt lat="42.86047" lon="0.44407">
        <ele>2095.81</ele>
        <time>2025-06-09T07:30:40Z</time>
      </trkpt>
      <trkpt lat="42.86045" lon="0.44412">
        <ele>2094.53</ele>
        <time>2025-06-09T07:30:43Z</time>
      </trkpt>
      <trkpt lat="42.8604" lon="0.44434">
        <ele>2093.06</ele>
        <time>2025-06-09T07:30:57Z</time>
      </trkpt>
      <trkpt lat="42.86023" lon="0.44459">
        <ele>2092.08</ele>
        <time>2025-06-09T07:31:14Z</time>
      </trkpt>
      <trkpt lat="42.86008" lon="0.4447">
        <ele>2093.06</ele>
        <time>2025-06-09T07:31:28Z</time>
      </trkpt>
      <trkpt lat="42.85991" lon="0.4448">
        <ele>2092.51</ele>
        <time>2025-06-09T07:31:42Z</time>
      </trkpt>
      <trkpt lat="42.85976" lon="0.44486">
        <ele>2090.09</ele>
        <time>2025-06-09T07:31:55Z</time>
      </trkpt>
      <trkpt lat="42.85967" lon="0.44495">
        <ele>2090.42</ele>
        <time>2025-06-09T07:32:03Z</time>
      </trkpt>
      <trkpt lat="42.85964" lon="0.44499">
        <ele>2090.51</ele>
        <time>2025-06-09T07:32:07Z</time>
      </trkpt>
      <trkpt lat="42.85956" lon="0.44504">
        <ele>2089.75</ele>
        <time>2025-06-09T07:32:15Z</time>
      </trkpt>
      <trkpt lat="42.85946" lon="0.44513">
        <ele>2088.65</ele>
        <time>2025-06-09T07:32:28Z</time>
      </trkpt>
      <trkpt lat="42.85945" lon="0.44513">
        <ele>2088.43</ele>
        <time>2025-06-09T07:32:29Z</time>
      </trkpt>
      <trkpt lat="42.85938" lon="0.44522">
        <ele>2085.76</ele>
        <time>2025-06-09T07:32:40Z</time>
      </trkpt>
      <trkpt lat="42.85936" lon="0.44525">
        <ele>2087.12</ele>
        <time>2025-06-09T07:32:54Z</time>
      </trkpt>
      <trkpt lat="42.85934" lon="0.44527">
        <ele>2086.97</ele>
        <time>2025-06-09T07:32:57Z</time>
      </trkpt>
      <trkpt lat="42.85928" lon="0.44529">
        <ele>2088</ele>
        <time>2025-06-09T07:33:03Z</time>
      </trkpt>
      <trkpt lat="42.85912" lon="0.44527">
        <ele>2087.83</ele>
        <time>2025-06-09T07:33:18Z</time>
      </trkpt>
      <trkpt lat="42.85906" lon="0.44529">
        <ele>2090.9</ele>
        <time>2025-06-09T07:33:29Z</time>
      </trkpt>
      <trkpt lat="42.85902" lon="0.44531">
        <ele>2091.86</ele>
        <time>2025-06-09T07:33:34Z</time>
      </trkpt>
      <trkpt lat="42.85899" lon="0.44534">
        <ele>2092.79</ele>
        <time>2025-06-09T07:33:39Z</time>
      </trkpt>
      <trkpt lat="42.85894" lon="0.44536">
        <ele>2094.07</ele>
        <time>2025-06-09T07:33:44Z</time>
      </trkpt>
      <trkpt lat="42.85892" lon="0.44537">
        <ele>2093.66</ele>
        <time>2025-06-09T07:33:46Z</time>
      </trkpt>
      <trkpt lat="42.8588" lon="0.44546">
        <ele>2095.81</ele>
        <time>2025-06-09T07:33:58Z</time>
      </trkpt>
      <trkpt lat="42.85869" lon="0.44557">
        <ele>2097.46</ele>
        <time>2025-06-09T07:34:12Z</time>
      </trkpt>
      <trkpt lat="42.85859" lon="0.44567">
        <ele>2097.25</ele>
        <time>2025-06-09T07:34:24Z</time>
      </trkpt>
      <trkpt lat="42.85854" lon="0.44579">
        <ele>2098.07</ele>
        <time>2025-06-09T07:34:31Z</time>
      </trkpt>
      <trkpt lat="42.85848" lon="0.44596">
        <ele>2098.89</ele>
        <time>2025-06-09T07:34:45Z</time>
      </trkpt>
      <trkpt lat="42.85847" lon="0.446">
        <ele>2097.8</ele>
        <time>2025-06-09T07:34:49Z</time>
      </trkpt>
      <trkpt lat="42.85845" lon="0.44604">
        <ele>2096.3</ele>
        <time>2025-06-09T07:34:52Z</time>
      </trkpt>
      <trkpt lat="42.85835" lon="0.44626">
        <ele>2096.46</ele>
        <time>2025-06-09T07:35:06Z</time>
      </trkpt>
      <trkpt lat="42.85821" lon="0.44646">
        <ele>2099.57</ele>
        <time>2025-06-09T07:35:22Z</time>
      </trkpt>
      <trkpt lat="42.85807" lon="0.44669">
        <ele>2101.74</ele>
        <time>2025-06-09T07:35:39Z</time>
      </trkpt>
      <trkpt lat="42.85801" lon="0.44678">
        <ele>2102.53</ele>
        <time>2025-06-09T07:35:55Z</time>
      </trkpt>
      <trkpt lat="42.85788" lon="0.44714">
        <ele>2104.17</ele>
        <time>2025-06-09T07:36:16Z</time>
      </trkpt>
      <trkpt lat="42.85778" lon="0.44747">
        <ele>2103.76</ele>
        <time>2025-06-09T07:36:33Z</time>
      </trkpt>
      <trkpt lat="42.85761" lon="0.44781">
        <ele>2101.63</ele>
        <time>2025-06-09T07:36:54Z</time>
      </trkpt>
      <trkpt lat="42.8575" lon="0.44802">
        <ele>2101.69</ele>
        <time>2025-06-09T07:37:09Z</time>
      </trkpt>
      <trkpt lat="42.85751" lon="0.44804">
        <ele>2102.57</ele>
        <time>2025-06-09T07:37:11Z</time>
      </trkpt>
      <trkpt lat="42.85753" lon="0.44813">
        <ele>2105.69</ele>
        <time>2025-06-09T07:37:24Z</time>
      </trkpt>
      <trkpt lat="42.85756" lon="0.44821">
        <ele>2108.89</ele>
        <time>2025-06-09T07:37:38Z</time>
      </trkpt>
      <trkpt lat="42.85756" lon="0.44821">
        <ele>2108.98</ele>
        <time>2025-06-09T07:37:39Z</time>
      </trkpt>
      <trkpt lat="42.85755" lon="0.44834">
        <ele>2111.68</ele>
        <time>2025-06-09T07:37:57Z</time>
      </trkpt>
      <trkpt lat="42.85755" lon="0.44836">
        <ele>2110.95</ele>
        <time>2025-06-09T07:37:59Z</time>
      </trkpt>
      <trkpt lat="42.85753" lon="0.4484">
        <ele>2109.67</ele>
        <time>2025-06-09T07:38:02Z</time>
      </trkpt>
      <trkpt lat="42.85752" lon="0.44842">
        <ele>2109.82</ele>
        <time>2025-06-09T07:38:04Z</time>
      </trkpt>
      <trkpt lat="42.85752" lon="0.44846">
        <ele>2108.92</ele>
        <time>2025-06-09T07:38:08Z</time>
      </trkpt>
      <trkpt lat="42.85748" lon="0.44848">
        <ele>2106.7</ele>
        <time>2025-06-09T07:38:18Z</time>
      </trkpt>
      <trkpt lat="42.85748" lon="0.44858">
        <ele>2105.47</ele>
        <time>2025-06-09T07:38:28Z</time>
      </trkpt>
      <trkpt lat="42.85746" lon="0.44871">
        <ele>2106.09</ele>
        <time>2025-06-09T07:38:41Z</time>
      </trkpt>
      <trkpt lat="42.85746" lon="0.44875">
        <ele>2106.03</ele>
        <time>2025-06-09T07:38:44Z</time>
      </trkpt>
      <trkpt lat="42.85745" lon="0.44878">
        <ele>2105.38</ele>
        <time>2025-06-09T07:38:46Z</time>
      </trkpt>
      <trkpt lat="42.85745" lon="0.44883">
        <ele>2105.41</ele>
        <time>2025-06-09T07:38:51Z</time>
      </trkpt>
      <trkpt lat="42.85752" lon="0.44898">
        <ele>2108.78</ele>
        <time>2025-06-09T07:39:07Z</time>
      </trkpt>
      <trkpt lat="42.85753" lon="0.44905">
        <ele>2109.92</ele>
        <time>2025-06-09T07:39:19Z</time>
      </trkpt>
      <trkpt lat="42.85754" lon="0.44914">
        <ele>2111.63</ele>
        <time>2025-06-09T07:39:30Z</time>
      </trkpt>
      <trkpt lat="42.85755" lon="0.44918">
        <ele>2113.46</ele>
        <time>2025-06-09T07:39:35Z</time>
      </trkpt>
      <trkpt lat="42.85758" lon="0.44919">
        <ele>2113.88</ele>
        <time>2025-06-09T07:39:44Z</time>
      </trkpt>
      <trkpt lat="42.85757" lon="0.44918">
        <ele>2115.87</ele>
        <time>2025-06-09T07:39:48Z</time>
      </trkpt>
      <trkpt lat="42.85756" lon="0.44919">
        <ele>2113.81</ele>
        <time>2025-06-09T07:39:57Z</time>
      </trkpt>
      <trkpt lat="42.85755" lon="0.44921">
        <ele>2113.21</ele>
        <time>2025-06-09T07:40:09Z</time>
      </trkpt>
      <trkpt lat="42.85752" lon="0.44925">
        <ele>2113.24</ele>
        <time>2025-06-09T07:40:57Z</time>
      </trkpt>
      <trkpt lat="42.85745" lon="0.44928">
        <ele>2110.51</ele>
        <time>2025-06-09T07:41:10Z</time>
      </trkpt>
      <trkpt lat="42.85737" lon="0.44937">
        <ele>2107.54</ele>
        <time>2025-06-09T07:41:23Z</time>
      </trkpt>
      <trkpt lat="42.85732" lon="0.44952">
        <ele>2105.32</ele>
        <time>2025-06-09T07:41:39Z</time>
      </trkpt>
      <trkpt lat="42.85728" lon="0.44956">
        <ele>2102.96</ele>
        <time>2025-06-09T07:41:45Z</time>
      </trkpt>
      <trkpt lat="42.85724" lon="0.44964">
        <ele>2099.38</ele>
        <time>2025-06-09T07:41:53Z</time>
      </trkpt>
      <trkpt lat="42.85723" lon="0.44965">
        <ele>2099.11</ele>
        <time>2025-06-09T07:41:54Z</time>
      </trkpt>
      <trkpt lat="42.85718" lon="0.44975">
        <ele>2095.84</ele>
        <time>2025-06-09T07:42:02Z</time>
      </trkpt>
      <trkpt lat="42.85713" lon="0.44982">
        <ele>2093.2</ele>
        <time>2025-06-09T07:42:11Z</time>
      </trkpt>
      <trkpt lat="42.85711" lon="0.44986">
        <ele>2091.63</ele>
        <time>2025-06-09T07:42:15Z</time>
      </trkpt>
      <trkpt lat="42.8571" lon="0.45001">
        <ele>2088.57</ele>
        <time>2025-06-09T07:42:23Z</time>
      </trkpt>
      <trkpt lat="42.85709" lon="0.4501">
        <ele>2087.18</ele>
        <time>2025-06-09T07:42:28Z</time>
      </trkpt>
      <trkpt lat="42.85707" lon="0.45026">
        <ele>2086.09</ele>
        <time>2025-06-09T07:42:37Z</time>
      </trkpt>
      <trkpt lat="42.85706" lon="0.4504">
        <ele>2082.93</ele>
        <time>2025-06-09T07:42:47Z</time>
      </trkpt>
      <trkpt lat="42.85706" lon="0.45047">
        <ele>2082.16</ele>
        <time>2025-06-09T07:42:51Z</time>
      </trkpt>
      <trkpt lat="42.85703" lon="0.45057">
        <ele>2079.34</ele>
        <time>2025-06-09T07:43:07Z</time>
      </trkpt>
      <trkpt lat="42.85703" lon="0.45058">
        <ele>2079.46</ele>
        <time>2025-06-09T07:43:27Z</time>
      </trkpt>
      <trkpt lat="42.85701" lon="0.45063">
        <ele>2077.9</ele>
        <time>2025-06-09T07:43:31Z</time>
      </trkpt>
      <trkpt lat="42.85698" lon="0.45064">
        <ele>2076.65</ele>
        <time>2025-06-09T07:43:34Z</time>
      </trkpt>
      <trkpt lat="42.85695" lon="0.45072">
        <ele>2073.61</ele>
        <time>2025-06-09T07:43:44Z</time>
      </trkpt>
      <trkpt lat="42.85694" lon="0.45074">
        <ele>2071.76</ele>
        <time>2025-06-09T07:43:49Z</time>
      </trkpt>
      <trkpt lat="42.8569" lon="0.45076">
        <ele>2070.4</ele>
        <time>2025-06-09T07:43:54Z</time>
      </trkpt>
      <trkpt lat="42.85689" lon="0.45081">
        <ele>2069.91</ele>
        <time>2025-06-09T07:43:58Z</time>
      </trkpt>
      <trkpt lat="42.85687" lon="0.45084">
        <ele>2068.09</ele>
        <time>2025-06-09T07:44:01Z</time>
      </trkpt>
      <trkpt lat="42.85686" lon="0.45102">
        <ele>2067.63</ele>
        <time>2025-06-09T07:44:14Z</time>
      </trkpt>
      <trkpt lat="42.85685" lon="0.4511">
        <ele>2070.79</ele>
        <time>2025-06-09T07:44:25Z</time>
      </trkpt>
      <trkpt lat="42.85685" lon="0.45118">
        <ele>2074.04</ele>
        <time>2025-06-09T07:44:39Z</time>
      </trkpt>
      <trkpt lat="42.85681" lon="0.45127">
        <ele>2077.3</ele>
        <time>2025-06-09T07:44:57Z</time>
      </trkpt>
      <trkpt lat="42.85682" lon="0.45136">
        <ele>2080.47</ele>
        <time>2025-06-09T07:45:17Z</time>
      </trkpt>
      <trkpt lat="42.85682" lon="0.45136">
        <ele>2083.53</ele>
        <time>2025-06-09T07:45:32Z</time>
      </trkpt>
      <trkpt lat="42.85684" lon="0.45144">
        <ele>2086.54</ele>
        <time>2025-06-09T07:45:47Z</time>
      </trkpt>
      <trkpt lat="42.85684" lon="0.45159">
        <ele>2089.52</ele>
        <time>2025-06-09T07:46:04Z</time>
      </trkpt>
      <trkpt lat="42.85683" lon="0.4516">
        <ele>2090.17</ele>
        <time>2025-06-09T07:46:06Z</time>
      </trkpt>
      <trkpt lat="42.85682" lon="0.45163">
        <ele>2090.29</ele>
        <time>2025-06-09T07:46:08Z</time>
      </trkpt>
      <trkpt lat="42.85681" lon="0.45178">
        <ele>2091.88</ele>
        <time>2025-06-09T07:46:20Z</time>
      </trkpt>
      <trkpt lat="42.85681" lon="0.45179">
        <ele>2091.58</ele>
        <time>2025-06-09T07:46:21Z</time>
      </trkpt>
      <trkpt lat="42.85681" lon="0.45208">
        <ele>2094.3</ele>
        <time>2025-06-09T07:46:39Z</time>
      </trkpt>
      <trkpt lat="42.85681" lon="0.45215">
        <ele>2094.92</ele>
        <time>2025-06-09T07:46:45Z</time>
      </trkpt>
      <trkpt lat="42.8568" lon="0.45222">
        <ele>2095.82</ele>
        <time>2025-06-09T07:46:50Z</time>
      </trkpt>
      <trkpt lat="42.85677" lon="0.45244">
        <ele>2099.11</ele>
        <time>2025-06-09T07:47:05Z</time>
      </trkpt>
      <trkpt lat="42.85675" lon="0.45255">
        <ele>2100.17</ele>
        <time>2025-06-09T07:47:12Z</time>
      </trkpt>
      <trkpt lat="42.85673" lon="0.45262">
        <ele>2101.16</ele>
        <time>2025-06-09T07:47:17Z</time>
      </trkpt>
      <trkpt lat="42.85675" lon="0.45267">
        <ele>2102.09</ele>
        <time>2025-06-09T07:47:21Z</time>
      </trkpt>
      <trkpt lat="42.85677" lon="0.45279">
        <ele>2103.77</ele>
        <time>2025-06-09T07:47:35Z</time>
      </trkpt>
      <trkpt lat="42.85678" lon="0.45282">
        <ele>2103.84</ele>
        <time>2025-06-09T07:47:38Z</time>
      </trkpt>
      <trkpt lat="42.85679" lon="0.45284">
        <ele>2104.18</ele>
        <time>2025-06-09T07:47:40Z</time>
      </trkpt>
      <trkpt lat="42.8568" lon="0.45288">
        <ele>2104.48</ele>
        <time>2025-06-09T07:47:43Z</time>
      </trkpt>
      <trkpt lat="42.8568" lon="0.453">
        <ele>2107.38</ele>
        <time>2025-06-09T07:47:53Z</time>
      </trkpt>
      <trkpt lat="42.8568" lon="0.45308">
        <ele>2107.8</ele>
        <time>2025-06-09T07:47:59Z</time>
      </trkpt>
      <trkpt lat="42.85681" lon="0.45321">
        <ele>2109.12</ele>
        <time>2025-06-09T07:48:08Z</time>
      </trkpt>
      <trkpt lat="42.8568" lon="0.4534">
        <ele>2112.3</ele>
        <time>2025-06-09T07:48:21Z</time>
      </trkpt>
      <trkpt lat="42.85681" lon="0.45351">
        <ele>2114.49</ele>
        <time>2025-06-09T07:48:29Z</time>
      </trkpt>
      <trkpt lat="42.85683" lon="0.45371">
        <ele>2117.92</ele>
        <time>2025-06-09T07:48:43Z</time>
      </trkpt>
      <trkpt lat="42.85687" lon="0.45391">
        <ele>2121.01</ele>
        <time>2025-06-09T07:48:59Z</time>
      </trkpt>
      <trkpt lat="42.85687" lon="0.45404">
        <ele>2124.37</ele>
        <time>2025-06-09T07:49:11Z</time>
      </trkpt>
      <trkpt lat="42.85686" lon="0.45407">
        <ele>2125.39</ele>
        <time>2025-06-09T07:49:14Z</time>
      </trkpt>
      <trkpt lat="42.85684" lon="0.45409">
        <ele>2125.65</ele>
        <time>2025-06-09T07:49:16Z</time>
      </trkpt>
      <trkpt lat="42.85684" lon="0.45414">
        <ele>2126.42</ele>
        <time>2025-06-09T07:49:19Z</time>
      </trkpt>
      <trkpt lat="42.85682" lon="0.45422">
        <ele>2127.32</ele>
        <time>2025-06-09T07:49:26Z</time>
      </trkpt>
      <trkpt lat="42.85661" lon="0.4543">
        <ele>2128.34</ele>
        <time>2025-06-09T07:49:45Z</time>
      </trkpt>
      <trkpt lat="42.85659" lon="0.45432">
        <ele>2129.19</ele>
        <time>2025-06-09T07:49:55Z</time>
      </trkpt>
      <trkpt lat="42.85659" lon="0.45432">
        <ele>2132.26</ele>
        <time>2025-06-09T07:50:04Z</time>
      </trkpt>
      <trkpt lat="42.85658" lon="0.45432">
        <ele>2129.66</ele>
        <time>2025-06-09T07:50:37Z</time>
      </trkpt>
      <trkpt lat="42.85658" lon="0.45431">
        <ele>2129.79</ele>
        <time>2025-06-09T07:50:56Z</time>
      </trkpt>
      <trkpt lat="42.85653" lon="0.45427">
        <ele>2129.22</ele>
        <time>2025-06-09T07:51:01Z</time>
      </trkpt>
      <trkpt lat="42.85637" lon="0.45419">
        <ele>2127.18</ele>
        <time>2025-06-09T07:51:13Z</time>
      </trkpt>
      <trkpt lat="42.85627" lon="0.45418">
        <ele>2125.57</ele>
        <time>2025-06-09T07:51:20Z</time>
      </trkpt>
      <trkpt lat="42.85607" lon="0.45413">
        <ele>2123.51</ele>
        <time>2025-06-09T07:51:33Z</time>
      </trkpt>
      <trkpt lat="42.85579" lon="0.45422">
        <ele>2121.49</ele>
        <time>2025-06-09T07:51:52Z</time>
      </trkpt>
      <trkpt lat="42.85553" lon="0.45435">
        <ele>2121.2</ele>
        <time>2025-06-09T07:52:11Z</time>
      </trkpt>
      <trkpt lat="42.85549" lon="0.45439">
        <ele>2121.46</ele>
        <time>2025-06-09T07:52:26Z</time>
      </trkpt>
      <trkpt lat="42.85548" lon="0.4544">
        <ele>2121.85</ele>
        <time>2025-06-09T07:52:56Z</time>
      </trkpt>
      <trkpt lat="42.8553" lon="0.45457">
        <ele>2122.5</ele>
        <time>2025-06-09T07:53:11Z</time>
      </trkpt>
      <trkpt lat="42.85525" lon="0.45459">
        <ele>2122.54</ele>
        <time>2025-06-09T07:53:15Z</time>
      </trkpt>
      <trkpt lat="42.85503" lon="0.45471">
        <ele>2121.26</ele>
        <time>2025-06-09T07:53:30Z</time>
      </trkpt>
      <trkpt lat="42.85499" lon="0.45477">
        <ele>2120.91</ele>
        <time>2025-06-09T07:53:34Z</time>
      </trkpt>
      <trkpt lat="42.85493" lon="0.45482">
        <ele>2119.48</ele>
        <time>2025-06-09T07:53:38Z</time>
      </trkpt>
      <trkpt lat="42.85479" lon="0.45501">
        <ele>2117.11</ele>
        <time>2025-06-09T07:53:52Z</time>
      </trkpt>
      <trkpt lat="42.85477" lon="0.45504">
        <ele>2116.32</ele>
        <time>2025-06-09T07:53:54Z</time>
      </trkpt>
      <trkpt lat="42.85473" lon="0.45508">
        <ele>2114.84</ele>
        <time>2025-06-09T07:53:58Z</time>
      </trkpt>
      <trkpt lat="42.8547" lon="0.45511">
        <ele>2114.14</ele>
        <time>2025-06-09T07:54:01Z</time>
      </trkpt>
      <trkpt lat="42.85469" lon="0.45516">
        <ele>2112.58</ele>
        <time>2025-06-09T07:54:05Z</time>
      </trkpt>
      <trkpt lat="42.85467" lon="0.45518">
        <ele>2112</ele>
        <time>2025-06-09T07:54:07Z</time>
      </trkpt>
      <trkpt lat="42.85458" lon="0.4553">
        <ele>2107.76</ele>
        <time>2025-06-09T07:54:20Z</time>
      </trkpt>
      <trkpt lat="42.85457" lon="0.45532">
        <ele>2107.56</ele>
        <time>2025-06-09T07:54:22Z</time>
      </trkpt>
      <trkpt lat="42.8545" lon="0.45552">
        <ele>2106.8</ele>
        <time>2025-06-09T07:54:37Z</time>
      </trkpt>
      <trkpt lat="42.85449" lon="0.45556">
        <ele>2107.73</ele>
        <time>2025-06-09T07:54:53Z</time>
      </trkpt>
      <trkpt lat="42.85449" lon="0.45558">
        <ele>2107.11</ele>
        <time>2025-06-09T07:54:56Z</time>
      </trkpt>
      <trkpt lat="42.85447" lon="0.45562">
        <ele>2106.71</ele>
        <time>2025-06-09T07:54:59Z</time>
      </trkpt>
      <trkpt lat="42.85447" lon="0.45568">
        <ele>2103.81</ele>
        <time>2025-06-09T07:55:07Z</time>
      </trkpt>
      <trkpt lat="42.85442" lon="0.45581">
        <ele>2101.11</ele>
        <time>2025-06-09T07:55:20Z</time>
      </trkpt>
      <trkpt lat="42.85438" lon="0.45596">
        <ele>2098.76</ele>
        <time>2025-06-09T07:55:33Z</time>
      </trkpt>
      <trkpt lat="42.85437" lon="0.45614">
        <ele>2095.21</ele>
        <time>2025-06-09T07:55:48Z</time>
      </trkpt>
      <trkpt lat="42.85437" lon="0.45616">
        <ele>2094.73</ele>
        <time>2025-06-09T07:55:50Z</time>
      </trkpt>
      <trkpt lat="42.85428" lon="0.45638">
        <ele>2098.61</ele>
        <time>2025-06-09T07:56:05Z</time>
      </trkpt>
      <trkpt lat="42.85425" lon="0.45661">
        <ele>2096.29</ele>
        <time>2025-06-09T07:56:18Z</time>
      </trkpt>
      <trkpt lat="42.85424" lon="0.45681">
        <ele>2094.31</ele>
        <time>2025-06-09T07:56:28Z</time>
      </trkpt>
      <trkpt lat="42.85416" lon="0.45697">
        <ele>2092.14</ele>
        <time>2025-06-09T07:56:39Z</time>
      </trkpt>
      <trkpt lat="42.85415" lon="0.45701">
        <ele>2091.35</ele>
        <time>2025-06-09T07:56:41Z</time>
      </trkpt>
      <trkpt lat="42.85412" lon="0.45712">
        <ele>2089.53</ele>
        <time>2025-06-09T07:56:47Z</time>
      </trkpt>
      <trkpt lat="42.85409" lon="0.45734">
        <ele>2087.6</ele>
        <time>2025-06-09T07:57:04Z</time>
      </trkpt>
      <trkpt lat="42.85407" lon="0.45737">
        <ele>2087.33</ele>
        <time>2025-06-09T07:57:39Z</time>
      </trkpt>
      <trkpt lat="42.85406" lon="0.45739">
        <ele>2087.27</ele>
        <time>2025-06-09T07:57:41Z</time>
      </trkpt>
      <trkpt lat="42.85404" lon="0.45744">
        <ele>2085.7</ele>
        <time>2025-06-09T07:57:45Z</time>
      </trkpt>
      <trkpt lat="42.854" lon="0.4576">
        <ele>2082.05</ele>
        <time>2025-06-09T07:57:55Z</time>
      </trkpt>
      <trkpt lat="42.85401" lon="0.4577">
        <ele>2080.18</ele>
        <time>2025-06-09T07:58:01Z</time>
      </trkpt>
      <trkpt lat="42.85401" lon="0.45773">
        <ele>2079.07</ele>
        <time>2025-06-09T07:58:04Z</time>
      </trkpt>
      <trkpt lat="42.85404" lon="0.45791">
        <ele>2075.84</ele>
        <time>2025-06-09T07:58:16Z</time>
      </trkpt>
      <trkpt lat="42.85406" lon="0.45802">
        <ele>2072.87</ele>
        <time>2025-06-09T07:58:25Z</time>
      </trkpt>
      <trkpt lat="42.85393" lon="0.45797">
        <ele>2070.61</ele>
        <time>2025-06-09T07:58:34Z</time>
      </trkpt>
      <trkpt lat="42.85383" lon="0.45796">
        <ele>2067.78</ele>
        <time>2025-06-09T07:58:44Z</time>
      </trkpt>
      <trkpt lat="42.8538" lon="0.45794">
        <ele>2066.66</ele>
        <time>2025-06-09T07:58:47Z</time>
      </trkpt>
      <trkpt lat="42.85373" lon="0.45792">
        <ele>2063.82</ele>
        <time>2025-06-09T07:58:54Z</time>
      </trkpt>
      <trkpt lat="42.85367" lon="0.45788">
        <ele>2060.27</ele>
        <time>2025-06-09T07:59:01Z</time>
      </trkpt>
      <trkpt lat="42.85367" lon="0.45788">
        <ele>2060.17</ele>
        <time>2025-06-09T07:59:02Z</time>
      </trkpt>
      <trkpt lat="42.85366" lon="0.4579">
        <ele>2058.8</ele>
        <time>2025-06-09T07:59:05Z</time>
      </trkpt>
      <trkpt lat="42.85365" lon="0.45795">
        <ele>2057.13</ele>
        <time>2025-06-09T07:59:09Z</time>
      </trkpt>
      <trkpt lat="42.85363" lon="0.45803">
        <ele>2053.65</ele>
        <time>2025-06-09T07:59:19Z</time>
      </trkpt>
      <trkpt lat="42.85358" lon="0.45803">
        <ele>2050.61</ele>
        <time>2025-06-09T07:59:25Z</time>
      </trkpt>
      <trkpt lat="42.85359" lon="0.45803">
        <ele>2050.62</ele>
        <time>2025-06-09T07:59:26Z</time>
      </trkpt>
      <trkpt lat="42.85354" lon="0.45804">
        <ele>2047.59</ele>
        <time>2025-06-09T07:59:34Z</time>
      </trkpt>
      <trkpt lat="42.8535" lon="0.45805">
        <ele>2044.79</ele>
        <time>2025-06-09T07:59:40Z</time>
      </trkpt>
      <trkpt lat="42.85349" lon="0.45809">
        <ele>2043.69</ele>
        <time>2025-06-09T07:59:44Z</time>
      </trkpt>
      <trkpt lat="42.85348" lon="0.45813">
        <ele>2041.13</ele>
        <time>2025-06-09T07:59:50Z</time>
      </trkpt>
      <trkpt lat="42.85345" lon="0.45816">
        <ele>2038.9</ele>
        <time>2025-06-09T07:59:56Z</time>
      </trkpt>
      <trkpt lat="42.85344" lon="0.45821">
        <ele>2036.68</ele>
        <time>2025-06-09T08:00:02Z</time>
      </trkpt>
      <trkpt lat="42.85341" lon="0.45824">
        <ele>2032.93</ele>
        <time>2025-06-09T08:00:13Z</time>
      </trkpt>
      <trkpt lat="42.85339" lon="0.45826">
        <ele>2031.82</ele>
        <time>2025-06-09T08:00:16Z</time>
      </trkpt>
      <trkpt lat="42.85337" lon="0.45828">
        <ele>2031.09</ele>
        <time>2025-06-09T08:00:18Z</time>
      </trkpt>
      <trkpt lat="42.85335" lon="0.45831">
        <ele>2029.35</ele>
        <time>2025-06-09T08:00:21Z</time>
      </trkpt>
      <trkpt lat="42.85333" lon="0.45831">
        <ele>2029.41</ele>
        <time>2025-06-09T08:00:22Z</time>
      </trkpt>
      <trkpt lat="42.85327" lon="0.45836">
        <ele>2028.11</ele>
        <time>2025-06-09T08:00:27Z</time>
      </trkpt>
      <trkpt lat="42.85322" lon="0.45836">
        <ele>2026.97</ele>
        <time>2025-06-09T08:00:31Z</time>
      </trkpt>
      <trkpt lat="42.85318" lon="0.45839">
        <ele>2026.15</ele>
        <time>2025-06-09T08:00:47Z</time>
      </trkpt>
      <trkpt lat="42.85317" lon="0.4584">
        <ele>2026.09</ele>
        <time>2025-06-09T08:01:12Z</time>
      </trkpt>
      <trkpt lat="42.85316" lon="0.45839">
        <ele>2021.14</ele>
        <time>2025-06-09T08:01:40Z</time>
      </trkpt>
      <trkpt lat="42.85317" lon="0.45839">
        <ele>2028.77</ele>
        <time>2025-06-09T08:01:41Z</time>
      </trkpt>
      <trkpt lat="42.85316" lon="0.45839">
        <ele>2025.35</ele>
        <time>2025-06-09T08:01:42Z</time>
      </trkpt>
      <trkpt lat="42.85309" lon="0.45852">
        <ele>2028.04</ele>
        <time>2025-06-09T08:01:58Z</time>
      </trkpt>
      <trkpt lat="42.85299" lon="0.45858">
        <ele>2030.89</ele>
        <time>2025-06-09T08:02:17Z</time>
      </trkpt>
      <trkpt lat="42.85294" lon="0.45865">
        <ele>2033.33</ele>
        <time>2025-06-09T08:02:30Z</time>
      </trkpt>
      <trkpt lat="42.85288" lon="0.4587">
        <ele>2036.42</ele>
        <time>2025-06-09T08:02:42Z</time>
      </trkpt>
      <trkpt lat="42.85284" lon="0.45875">
        <ele>2039.47</ele>
        <time>2025-06-09T08:02:55Z</time>
      </trkpt>
      <trkpt lat="42.85279" lon="0.45877">
        <ele>2042.07</ele>
        <time>2025-06-09T08:03:06Z</time>
      </trkpt>
      <trkpt lat="42.85277" lon="0.45881">
        <ele>2043.15</ele>
        <time>2025-06-09T08:03:14Z</time>
      </trkpt>
      <trkpt lat="42.85276" lon="0.45882">
        <ele>2044.11</ele>
        <time>2025-06-09T08:03:15Z</time>
      </trkpt>
      <trkpt lat="42.8527" lon="0.45884">
        <ele>2046.73</ele>
        <time>2025-06-09T08:03:27Z</time>
      </trkpt>
      <trkpt lat="42.85265" lon="0.45888">
        <ele>2049.95</ele>
        <time>2025-06-09T08:03:41Z</time>
      </trkpt>
      <trkpt lat="42.8526" lon="0.45891">
        <ele>2053.07</ele>
        <time>2025-06-09T08:03:53Z</time>
      </trkpt>
      <trkpt lat="42.85258" lon="0.45895">
        <ele>2058.67</ele>
        <time>2025-06-09T08:04:05Z</time>
      </trkpt>
      <trkpt lat="42.85258" lon="0.45896">
        <ele>2055.55</ele>
        <time>2025-06-09T08:04:06Z</time>
      </trkpt>
      <trkpt lat="42.85261" lon="0.459">
        <ele>2058.71</ele>
        <time>2025-06-09T08:04:20Z</time>
      </trkpt>
      <trkpt lat="42.85257" lon="0.45905">
        <ele>2061.92</ele>
        <time>2025-06-09T08:04:35Z</time>
      </trkpt>
      <trkpt lat="42.85254" lon="0.45911">
        <ele>2065.28</ele>
        <time>2025-06-09T08:04:49Z</time>
      </trkpt>
      <trkpt lat="42.85252" lon="0.45916">
        <ele>2068.33</ele>
        <time>2025-06-09T08:05:03Z</time>
      </trkpt>
      <trkpt lat="42.85246" lon="0.45923">
        <ele>2071.44</ele>
        <time>2025-06-09T08:05:18Z</time>
      </trkpt>
      <trkpt lat="42.85244" lon="0.45929">
        <ele>2074.64</ele>
        <time>2025-06-09T08:05:31Z</time>
      </trkpt>
      <trkpt lat="42.85237" lon="0.45933">
        <ele>2077.94</ele>
        <time>2025-06-09T08:05:44Z</time>
      </trkpt>
      <trkpt lat="42.85232" lon="0.45941">
        <ele>2081.06</ele>
        <time>2025-06-09T08:05:58Z</time>
      </trkpt>
      <trkpt lat="42.85229" lon="0.45944">
        <ele>2081.72</ele>
        <time>2025-06-09T08:06:02Z</time>
      </trkpt>
      <trkpt lat="42.85228" lon="0.45946">
        <ele>2081.86</ele>
        <time>2025-06-09T08:06:04Z</time>
      </trkpt>
      <trkpt lat="42.85223" lon="0.45964">
        <ele>2084.5</ele>
        <time>2025-06-09T08:06:19Z</time>
      </trkpt>
      <trkpt lat="42.8522" lon="0.45974">
        <ele>2086.91</ele>
        <time>2025-06-09T08:06:30Z</time>
      </trkpt>
      <trkpt lat="42.85216" lon="0.45985">
        <ele>2090.11</ele>
        <time>2025-06-09T08:06:44Z</time>
      </trkpt>
      <trkpt lat="42.85214" lon="0.4599">
        <ele>2091.85</ele>
        <time>2025-06-09T08:06:49Z</time>
      </trkpt>
      <trkpt lat="42.8521" lon="0.45998">
        <ele>2093.67</ele>
        <time>2025-06-09T08:06:58Z</time>
      </trkpt>
      <trkpt lat="42.85204" lon="0.46015">
        <ele>2096.65</ele>
        <time>2025-06-09T08:07:11Z</time>
      </trkpt>
      <trkpt lat="42.85202" lon="0.46019">
        <ele>2097.58</ele>
        <time>2025-06-09T08:07:14Z</time>
      </trkpt>
      <trkpt lat="42.85198" lon="0.46023">
        <ele>2097.5</ele>
        <time>2025-06-09T08:07:30Z</time>
      </trkpt>
      <trkpt lat="42.85197" lon="0.46025">
        <ele>2097.57</ele>
        <time>2025-06-09T08:07:52Z</time>
      </trkpt>
      <trkpt lat="42.85197" lon="0.46026">
        <ele>2096.8</ele>
        <time>2025-06-09T08:08:07Z</time>
      </trkpt>
      <trkpt lat="42.85198" lon="0.46028">
        <ele>2097.42</ele>
        <time>2025-06-09T08:08:40Z</time>
      </trkpt>
      <trkpt lat="42.85197" lon="0.46029">
        <ele>2097.2</ele>
        <time>2025-06-09T08:09:14Z</time>
      </trkpt>
      <trkpt lat="42.85197" lon="0.46029">
        <ele>2096.86</ele>
        <time>2025-06-09T08:09:55Z</time>
      </trkpt>
      <trkpt lat="42.85196" lon="0.46029">
        <ele>2097.24</ele>
        <time>2025-06-09T08:10:40Z</time>
      </trkpt>
      <trkpt lat="42.85196" lon="0.46029">
        <ele>2097.27</ele>
        <time>2025-06-09T08:11:22Z</time>
      </trkpt>
      <trkpt lat="42.85198" lon="0.46028">
        <ele>2098.1</ele>
        <time>2025-06-09T08:11:59Z</time>
      </trkpt>
      <trkpt lat="42.85199" lon="0.46028">
        <ele>2097.59</ele>
        <time>2025-06-09T08:12:41Z</time>
      </trkpt>
      <trkpt lat="42.85199" lon="0.46028">
        <ele>2097.95</ele>
        <time>2025-06-09T08:13:20Z</time>
      </trkpt>
      <trkpt lat="42.85199" lon="0.46028">
        <ele>2098.24</ele>
        <time>2025-06-09T08:14:05Z</time>
      </trkpt>
      <trkpt lat="42.85199" lon="0.46028">
        <ele>2098.96</ele>
        <time>2025-06-09T08:14:49Z</time>
      </trkpt>
      <trkpt lat="42.85199" lon="0.46028">
        <ele>2099.21</ele>
        <time>2025-06-09T08:15:30Z</time>
      </trkpt>
      <trkpt lat="42.85199" lon="0.46028">
        <ele>2098.64</ele>
        <time>2025-06-09T08:16:25Z</time>
      </trkpt>
      <trkpt lat="42.85198" lon="0.46027">
        <ele>2099.57</ele>
        <time>2025-06-09T08:17:15Z</time>
      </trkpt>
      <trkpt lat="42.85198" lon="0.46027">
        <ele>2100.49</ele>
        <time>2025-06-09T08:17:35Z</time>
      </trkpt>
      <trkpt lat="42.85198" lon="0.46027">
        <ele>2096.85</ele>
        <time>2025-06-09T08:17:49Z</time>
      </trkpt>
      <trkpt lat="42.85198" lon="0.46027">
        <ele>2103.01</ele>
        <time>2025-06-09T08:17:50Z</time>
      </trkpt>
      <trkpt lat="42.85198" lon="0.46027">
        <ele>2093.87</ele>
        <time>2025-06-09T08:17:52Z</time>
      </trkpt>
      <trkpt lat="42.85198" lon="0.46027">
        <ele>2105.05</ele>
        <time>2025-06-09T08:17:53Z</time>
      </trkpt>
      <trkpt lat="42.85197" lon="0.46027">
        <ele>2099.21</ele>
        <time>2025-06-09T08:17:54Z</time>
      </trkpt>
      <trkpt lat="42.85198" lon="0.46027">
        <ele>2102.41</ele>
        <time>2025-06-09T08:17:55Z</time>
      </trkpt>
      <trkpt lat="42.85198" lon="0.46027">
        <ele>2099.83</ele>
        <time>2025-06-09T08:18:18Z</time>
      </trkpt>
      <trkpt lat="42.852" lon="0.46025">
        <ele>2100.13</ele>
        <time>2025-06-09T08:18:28Z</time>
      </trkpt>
      <trkpt lat="42.85207" lon="0.46004">
        <ele>2096.51</ele>
        <time>2025-06-09T08:18:42Z</time>
      </trkpt>
      <trkpt lat="42.8521" lon="0.45996">
        <ele>2094.76</ele>
        <time>2025-06-09T08:18:47Z</time>
      </trkpt>
      <trkpt lat="42.85215" lon="0.45987">
        <ele>2092.52</ele>
        <time>2025-06-09T08:18:54Z</time>
      </trkpt>
      <trkpt lat="42.85217" lon="0.45981">
        <ele>2091.48</ele>
        <time>2025-06-09T08:18:59Z</time>
      </trkpt>
      <trkpt lat="42.85218" lon="0.45976">
        <ele>2089.94</ele>
        <time>2025-06-09T08:19:03Z</time>
      </trkpt>
      <trkpt lat="42.85221" lon="0.45966">
        <ele>2087.42</ele>
        <time>2025-06-09T08:19:11Z</time>
      </trkpt>
      <trkpt lat="42.85223" lon="0.45957">
        <ele>2085.65</ele>
        <time>2025-06-09T08:19:16Z</time>
      </trkpt>
      <trkpt lat="42.85226" lon="0.45952">
        <ele>2085.22</ele>
        <time>2025-06-09T08:19:19Z</time>
      </trkpt>
      <trkpt lat="42.8523" lon="0.45944">
        <ele>2084.33</ele>
        <time>2025-06-09T08:19:25Z</time>
      </trkpt>
      <trkpt lat="42.85234" lon="0.45943">
        <ele>2083.22</ele>
        <time>2025-06-09T08:19:29Z</time>
      </trkpt>
      <trkpt lat="42.85235" lon="0.45939">
        <ele>2081.9</ele>
        <time>2025-06-09T08:19:32Z</time>
      </trkpt>
      <trkpt lat="42.85235" lon="0.45937">
        <ele>2081.24</ele>
        <time>2025-06-09T08:19:34Z</time>
      </trkpt>
      <trkpt lat="42.85237" lon="0.45934">
        <ele>2079.76</ele>
        <time>2025-06-09T08:19:37Z</time>
      </trkpt>
      <trkpt lat="42.85243" lon="0.45929">
        <ele>2076.63</ele>
        <time>2025-06-09T08:19:46Z</time>
      </trkpt>
      <trkpt lat="42.85244" lon="0.45928">
        <ele>2075.94</ele>
        <time>2025-06-09T08:19:48Z</time>
      </trkpt>
      <trkpt lat="42.85245" lon="0.45926">
        <ele>2075.09</ele>
        <time>2025-06-09T08:19:51Z</time>
      </trkpt>
      <trkpt lat="42.85247" lon="0.45921">
        <ele>2073.47</ele>
        <time>2025-06-09T08:19:56Z</time>
      </trkpt>
      <trkpt lat="42.85249" lon="0.4592">
        <ele>2072.43</ele>
        <time>2025-06-09T08:20:14Z</time>
      </trkpt>
      <trkpt lat="42.85253" lon="0.45916">
        <ele>2070.78</ele>
        <time>2025-06-09T08:20:38Z</time>
      </trkpt>
      <trkpt lat="42.85257" lon="0.45913">
        <ele>2067.33</ele>
        <time>2025-06-09T08:20:47Z</time>
      </trkpt>
      <trkpt lat="42.85256" lon="0.45905">
        <ele>2064.66</ele>
        <time>2025-06-09T08:20:57Z</time>
      </trkpt>
      <trkpt lat="42.85258" lon="0.45902">
        <ele>2063.54</ele>
        <time>2025-06-09T08:21:01Z</time>
      </trkpt>
      <trkpt lat="42.85255" lon="0.45897">
        <ele>2061.42</ele>
        <time>2025-06-09T08:21:10Z</time>
      </trkpt>
      <trkpt lat="42.85253" lon="0.45895">
        <ele>2059.66</ele>
        <time>2025-06-09T08:21:13Z</time>
      </trkpt>
      <trkpt lat="42.85254" lon="0.45893">
        <ele>2058.01</ele>
        <time>2025-06-09T08:21:20Z</time>
      </trkpt>
      <trkpt lat="42.85256" lon="0.45891">
        <ele>2056.72</ele>
        <time>2025-06-09T08:21:24Z</time>
      </trkpt>
      <trkpt lat="42.8526" lon="0.45887">
        <ele>2053.55</ele>
        <time>2025-06-09T08:21:36Z</time>
      </trkpt>
      <trkpt lat="42.85262" lon="0.45885">
        <ele>2052.19</ele>
        <time>2025-06-09T08:21:39Z</time>
      </trkpt>
      <trkpt lat="42.85267" lon="0.4588">
        <ele>2049.78</ele>
        <time>2025-06-09T08:21:49Z</time>
      </trkpt>
      <trkpt lat="42.85272" lon="0.45879">
        <ele>2047.04</ele>
        <time>2025-06-09T08:21:54Z</time>
      </trkpt>
      <trkpt lat="42.85275" lon="0.45877">
        <ele>2045.95</ele>
        <time>2025-06-09T08:21:59Z</time>
      </trkpt>
      <trkpt lat="42.85284" lon="0.45874">
        <ele>2041.91</ele>
        <time>2025-06-09T08:22:12Z</time>
      </trkpt>
      <trkpt lat="42.85285" lon="0.45871">
        <ele>2039.95</ele>
        <time>2025-06-09T08:22:16Z</time>
      </trkpt>
      <trkpt lat="42.85287" lon="0.45868">
        <ele>2038.84</ele>
        <time>2025-06-09T08:22:20Z</time>
      </trkpt>
      <trkpt lat="42.8529" lon="0.45868">
        <ele>2037.51</ele>
        <time>2025-06-09T08:22:23Z</time>
      </trkpt>
      <trkpt lat="42.85296" lon="0.45865">
        <ele>2035.16</ele>
        <time>2025-06-09T08:22:29Z</time>
      </trkpt>
      <trkpt lat="42.85299" lon="0.45861">
        <ele>2033.29</ele>
        <time>2025-06-09T08:22:33Z</time>
      </trkpt>
      <trkpt lat="42.85309" lon="0.4585">
        <ele>2033.17</ele>
        <time>2025-06-09T08:22:45Z</time>
      </trkpt>
      <trkpt lat="42.85312" lon="0.45848">
        <ele>2029.91</ele>
        <time>2025-06-09T08:22:51Z</time>
      </trkpt>
      <trkpt lat="42.85313" lon="0.45848">
        <ele>2029.64</ele>
        <time>2025-06-09T08:22:52Z</time>
      </trkpt>
      <trkpt lat="42.85315" lon="0.4585">
        <ele>2028.67</ele>
        <time>2025-06-09T08:22:54Z</time>
      </trkpt>
      <trkpt lat="42.85315" lon="0.45852">
        <ele>2028.84</ele>
        <time>2025-06-09T08:22:55Z</time>
      </trkpt>
      <trkpt lat="42.85321" lon="0.45857">
        <ele>2027.97</ele>
        <time>2025-06-09T08:22:59Z</time>
      </trkpt>
      <trkpt lat="42.85333" lon="0.45871">
        <ele>2024.24</ele>
        <time>2025-06-09T08:23:09Z</time>
      </trkpt>
      <trkpt lat="42.85337" lon="0.45878">
        <ele>2022.99</ele>
        <time>2025-06-09T08:23:13Z</time>
      </trkpt>
      <trkpt lat="42.85341" lon="0.45895">
        <ele>2021.73</ele>
        <time>2025-06-09T08:23:22Z</time>
      </trkpt>
      <trkpt lat="42.85344" lon="0.45903">
        <ele>2020.06</ele>
        <time>2025-06-09T08:23:29Z</time>
      </trkpt>
      <trkpt lat="42.85349" lon="0.45911">
        <ele>2017.69</ele>
        <time>2025-06-09T08:23:35Z</time>
      </trkpt>
      <trkpt lat="42.85357" lon="0.4592">
        <ele>2013.33</ele>
        <time>2025-06-09T08:23:43Z</time>
      </trkpt>
      <trkpt lat="42.85359" lon="0.45927">
        <ele>2011.83</ele>
        <time>2025-06-09T08:23:47Z</time>
      </trkpt>
      <trkpt lat="42.85368" lon="0.45936">
        <ele>2008.68</ele>
        <time>2025-06-09T08:23:56Z</time>
      </trkpt>
      <trkpt lat="42.85375" lon="0.45947">
        <ele>2005.25</ele>
        <time>2025-06-09T08:24:06Z</time>
      </trkpt>
      <trkpt lat="42.8538" lon="0.45949">
        <ele>2003.81</ele>
        <time>2025-06-09T08:24:10Z</time>
      </trkpt>
      <trkpt lat="42.85382" lon="0.45951">
        <ele>2003.47</ele>
        <time>2025-06-09T08:24:12Z</time>
      </trkpt>
      <trkpt lat="42.85382" lon="0.45956">
        <ele>2002.23</ele>
        <time>2025-06-09T08:24:16Z</time>
      </trkpt>
      <trkpt lat="42.85385" lon="0.4596">
        <ele>2000.36</ele>
        <time>2025-06-09T08:24:20Z</time>
      </trkpt>
      <trkpt lat="42.85391" lon="0.45968">
        <ele>1998.09</ele>
        <time>2025-06-09T08:24:28Z</time>
      </trkpt>
      <trkpt lat="42.85394" lon="0.45971">
        <ele>1996.76</ele>
        <time>2025-06-09T08:24:31Z</time>
      </trkpt>
      <trkpt lat="42.854" lon="0.45984">
        <ele>1993.45</ele>
        <time>2025-06-09T08:24:40Z</time>
      </trkpt>
      <trkpt lat="42.85403" lon="0.45985">
        <ele>1993.4</ele>
        <time>2025-06-09T08:24:42Z</time>
      </trkpt>
      <trkpt lat="42.85405" lon="0.45987">
        <ele>1991.92</ele>
        <time>2025-06-09T08:24:45Z</time>
      </trkpt>
      <trkpt lat="42.85406" lon="0.45988">
        <ele>1991.39</ele>
        <time>2025-06-09T08:24:46Z</time>
      </trkpt>
      <trkpt lat="42.85414" lon="0.45998">
        <ele>1988.06</ele>
        <time>2025-06-09T08:24:56Z</time>
      </trkpt>
      <trkpt lat="42.85418" lon="0.46002">
        <ele>1985.74</ele>
        <time>2025-06-09T08:25:01Z</time>
      </trkpt>
      <trkpt lat="42.85424" lon="0.4601">
        <ele>1982.63</ele>
        <time>2025-06-09T08:25:08Z</time>
      </trkpt>
      <trkpt lat="42.85432" lon="0.46019">
        <ele>1979.33</ele>
        <time>2025-06-09T08:25:17Z</time>
      </trkpt>
      <trkpt lat="42.85438" lon="0.46027">
        <ele>1977.73</ele>
        <time>2025-06-09T08:25:25Z</time>
      </trkpt>
      <trkpt lat="42.85444" lon="0.46041">
        <ele>1973.78</ele>
        <time>2025-06-09T08:25:35Z</time>
      </trkpt>
      <trkpt lat="42.85445" lon="0.46043">
        <ele>1973.82</ele>
        <time>2025-06-09T08:25:36Z</time>
      </trkpt>
      <trkpt lat="42.85451" lon="0.46052">
        <ele>1970.64</ele>
        <time>2025-06-09T08:25:43Z</time>
      </trkpt>
      <trkpt lat="42.85461" lon="0.46063">
        <ele>1968.15</ele>
        <time>2025-06-09T08:25:52Z</time>
      </trkpt>
      <trkpt lat="42.85462" lon="0.46064">
        <ele>1968.12</ele>
        <time>2025-06-09T08:25:53Z</time>
      </trkpt>
      <trkpt lat="42.85476" lon="0.46076">
        <ele>1964.9</ele>
        <time>2025-06-09T08:26:04Z</time>
      </trkpt>
      <trkpt lat="42.85481" lon="0.46081">
        <ele>1965.06</ele>
        <time>2025-06-09T08:26:08Z</time>
      </trkpt>
      <trkpt lat="42.85482" lon="0.46085">
        <ele>1964.99</ele>
        <time>2025-06-09T08:26:22Z</time>
      </trkpt>
      <trkpt lat="42.85481" lon="0.46083">
        <ele>1965.04</ele>
        <time>2025-06-09T08:26:51Z</time>
      </trkpt>
      <trkpt lat="42.85484" lon="0.46086">
        <ele>1963.68</ele>
        <time>2025-06-09T08:26:59Z</time>
      </trkpt>
      <trkpt lat="42.85486" lon="0.46089">
        <ele>1962.47</ele>
        <time>2025-06-09T08:27:03Z</time>
      </trkpt>
      <trkpt lat="42.85487" lon="0.46091">
        <ele>1962.46</ele>
        <time>2025-06-09T08:27:04Z</time>
      </trkpt>
      <trkpt lat="42.85492" lon="0.46097">
        <ele>1961.17</ele>
        <time>2025-06-09T08:27:10Z</time>
      </trkpt>
      <trkpt lat="42.85502" lon="0.46106">
        <ele>1958.81</ele>
        <time>2025-06-09T08:27:19Z</time>
      </trkpt>
      <trkpt lat="42.85505" lon="0.46108">
        <ele>1957.57</ele>
        <time>2025-06-09T08:27:22Z</time>
      </trkpt>
      <trkpt lat="42.85509" lon="0.46116">
        <ele>1956.55</ele>
        <time>2025-06-09T08:27:27Z</time>
      </trkpt>
      <trkpt lat="42.8551" lon="0.46118">
        <ele>1956.3</ele>
        <time>2025-06-09T08:27:29Z</time>
      </trkpt>
      <trkpt lat="42.85514" lon="0.46124">
        <ele>1954.06</ele>
        <time>2025-06-09T08:27:36Z</time>
      </trkpt>
      <trkpt lat="42.85519" lon="0.46121">
        <ele>1951.81</ele>
        <time>2025-06-09T08:27:42Z</time>
      </trkpt>
      <trkpt lat="42.85522" lon="0.46124">
        <ele>1950.69</ele>
        <time>2025-06-09T08:27:45Z</time>
      </trkpt>
      <trkpt lat="42.85526" lon="0.46127">
        <ele>1948.92</ele>
        <time>2025-06-09T08:27:51Z</time>
      </trkpt>
      <trkpt lat="42.85529" lon="0.46127">
        <ele>1947.84</ele>
        <time>2025-06-09T08:27:53Z</time>
      </trkpt>
      <trkpt lat="42.8553" lon="0.46127">
        <ele>1948.27</ele>
        <time>2025-06-09T08:27:54Z</time>
      </trkpt>
      <trkpt lat="42.85533" lon="0.46136">
        <ele>1946.64</ele>
        <time>2025-06-09T08:28:06Z</time>
      </trkpt>
      <trkpt lat="42.85538" lon="0.46144">
        <ele>1943.19</ele>
        <time>2025-06-09T08:28:14Z</time>
      </trkpt>
      <trkpt lat="42.85543" lon="0.4615">
        <ele>1942.71</ele>
        <time>2025-06-09T08:28:28Z</time>
      </trkpt>
      <trkpt lat="42.85543" lon="0.46152">
        <ele>1942.04</ele>
        <time>2025-06-09T08:29:13Z</time>
      </trkpt>
      <trkpt lat="42.85546" lon="0.46158">
        <ele>1941.42</ele>
        <time>2025-06-09T08:29:17Z</time>
      </trkpt>
      <trkpt lat="42.8555" lon="0.46162">
        <ele>1939.7</ele>
        <time>2025-06-09T08:29:21Z</time>
      </trkpt>
      <trkpt lat="42.85556" lon="0.46169">
        <ele>1937.78</ele>
        <time>2025-06-09T08:29:28Z</time>
      </trkpt>
      <trkpt lat="42.85557" lon="0.46171">
        <ele>1937.32</ele>
        <time>2025-06-09T08:29:30Z</time>
      </trkpt>
      <trkpt lat="42.85558" lon="0.46173">
        <ele>1936.71</ele>
        <time>2025-06-09T08:29:32Z</time>
      </trkpt>
      <trkpt lat="42.85565" lon="0.46182">
        <ele>1934.5</ele>
        <time>2025-06-09T08:29:39Z</time>
      </trkpt>
      <trkpt lat="42.85569" lon="0.46189">
        <ele>1933.41</ele>
        <time>2025-06-09T08:29:45Z</time>
      </trkpt>
      <trkpt lat="42.85574" lon="0.46196">
        <ele>1931.45</ele>
        <time>2025-06-09T08:29:51Z</time>
      </trkpt>
      <trkpt lat="42.85577" lon="0.46199">
        <ele>1930.15</ele>
        <time>2025-06-09T08:29:54Z</time>
      </trkpt>
      <trkpt lat="42.8558" lon="0.46202">
        <ele>1929.14</ele>
        <time>2025-06-09T08:29:57Z</time>
      </trkpt>
      <trkpt lat="42.85589" lon="0.4621">
        <ele>1926.91</ele>
        <time>2025-06-09T08:30:07Z</time>
      </trkpt>
      <trkpt lat="42.85588" lon="0.46204">
        <ele>1926.34</ele>
        <time>2025-06-09T08:30:11Z</time>
      </trkpt>
      <trkpt lat="42.85589" lon="0.46199">
        <ele>1924.61</ele>
        <time>2025-06-09T08:30:15Z</time>
      </trkpt>
      <trkpt lat="42.85594" lon="0.46201">
        <ele>1923.28</ele>
        <time>2025-06-09T08:30:20Z</time>
      </trkpt>
      <trkpt lat="42.85594" lon="0.4619">
        <ele>1920.41</ele>
        <time>2025-06-09T08:30:27Z</time>
      </trkpt>
      <trkpt lat="42.85594" lon="0.46187">
        <ele>1920.01</ele>
        <time>2025-06-09T08:30:29Z</time>
      </trkpt>
      <trkpt lat="42.8559" lon="0.46177">
        <ele>1917.5</ele>
        <time>2025-06-09T08:30:36Z</time>
      </trkpt>
      <trkpt lat="42.85593" lon="0.46164">
        <ele>1916.09</ele>
        <time>2025-06-09T08:30:43Z</time>
      </trkpt>
      <trkpt lat="42.85597" lon="0.46164">
        <ele>1914.77</ele>
        <time>2025-06-09T08:30:47Z</time>
      </trkpt>
      <trkpt lat="42.85604" lon="0.46173">
        <ele>1912.33</ele>
        <time>2025-06-09T08:30:56Z</time>
      </trkpt>
      <trkpt lat="42.85609" lon="0.46178">
        <ele>1910.79</ele>
        <time>2025-06-09T08:31:02Z</time>
      </trkpt>
      <trkpt lat="42.85616" lon="0.46182">
        <ele>1908.01</ele>
        <time>2025-06-09T08:31:11Z</time>
      </trkpt>
      <trkpt lat="42.85623" lon="0.46187">
        <ele>1906.1</ele>
        <time>2025-06-09T08:31:18Z</time>
      </trkpt>
      <trkpt lat="42.85627" lon="0.46193">
        <ele>1904.59</ele>
        <time>2025-06-09T08:31:23Z</time>
      </trkpt>
      <trkpt lat="42.8563" lon="0.46196">
        <ele>1903.43</ele>
        <time>2025-06-09T08:31:30Z</time>
      </trkpt>
      <trkpt lat="42.85636" lon="0.462">
        <ele>1901.8</ele>
        <time>2025-06-09T08:31:35Z</time>
      </trkpt>
      <trkpt lat="42.85642" lon="0.46206">
        <ele>1899.93</ele>
        <time>2025-06-09T08:31:40Z</time>
      </trkpt>
      <trkpt lat="42.85647" lon="0.46209">
        <ele>1898.65</ele>
        <time>2025-06-09T08:31:44Z</time>
      </trkpt>
      <trkpt lat="42.8565" lon="0.46208">
        <ele>1897.73</ele>
        <time>2025-06-09T08:31:46Z</time>
      </trkpt>
      <trkpt lat="42.85653" lon="0.46208">
        <ele>1896.87</ele>
        <time>2025-06-09T08:31:48Z</time>
      </trkpt>
      <trkpt lat="42.85656" lon="0.46208">
        <ele>1895.97</ele>
        <time>2025-06-09T08:31:51Z</time>
      </trkpt>
      <trkpt lat="42.85661" lon="0.46211">
        <ele>1894.1</ele>
        <time>2025-06-09T08:31:56Z</time>
      </trkpt>
      <trkpt lat="42.85663" lon="0.46212">
        <ele>1893.48</ele>
        <time>2025-06-09T08:31:58Z</time>
      </trkpt>
      <trkpt lat="42.85671" lon="0.46214">
        <ele>1889.79</ele>
        <time>2025-06-09T08:32:05Z</time>
      </trkpt>
      <trkpt lat="42.8568" lon="0.46215">
        <ele>1886.75</ele>
        <time>2025-06-09T08:32:12Z</time>
      </trkpt>
      <trkpt lat="42.85689" lon="0.46217">
        <ele>1884.53</ele>
        <time>2025-06-09T08:32:24Z</time>
      </trkpt>
      <trkpt lat="42.85689" lon="0.46218">
        <ele>1884.37</ele>
        <time>2025-06-09T08:32:26Z</time>
      </trkpt>
      <trkpt lat="42.85692" lon="0.4622">
        <ele>1883.55</ele>
        <time>2025-06-09T08:32:29Z</time>
      </trkpt>
      <trkpt lat="42.85707" lon="0.46219">
        <ele>1880.71</ele>
        <time>2025-06-09T08:32:40Z</time>
      </trkpt>
      <trkpt lat="42.8572" lon="0.46225">
        <ele>1877.9</ele>
        <time>2025-06-09T08:32:52Z</time>
      </trkpt>
      <trkpt lat="42.85725" lon="0.4623">
        <ele>1875.9</ele>
        <time>2025-06-09T08:32:59Z</time>
      </trkpt>
      <trkpt lat="42.85735" lon="0.46236">
        <ele>1873.35</ele>
        <time>2025-06-09T08:33:08Z</time>
      </trkpt>
      <trkpt lat="42.85743" lon="0.46234">
        <ele>1870.81</ele>
        <time>2025-06-09T08:33:14Z</time>
      </trkpt>
      <trkpt lat="42.85744" lon="0.46234">
        <ele>1870.23</ele>
        <time>2025-06-09T08:33:15Z</time>
      </trkpt>
      <trkpt lat="42.85754" lon="0.46237">
        <ele>1868.7</ele>
        <time>2025-06-09T08:33:22Z</time>
      </trkpt>
      <trkpt lat="42.85762" lon="0.46247">
        <ele>1865</ele>
        <time>2025-06-09T08:33:32Z</time>
      </trkpt>
      <trkpt lat="42.85763" lon="0.46253">
        <ele>1863.14</ele>
        <time>2025-06-09T08:33:36Z</time>
      </trkpt>
      <trkpt lat="42.8577" lon="0.46263">
        <ele>1860.03</ele>
        <time>2025-06-09T08:33:45Z</time>
      </trkpt>
      <trkpt lat="42.85783" lon="0.46275">
        <ele>1857.4</ele>
        <time>2025-06-09T08:33:56Z</time>
      </trkpt>
      <trkpt lat="42.85788" lon="0.46279">
        <ele>1856.08</ele>
        <time>2025-06-09T08:34:01Z</time>
      </trkpt>
      <trkpt lat="42.85792" lon="0.4628">
        <ele>1854.47</ele>
        <time>2025-06-09T08:34:04Z</time>
      </trkpt>
      <trkpt lat="42.85797" lon="0.46282">
        <ele>1853.17</ele>
        <time>2025-06-09T08:34:07Z</time>
      </trkpt>
      <trkpt lat="42.858" lon="0.46283">
        <ele>1852.21</ele>
        <time>2025-06-09T08:34:09Z</time>
      </trkpt>
      <trkpt lat="42.85805" lon="0.46285">
        <ele>1850.93</ele>
        <time>2025-06-09T08:34:13Z</time>
      </trkpt>
      <trkpt lat="42.85815" lon="0.46287">
        <ele>1847.58</ele>
        <time>2025-06-09T08:34:20Z</time>
      </trkpt>
      <trkpt lat="42.85828" lon="0.4629">
        <ele>1844.25</ele>
        <time>2025-06-09T08:34:30Z</time>
      </trkpt>
      <trkpt lat="42.85829" lon="0.46291">
        <ele>1844.08</ele>
        <time>2025-06-09T08:34:31Z</time>
      </trkpt>
      <trkpt lat="42.85837" lon="0.46292">
        <ele>1841.95</ele>
        <time>2025-06-09T08:34:41Z</time>
      </trkpt>
      <trkpt lat="42.85842" lon="0.4629">
        <ele>1840.36</ele>
        <time>2025-06-09T08:34:45Z</time>
      </trkpt>
      <trkpt lat="42.85849" lon="0.46289">
        <ele>1838.38</ele>
        <time>2025-06-09T08:34:50Z</time>
      </trkpt>
      <trkpt lat="42.85856" lon="0.46288">
        <ele>1836.5</ele>
        <time>2025-06-09T08:34:55Z</time>
      </trkpt>
      <trkpt lat="42.8587" lon="0.46286">
        <ele>1832.98</ele>
        <time>2025-06-09T08:35:04Z</time>
      </trkpt>
      <trkpt lat="42.85875" lon="0.46285">
        <ele>1831.5</ele>
        <time>2025-06-09T08:35:07Z</time>
      </trkpt>
      <trkpt lat="42.8589" lon="0.46282">
        <ele>1828.32</ele>
        <time>2025-06-09T08:35:17Z</time>
      </trkpt>
      <trkpt lat="42.85905" lon="0.46277">
        <ele>1825.26</ele>
        <time>2025-06-09T08:35:27Z</time>
      </trkpt>
      <trkpt lat="42.85919" lon="0.46274">
        <ele>1821.99</ele>
        <time>2025-06-09T08:35:37Z</time>
      </trkpt>
      <trkpt lat="42.85932" lon="0.46269">
        <ele>1819.73</ele>
        <time>2025-06-09T08:35:46Z</time>
      </trkpt>
      <trkpt lat="42.85937" lon="0.46267">
        <ele>1819.3</ele>
        <time>2025-06-09T08:36:00Z</time>
      </trkpt>
      <trkpt lat="42.85937" lon="0.46267">
        <ele>1819.05</ele>
        <time>2025-06-09T08:36:05Z</time>
      </trkpt>
      <trkpt lat="42.85941" lon="0.46265">
        <ele>1818.15</ele>
        <time>2025-06-09T08:36:08Z</time>
      </trkpt>
      <trkpt lat="42.85961" lon="0.46262">
        <ele>1814.87</ele>
        <time>2025-06-09T08:36:23Z</time>
      </trkpt>
      <trkpt lat="42.85964" lon="0.46263">
        <ele>1814.3</ele>
        <time>2025-06-09T08:36:25Z</time>
      </trkpt>
      <trkpt lat="42.8597" lon="0.46263">
        <ele>1812.46</ele>
        <time>2025-06-09T08:36:30Z</time>
      </trkpt>
      <trkpt lat="42.85971" lon="0.46263">
        <ele>1812.81</ele>
        <time>2025-06-09T08:36:31Z</time>
      </trkpt>
      <trkpt lat="42.85973" lon="0.46264">
        <ele>1811.17</ele>
        <time>2025-06-09T08:36:33Z</time>
      </trkpt>
      <trkpt lat="42.85987" lon="0.4626">
        <ele>1807.07</ele>
        <time>2025-06-09T08:36:43Z</time>
      </trkpt>
      <trkpt lat="42.85988" lon="0.46259">
        <ele>1806.98</ele>
        <time>2025-06-09T08:36:44Z</time>
      </trkpt>
      <trkpt lat="42.85998" lon="0.46255">
        <ele>1804.52</ele>
        <time>2025-06-09T08:36:51Z</time>
      </trkpt>
      <trkpt lat="42.86015" lon="0.46251">
        <ele>1801.39</ele>
        <time>2025-06-09T08:37:03Z</time>
      </trkpt>
      <trkpt lat="42.86016" lon="0.46251">
        <ele>1802.08</ele>
        <time>2025-06-09T08:37:21Z</time>
      </trkpt>
      <trkpt lat="42.86018" lon="0.46252">
        <ele>1801.79</ele>
        <time>2025-06-09T08:37:59Z</time>
      </trkpt>
      <trkpt lat="42.86024" lon="0.46253">
        <ele>1800.5</ele>
        <time>2025-06-09T08:38:04Z</time>
      </trkpt>
      <trkpt lat="42.86029" lon="0.46252">
        <ele>1799.19</ele>
        <time>2025-06-09T08:38:07Z</time>
      </trkpt>
      <trkpt lat="42.86045" lon="0.46247">
        <ele>1795.91</ele>
        <time>2025-06-09T08:38:18Z</time>
      </trkpt>
      <trkpt lat="42.8606" lon="0.46244">
        <ele>1792.82</ele>
        <time>2025-06-09T08:38:28Z</time>
      </trkpt>
      <trkpt lat="42.86071" lon="0.4624">
        <ele>1791.17</ele>
        <time>2025-06-09T08:38:36Z</time>
      </trkpt>
      <trkpt lat="42.86076" lon="0.46241">
        <ele>1789.91</ele>
        <time>2025-06-09T08:38:40Z</time>
      </trkpt>
      <trkpt lat="42.86099" lon="0.46229">
        <ele>1787.37</ele>
        <time>2025-06-09T08:38:58Z</time>
      </trkpt>
      <trkpt lat="42.86103" lon="0.46226">
        <ele>1782.68</ele>
        <time>2025-06-09T08:39:03Z</time>
      </trkpt>
      <trkpt lat="42.86104" lon="0.46223">
        <ele>1784.42</ele>
        <time>2025-06-09T08:39:05Z</time>
      </trkpt>
      <trkpt lat="42.86109" lon="0.46216">
        <ele>1783.46</ele>
        <time>2025-06-09T08:39:11Z</time>
      </trkpt>
      <trkpt lat="42.86121" lon="0.46199">
        <ele>1779.56</ele>
        <time>2025-06-09T08:39:23Z</time>
      </trkpt>
      <trkpt lat="42.86135" lon="0.46178">
        <ele>1776.47</ele>
        <time>2025-06-09T08:39:37Z</time>
      </trkpt>
      <trkpt lat="42.86142" lon="0.46144">
        <ele>1776.19</ele>
        <time>2025-06-09T08:39:54Z</time>
      </trkpt>
      <trkpt lat="42.86149" lon="0.46113">
        <ele>1776.03</ele>
        <time>2025-06-09T08:40:10Z</time>
      </trkpt>
      <trkpt lat="42.86162" lon="0.46086">
        <ele>1773.43</ele>
        <time>2025-06-09T08:40:27Z</time>
      </trkpt>
      <trkpt lat="42.86165" lon="0.46077">
        <ele>1772.98</ele>
        <time>2025-06-09T08:40:35Z</time>
      </trkpt>
      <trkpt lat="42.86164" lon="0.46057">
        <ele>1773.73</ele>
        <time>2025-06-09T08:40:49Z</time>
      </trkpt>
      <trkpt lat="42.86165" lon="0.46047">
        <ele>1773.52</ele>
        <time>2025-06-09T08:40:56Z</time>
      </trkpt>
      <trkpt lat="42.86166" lon="0.46045">
        <ele>1773.92</ele>
        <time>2025-06-09T08:40:58Z</time>
      </trkpt>
      <trkpt lat="42.8617" lon="0.46033">
        <ele>1776.21</ele>
        <time>2025-06-09T08:41:07Z</time>
      </trkpt>
      <trkpt lat="42.86181" lon="0.46019">
        <ele>1779.3</ele>
        <time>2025-06-09T08:41:20Z</time>
      </trkpt>
      <trkpt lat="42.86183" lon="0.46016">
        <ele>1779.47</ele>
        <time>2025-06-09T08:41:33Z</time>
      </trkpt>
      <trkpt lat="42.86185" lon="0.46015">
        <ele>1779.33</ele>
        <time>2025-06-09T08:41:54Z</time>
      </trkpt>
      <trkpt lat="42.8621" lon="0.46003">
        <ele>1776.15</ele>
        <time>2025-06-09T08:42:12Z</time>
      </trkpt>
      <trkpt lat="42.86227" lon="0.45995">
        <ele>1772.94</ele>
        <time>2025-06-09T08:42:24Z</time>
      </trkpt>
      <trkpt lat="42.86243" lon="0.45989">
        <ele>1769.64</ele>
        <time>2025-06-09T08:42:35Z</time>
      </trkpt>
      <trkpt lat="42.86248" lon="0.45989">
        <ele>1768.13</ele>
        <time>2025-06-09T08:42:39Z</time>
      </trkpt>
      <trkpt lat="42.86255" lon="0.45987">
        <ele>1766.29</ele>
        <time>2025-06-09T08:42:45Z</time>
      </trkpt>
      <trkpt lat="42.86261" lon="0.45995">
        <ele>1764.14</ele>
        <time>2025-06-09T08:42:52Z</time>
      </trkpt>
      <trkpt lat="42.86264" lon="0.45999">
        <ele>1762.27</ele>
        <time>2025-06-09T08:42:56Z</time>
      </trkpt>
      <trkpt lat="42.86266" lon="0.46001">
        <ele>1761.53</ele>
        <time>2025-06-09T08:42:58Z</time>
      </trkpt>
      <trkpt lat="42.86274" lon="0.46008">
        <ele>1758.62</ele>
        <time>2025-06-09T08:43:06Z</time>
      </trkpt>
      <trkpt lat="42.86281" lon="0.46021">
        <ele>1755.46</ele>
        <time>2025-06-09T08:43:17Z</time>
      </trkpt>
      <trkpt lat="42.86283" lon="0.46031">
        <ele>1752.92</ele>
        <time>2025-06-09T08:43:26Z</time>
      </trkpt>
      <trkpt lat="42.86283" lon="0.46036">
        <ele>1751.71</ele>
        <time>2025-06-09T08:43:30Z</time>
      </trkpt>
      <trkpt lat="42.86278" lon="0.4605">
        <ele>1748.14</ele>
        <time>2025-06-09T08:43:44Z</time>
      </trkpt>
      <trkpt lat="42.86282" lon="0.46057">
        <ele>1744.94</ele>
        <time>2025-06-09T08:43:57Z</time>
      </trkpt>
      <trkpt lat="42.86286" lon="0.46061">
        <ele>1741.96</ele>
        <time>2025-06-09T08:44:11Z</time>
      </trkpt>
      <trkpt lat="42.86287" lon="0.46061">
        <ele>1741.81</ele>
        <time>2025-06-09T08:44:44Z</time>
      </trkpt>
      <trkpt lat="42.86285" lon="0.46072">
        <ele>1738.32</ele>
        <time>2025-06-09T08:45:05Z</time>
      </trkpt>
      <trkpt lat="42.86284" lon="0.46076">
        <ele>1736.31</ele>
        <time>2025-06-09T08:45:11Z</time>
      </trkpt>
      <trkpt lat="42.86285" lon="0.4608">
        <ele>1733.3</ele>
        <time>2025-06-09T08:45:20Z</time>
      </trkpt>
      <trkpt lat="42.86287" lon="0.46078">
        <ele>1732.05</ele>
        <time>2025-06-09T08:45:23Z</time>
      </trkpt>
      <trkpt lat="42.86295" lon="0.46077">
        <ele>1728.06</ele>
        <time>2025-06-09T08:45:35Z</time>
      </trkpt>
      <trkpt lat="42.86301" lon="0.46071">
        <ele>1724.34</ele>
        <time>2025-06-09T08:45:48Z</time>
      </trkpt>
      <trkpt lat="42.86306" lon="0.46071">
        <ele>1722.05</ele>
        <time>2025-06-09T08:45:55Z</time>
      </trkpt>
      <trkpt lat="42.86313" lon="0.46068">
        <ele>1718.83</ele>
        <time>2025-06-09T08:46:04Z</time>
      </trkpt>
      <trkpt lat="42.86326" lon="0.46066">
        <ele>1715.69</ele>
        <time>2025-06-09T08:46:14Z</time>
      </trkpt>
      <trkpt lat="42.86328" lon="0.46068">
        <ele>1715.31</ele>
        <time>2025-06-09T08:46:16Z</time>
      </trkpt>
      <trkpt lat="42.86343" lon="0.46067">
        <ele>1711.05</ele>
        <time>2025-06-09T08:46:27Z</time>
      </trkpt>
      <trkpt lat="42.86344" lon="0.46067">
        <ele>1711.01</ele>
        <time>2025-06-09T08:46:28Z</time>
      </trkpt>
      <trkpt lat="42.86354" lon="0.46068">
        <ele>1707.78</ele>
        <time>2025-06-09T08:46:36Z</time>
      </trkpt>
      <trkpt lat="42.86357" lon="0.46069">
        <ele>1707.04</ele>
        <time>2025-06-09T08:46:38Z</time>
      </trkpt>
      <trkpt lat="42.8636" lon="0.46068">
        <ele>1706.83</ele>
        <time>2025-06-09T08:46:40Z</time>
      </trkpt>
      <trkpt lat="42.86362" lon="0.46064">
        <ele>1706.46</ele>
        <time>2025-06-09T08:46:43Z</time>
      </trkpt>
      <trkpt lat="42.86377" lon="0.46064">
        <ele>1704.19</ele>
        <time>2025-06-09T08:46:53Z</time>
      </trkpt>
      <trkpt lat="42.86387" lon="0.46076">
        <ele>1701.53</ele>
        <time>2025-06-09T08:47:02Z</time>
      </trkpt>
      <trkpt lat="42.86392" lon="0.46081">
        <ele>1700.2</ele>
        <time>2025-06-09T08:47:07Z</time>
      </trkpt>
      <trkpt lat="42.86399" lon="0.46073">
        <ele>1698.35</ele>
        <time>2025-06-09T08:47:18Z</time>
      </trkpt>
      <trkpt lat="42.864" lon="0.46072">
        <ele>1697.89</ele>
        <time>2025-06-09T08:47:20Z</time>
      </trkpt>
      <trkpt lat="42.86405" lon="0.46069">
        <ele>1697.35</ele>
        <time>2025-06-09T08:47:27Z</time>
      </trkpt>
      <trkpt lat="42.86407" lon="0.46068">
        <ele>1696.96</ele>
        <time>2025-06-09T08:47:29Z</time>
      </trkpt>
      <trkpt lat="42.8641" lon="0.4607">
        <ele>1696.17</ele>
        <time>2025-06-09T08:47:33Z</time>
      </trkpt>
      <trkpt lat="42.86412" lon="0.46074">
        <ele>1695.17</ele>
        <time>2025-06-09T08:47:37Z</time>
      </trkpt>
      <trkpt lat="42.86416" lon="0.46075">
        <ele>1693.67</ele>
        <time>2025-06-09T08:47:40Z</time>
      </trkpt>
      <trkpt lat="42.86418" lon="0.46079">
        <ele>1692.42</ele>
        <time>2025-06-09T08:47:43Z</time>
      </trkpt>
      <trkpt lat="42.86419" lon="0.46079">
        <ele>1692.09</ele>
        <time>2025-06-09T08:47:44Z</time>
      </trkpt>
      <trkpt lat="42.86424" lon="0.46081">
        <ele>1690.01</ele>
        <time>2025-06-09T08:47:48Z</time>
      </trkpt>
      <trkpt lat="42.86439" lon="0.46086">
        <ele>1687.01</ele>
        <time>2025-06-09T08:48:02Z</time>
      </trkpt>
      <trkpt lat="42.86442" lon="0.46088">
        <ele>1687.06</ele>
        <time>2025-06-09T08:48:05Z</time>
      </trkpt>
      <trkpt lat="42.86455" lon="0.46098">
        <ele>1685.74</ele>
        <time>2025-06-09T08:48:20Z</time>
      </trkpt>
      <trkpt lat="42.86457" lon="0.46098">
        <ele>1685.22</ele>
        <time>2025-06-09T08:48:23Z</time>
      </trkpt>
      <trkpt lat="42.86467" lon="0.46106">
        <ele>1681.67</ele>
        <time>2025-06-09T08:48:36Z</time>
      </trkpt>
      <trkpt lat="42.86471" lon="0.4611">
        <ele>1678.52</ele>
        <time>2025-06-09T08:48:44Z</time>
      </trkpt>
      <trkpt lat="42.86479" lon="0.4611">
        <ele>1675.69</ele>
        <time>2025-06-09T08:48:55Z</time>
      </trkpt>
      <trkpt lat="42.86489" lon="0.46112">
        <ele>1672.72</ele>
        <time>2025-06-09T08:49:09Z</time>
      </trkpt>
      <trkpt lat="42.86495" lon="0.46112">
        <ele>1670.46</ele>
        <time>2025-06-09T08:49:15Z</time>
      </trkpt>
      <trkpt lat="42.86502" lon="0.4611">
        <ele>1667.16</ele>
        <time>2025-06-09T08:49:24Z</time>
      </trkpt>
      <trkpt lat="42.86507" lon="0.46116">
        <ele>1664.08</ele>
        <time>2025-06-09T08:49:38Z</time>
      </trkpt>
      <trkpt lat="42.86508" lon="0.46119">
        <ele>1661.06</ele>
        <time>2025-06-09T08:49:47Z</time>
      </trkpt>
      <trkpt lat="42.86511" lon="0.4612">
        <ele>1659.33</ele>
        <time>2025-06-09T08:49:56Z</time>
      </trkpt>
      <trkpt lat="42.86518" lon="0.46118">
        <ele>1656.22</ele>
        <time>2025-06-09T08:50:04Z</time>
      </trkpt>
      <trkpt lat="42.86521" lon="0.46118">
        <ele>1654.66</ele>
        <time>2025-06-09T08:50:08Z</time>
      </trkpt>
      <trkpt lat="42.86527" lon="0.46113">
        <ele>1651.47</ele>
        <time>2025-06-09T08:50:17Z</time>
      </trkpt>
      <trkpt lat="42.86532" lon="0.46115">
        <ele>1647.83</ele>
        <time>2025-06-09T08:50:26Z</time>
      </trkpt>
      <trkpt lat="42.86537" lon="0.46121">
        <ele>1645.98</ele>
        <time>2025-06-09T08:50:33Z</time>
      </trkpt>
      <trkpt lat="42.86544" lon="0.46126">
        <ele>1641.54</ele>
        <time>2025-06-09T08:50:44Z</time>
      </trkpt>
      <trkpt lat="42.86545" lon="0.46127">
        <ele>1641.38</ele>
        <time>2025-06-09T08:50:45Z</time>
      </trkpt>
      <trkpt lat="42.86549" lon="0.46127">
        <ele>1639.5</ele>
        <time>2025-06-09T08:50:49Z</time>
      </trkpt>
      <trkpt lat="42.86554" lon="0.46126">
        <ele>1638.39</ele>
        <time>2025-06-09T08:50:54Z</time>
      </trkpt>
      <trkpt lat="42.86559" lon="0.46128">
        <ele>1636.54</ele>
        <time>2025-06-09T08:50:59Z</time>
      </trkpt>
      <trkpt lat="42.86562" lon="0.46132">
        <ele>1635.05</ele>
        <time>2025-06-09T08:51:02Z</time>
      </trkpt>
      <trkpt lat="42.86569" lon="0.46134">
        <ele>1633.36</ele>
        <time>2025-06-09T08:51:07Z</time>
      </trkpt>
      <trkpt lat="42.86571" lon="0.46136">
        <ele>1632.31</ele>
        <time>2025-06-09T08:51:09Z</time>
      </trkpt>
      <trkpt lat="42.86583" lon="0.46144">
        <ele>1629.23</ele>
        <time>2025-06-09T08:51:19Z</time>
      </trkpt>
      <trkpt lat="42.86585" lon="0.46144">
        <ele>1629.05</ele>
        <time>2025-06-09T08:51:21Z</time>
      </trkpt>
      <trkpt lat="42.8659" lon="0.46145">
        <ele>1627.75</ele>
        <time>2025-06-09T08:51:25Z</time>
      </trkpt>
      <trkpt lat="42.866" lon="0.46136">
        <ele>1625.61</ele>
        <time>2025-06-09T08:51:34Z</time>
      </trkpt>
      <trkpt lat="42.86606" lon="0.46129">
        <ele>1625.03</ele>
        <time>2025-06-09T08:51:40Z</time>
      </trkpt>
      <trkpt lat="42.86633" lon="0.46133">
        <ele>1622.51</ele>
        <time>2025-06-09T08:51:56Z</time>
      </trkpt>
      <trkpt lat="42.86657" lon="0.46136">
        <ele>1620.7</ele>
        <time>2025-06-09T08:52:12Z</time>
      </trkpt>
      <trkpt lat="42.86665" lon="0.46138">
        <ele>1617.61</ele>
        <time>2025-06-09T08:52:20Z</time>
      </trkpt>
      <trkpt lat="42.86673" lon="0.46141">
        <ele>1614.39</ele>
        <time>2025-06-09T08:52:29Z</time>
      </trkpt>
      <trkpt lat="42.86677" lon="0.46143">
        <ele>1613.29</ele>
        <time>2025-06-09T08:52:32Z</time>
      </trkpt>
      <trkpt lat="42.8668" lon="0.46145">
        <ele>1612.68</ele>
        <time>2025-06-09T08:52:35Z</time>
      </trkpt>
      <trkpt lat="42.86692" lon="0.46156">
        <ele>1607.87</ele>
        <time>2025-06-09T08:52:45Z</time>
      </trkpt>
      <trkpt lat="42.86694" lon="0.46156">
        <ele>1607.8</ele>
        <time>2025-06-09T08:52:46Z</time>
      </trkpt>
      <trkpt lat="42.86697" lon="0.46156">
        <ele>1607.51</ele>
        <time>2025-06-09T08:52:48Z</time>
      </trkpt>
      <trkpt lat="42.86704" lon="0.46156">
        <ele>1606.14</ele>
        <time>2025-06-09T08:52:53Z</time>
      </trkpt>
      <trkpt lat="42.86714" lon="0.46148">
        <ele>1602.97</ele>
        <time>2025-06-09T08:53:05Z</time>
      </trkpt>
      <trkpt lat="42.86719" lon="0.46151">
        <ele>1600.97</ele>
        <time>2025-06-09T08:53:12Z</time>
      </trkpt>
      <trkpt lat="42.86735" lon="0.4615">
        <ele>1596.65</ele>
        <time>2025-06-09T08:53:21Z</time>
      </trkpt>
      <trkpt lat="42.86752" lon="0.4615">
        <ele>1593.02</ele>
        <time>2025-06-09T08:53:31Z</time>
      </trkpt>
      <trkpt lat="42.86772" lon="0.46146">
        <ele>1592.2</ele>
        <time>2025-06-09T08:53:44Z</time>
      </trkpt>
      <trkpt lat="42.86799" lon="0.46139">
        <ele>1589</ele>
        <time>2025-06-09T08:54:00Z</time>
      </trkpt>
      <trkpt lat="42.86808" lon="0.46135">
        <ele>1586.72</ele>
        <time>2025-06-09T08:54:07Z</time>
      </trkpt>
      <trkpt lat="42.86822" lon="0.46132">
        <ele>1584.13</ele>
        <time>2025-06-09T08:54:17Z</time>
      </trkpt>
      <trkpt lat="42.86836" lon="0.46127">
        <ele>1581.03</ele>
        <time>2025-06-09T08:54:26Z</time>
      </trkpt>
      <trkpt lat="42.86844" lon="0.46126">
        <ele>1579.57</ele>
        <time>2025-06-09T08:54:33Z</time>
      </trkpt>
      <trkpt lat="42.86847" lon="0.46125">
        <ele>1579.34</ele>
        <time>2025-06-09T08:54:35Z</time>
      </trkpt>
      <trkpt lat="42.86857" lon="0.46123">
        <ele>1576.39</ele>
        <time>2025-06-09T08:54:44Z</time>
      </trkpt>
      <trkpt lat="42.86866" lon="0.46122">
        <ele>1574.74</ele>
        <time>2025-06-09T08:54:53Z</time>
      </trkpt>
      <trkpt lat="42.86872" lon="0.46123">
        <ele>1571.86</ele>
        <time>2025-06-09T08:54:57Z</time>
      </trkpt>
      <trkpt lat="42.86875" lon="0.46123">
        <ele>1571.84</ele>
        <time>2025-06-09T08:54:59Z</time>
      </trkpt>
      <trkpt lat="42.86884" lon="0.46126">
        <ele>1571.78</ele>
        <time>2025-06-09T08:55:07Z</time>
      </trkpt>
      <trkpt lat="42.86892" lon="0.46121">
        <ele>1571.74</ele>
        <time>2025-06-09T08:55:12Z</time>
      </trkpt>
      <trkpt lat="42.86905" lon="0.46118">
        <ele>1571.62</ele>
        <time>2025-06-09T08:55:23Z</time>
      </trkpt>
      <trkpt lat="42.86906" lon="0.46117">
        <ele>1566.76</ele>
        <time>2025-06-09T08:55:33Z</time>
      </trkpt>
      <trkpt lat="42.86906" lon="0.46117">
        <ele>1566.94</ele>
        <time>2025-06-09T08:55:34Z</time>
      </trkpt>
      <trkpt lat="42.86905" lon="0.4612">
        <ele>1566.48</ele>
        <time>2025-06-09T08:55:58Z</time>
      </trkpt>
      <trkpt lat="42.86906" lon="0.4612">
        <ele>1566.53</ele>
        <time>2025-06-09T08:56:02Z</time>
      </trkpt>
      <trkpt lat="42.8691" lon="0.46116">
        <ele>1565.12</ele>
        <time>2025-06-09T08:56:06Z</time>
      </trkpt>
      <trkpt lat="42.86913" lon="0.46114">
        <ele>1564.44</ele>
        <time>2025-06-09T08:56:08Z</time>
      </trkpt>
      <trkpt lat="42.86924" lon="0.46108">
        <ele>1560.9</ele>
        <time>2025-06-09T08:56:17Z</time>
      </trkpt>
      <trkpt lat="42.86937" lon="0.46101">
        <ele>1557.89</ele>
        <time>2025-06-09T08:56:26Z</time>
      </trkpt>
      <trkpt lat="42.86947" lon="0.46098">
        <ele>1555.69</ele>
        <time>2025-06-09T08:56:33Z</time>
      </trkpt>
      <trkpt lat="42.86955" lon="0.46092">
        <ele>1552.84</ele>
        <time>2025-06-09T08:56:39Z</time>
      </trkpt>
      <trkpt lat="42.86967" lon="0.46083">
        <ele>1549.63</ele>
        <time>2025-06-09T08:56:48Z</time>
      </trkpt>
      <trkpt lat="42.86976" lon="0.46074">
        <ele>1546.62</ele>
        <time>2025-06-09T08:56:56Z</time>
      </trkpt>
      <trkpt lat="42.86991" lon="0.46062">
        <ele>1543.08</ele>
        <time>2025-06-09T08:57:07Z</time>
      </trkpt>
      <trkpt lat="42.87007" lon="0.46055">
        <ele>1540.02</ele>
        <time>2025-06-09T08:57:18Z</time>
      </trkpt>
      <trkpt lat="42.87019" lon="0.46045">
        <ele>1536.74</ele>
        <time>2025-06-09T08:57:27Z</time>
      </trkpt>
      <trkpt lat="42.87038" lon="0.46029">
        <ele>1533.3</ele>
        <time>2025-06-09T08:57:41Z</time>
      </trkpt>
      <trkpt lat="42.87044" lon="0.46028">
        <ele>1531.88</ele>
        <time>2025-06-09T08:57:45Z</time>
      </trkpt>
      <trkpt lat="42.87046" lon="0.46027">
        <ele>1531.34</ele>
        <time>2025-06-09T08:57:46Z</time>
      </trkpt>
      <trkpt lat="42.87056" lon="0.45999">
        <ele>1528.85</ele>
        <time>2025-06-09T08:58:02Z</time>
      </trkpt>
      <trkpt lat="42.87061" lon="0.45994">
        <ele>1528.84</ele>
        <time>2025-06-09T08:58:06Z</time>
      </trkpt>
      <trkpt lat="42.87065" lon="0.45983">
        <ele>1527.39</ele>
        <time>2025-06-09T08:58:12Z</time>
      </trkpt>
      <trkpt lat="42.87068" lon="0.45974">
        <ele>1526.49</ele>
        <time>2025-06-09T08:58:17Z</time>
      </trkpt>
      <trkpt lat="42.87067" lon="0.4597">
        <ele>1526.45</ele>
        <time>2025-06-09T08:58:21Z</time>
      </trkpt>
      <trkpt lat="42.87071" lon="0.45965">
        <ele>1525.89</ele>
        <time>2025-06-09T08:58:26Z</time>
      </trkpt>
      <trkpt lat="42.87084" lon="0.4596">
        <ele>1525.87</ele>
        <time>2025-06-09T08:58:37Z</time>
      </trkpt>
      <trkpt lat="42.87086" lon="0.4596">
        <ele>1525.08</ele>
        <time>2025-06-09T08:58:39Z</time>
      </trkpt>
      <trkpt lat="42.87104" lon="0.45941">
        <ele>1522.82</ele>
        <time>2025-06-09T08:58:54Z</time>
      </trkpt>
      <trkpt lat="42.87108" lon="0.45936">
        <ele>1522.53</ele>
        <time>2025-06-09T08:58:58Z</time>
      </trkpt>
      <trkpt lat="42.87111" lon="0.45933">
        <ele>1522.21</ele>
        <time>2025-06-09T08:59:00Z</time>
      </trkpt>
      <trkpt lat="42.87115" lon="0.45931">
        <ele>1521.79</ele>
        <time>2025-06-09T08:59:03Z</time>
      </trkpt>
      <trkpt lat="42.87136" lon="0.45917">
        <ele>1519.96</ele>
        <time>2025-06-09T08:59:16Z</time>
      </trkpt>
      <trkpt lat="42.87148" lon="0.45912">
        <ele>1519.33</ele>
        <time>2025-06-09T08:59:23Z</time>
      </trkpt>
      <trkpt lat="42.87152" lon="0.45912">
        <ele>1519.58</ele>
        <time>2025-06-09T08:59:26Z</time>
      </trkpt>
      <trkpt lat="42.8716" lon="0.45905">
        <ele>1517.22</ele>
        <time>2025-06-09T08:59:33Z</time>
      </trkpt>
      <trkpt lat="42.87178" lon="0.45892">
        <ele>1514.14</ele>
        <time>2025-06-09T08:59:47Z</time>
      </trkpt>
      <trkpt lat="42.87188" lon="0.45886">
        <ele>1512.43</ele>
        <time>2025-06-09T08:59:55Z</time>
      </trkpt>
      <trkpt lat="42.87192" lon="0.45883">
        <ele>1511.2</ele>
        <time>2025-06-09T08:59:58Z</time>
      </trkpt>
      <trkpt lat="42.87195" lon="0.45882">
        <ele>1510.84</ele>
        <time>2025-06-09T09:00:00Z</time>
      </trkpt>
      <trkpt lat="42.87206" lon="0.4588">
        <ele>1508.48</ele>
        <time>2025-06-09T09:00:09Z</time>
      </trkpt>
      <trkpt lat="42.87215" lon="0.45875">
        <ele>1505.95</ele>
        <time>2025-06-09T09:00:16Z</time>
      </trkpt>
      <trkpt lat="42.8722" lon="0.45869">
        <ele>1503.34</ele>
        <time>2025-06-09T09:00:21Z</time>
      </trkpt>
      <trkpt lat="42.87227" lon="0.45857">
        <ele>1501.26</ele>
        <time>2025-06-09T09:00:29Z</time>
      </trkpt>
      <trkpt lat="42.87229" lon="0.45852">
        <ele>1500.5</ele>
        <time>2025-06-09T09:00:32Z</time>
      </trkpt>
      <trkpt lat="42.87235" lon="0.45845">
        <ele>1498.06</ele>
        <time>2025-06-09T09:00:38Z</time>
      </trkpt>
      <trkpt lat="42.87237" lon="0.45841">
        <ele>1497.42</ele>
        <time>2025-06-09T09:00:41Z</time>
      </trkpt>
      <trkpt lat="42.87243" lon="0.45834">
        <ele>1495.9</ele>
        <time>2025-06-09T09:00:47Z</time>
      </trkpt>
      <trkpt lat="42.87248" lon="0.45824">
        <ele>1494.14</ele>
        <time>2025-06-09T09:00:53Z</time>
      </trkpt>
      <trkpt lat="42.87249" lon="0.45813">
        <ele>1492.79</ele>
        <time>2025-06-09T09:00:59Z</time>
      </trkpt>
      <trkpt lat="42.87251" lon="0.45808">
        <ele>1491.74</ele>
        <time>2025-06-09T09:01:02Z</time>
      </trkpt>
      <trkpt lat="42.87254" lon="0.45796">
        <ele>1489.82</ele>
        <time>2025-06-09T09:01:09Z</time>
      </trkpt>
      <trkpt lat="42.87256" lon="0.45783">
        <ele>1490.32</ele>
        <time>2025-06-09T09:01:17Z</time>
      </trkpt>
      <trkpt lat="42.87269" lon="0.45753">
        <ele>1490.18</ele>
        <time>2025-06-09T09:01:33Z</time>
      </trkpt>
      <trkpt lat="42.8727" lon="0.45751">
        <ele>1490.37</ele>
        <time>2025-06-09T09:01:34Z</time>
      </trkpt>
      <trkpt lat="42.8728" lon="0.45732">
        <ele>1490.77</ele>
        <time>2025-06-09T09:01:44Z</time>
      </trkpt>
      <trkpt lat="42.87294" lon="0.45716">
        <ele>1489.9</ele>
        <time>2025-06-09T09:01:59Z</time>
      </trkpt>
      <trkpt lat="42.8731" lon="0.45706">
        <ele>1488.77</ele>
        <time>2025-06-09T09:02:14Z</time>
      </trkpt>
      <trkpt lat="42.87321" lon="0.45704">
        <ele>1487.12</ele>
        <time>2025-06-09T09:02:28Z</time>
      </trkpt>
      <trkpt lat="42.87329" lon="0.45702">
        <ele>1486.44</ele>
        <time>2025-06-09T09:02:33Z</time>
      </trkpt>
      <trkpt lat="42.87342" lon="0.45691">
        <ele>1485.04</ele>
        <time>2025-06-09T09:02:48Z</time>
      </trkpt>
      <trkpt lat="42.87344" lon="0.45688">
        <ele>1484.49</ele>
        <time>2025-06-09T09:02:50Z</time>
      </trkpt>
      <trkpt lat="42.87356" lon="0.45686">
        <ele>1482.73</ele>
        <time>2025-06-09T09:03:08Z</time>
      </trkpt>
      <trkpt lat="42.8737" lon="0.45688">
        <ele>1481.39</ele>
        <time>2025-06-09T09:03:19Z</time>
      </trkpt>
      <trkpt lat="42.87383" lon="0.45685">
        <ele>1480.52</ele>
        <time>2025-06-09T09:03:31Z</time>
      </trkpt>
      <trkpt lat="42.87386" lon="0.45684">
        <ele>1479.93</ele>
        <time>2025-06-09T09:03:33Z</time>
      </trkpt>
      <trkpt lat="42.87395" lon="0.45681">
        <ele>1479</ele>
        <time>2025-06-09T09:03:40Z</time>
      </trkpt>
      <trkpt lat="42.87407" lon="0.45673">
        <ele>1477.28</ele>
        <time>2025-06-09T09:03:48Z</time>
      </trkpt>
      <trkpt lat="42.87411" lon="0.45669">
        <ele>1475.16</ele>
        <time>2025-06-09T09:03:53Z</time>
      </trkpt>
      <trkpt lat="42.87433" lon="0.45655">
        <ele>1474.74</ele>
        <time>2025-06-09T09:04:11Z</time>
      </trkpt>
      <trkpt lat="42.87438" lon="0.45655">
        <ele>1475.53</ele>
        <time>2025-06-09T09:04:15Z</time>
      </trkpt>
      <trkpt lat="42.87447" lon="0.45658">
        <ele>1475.14</ele>
        <time>2025-06-09T09:04:20Z</time>
      </trkpt>
      <trkpt lat="42.8747" lon="0.45662">
        <ele>1470.94</ele>
        <time>2025-06-09T09:04:34Z</time>
      </trkpt>
      <trkpt lat="42.87479" lon="0.45663">
        <ele>1467.75</ele>
        <time>2025-06-09T09:04:41Z</time>
      </trkpt>
      <trkpt lat="42.87481" lon="0.45663">
        <ele>1465.97</ele>
        <time>2025-06-09T09:04:44Z</time>
      </trkpt>
      <trkpt lat="42.87488" lon="0.45662">
        <ele>1464.22</ele>
        <time>2025-06-09T09:04:49Z</time>
      </trkpt>
      <trkpt lat="42.87501" lon="0.45661">
        <ele>1461.61</ele>
        <time>2025-06-09T09:04:57Z</time>
      </trkpt>
      <trkpt lat="42.87514" lon="0.45666">
        <ele>1457.59</ele>
        <time>2025-06-09T09:05:07Z</time>
      </trkpt>
      <trkpt lat="42.87521" lon="0.45667">
        <ele>1456.01</ele>
        <time>2025-06-09T09:05:11Z</time>
      </trkpt>
      <trkpt lat="42.87533" lon="0.45665">
        <ele>1454.18</ele>
        <time>2025-06-09T09:05:19Z</time>
      </trkpt>
      <trkpt lat="42.87535" lon="0.45665">
        <ele>1453.58</ele>
        <time>2025-06-09T09:05:20Z</time>
      </trkpt>
      <trkpt lat="42.87538" lon="0.45666">
        <ele>1452.39</ele>
        <time>2025-06-09T09:05:24Z</time>
      </trkpt>
      <trkpt lat="42.87548" lon="0.45666">
        <ele>1448.89</ele>
        <time>2025-06-09T09:05:34Z</time>
      </trkpt>
      <trkpt lat="42.87556" lon="0.45666">
        <ele>1446.72</ele>
        <time>2025-06-09T09:05:41Z</time>
      </trkpt>
      <trkpt lat="42.8756" lon="0.45664">
        <ele>1445.41</ele>
        <time>2025-06-09T09:05:45Z</time>
      </trkpt>
      <trkpt lat="42.87571" lon="0.45663">
        <ele>1443.59</ele>
        <time>2025-06-09T09:05:53Z</time>
      </trkpt>
      <trkpt lat="42.87581" lon="0.45661">
        <ele>1442.49</ele>
        <time>2025-06-09T09:05:57Z</time>
      </trkpt>
      <trkpt lat="42.87603" lon="0.45662">
        <ele>1439.03</ele>
        <time>2025-06-09T09:06:08Z</time>
      </trkpt>
      <trkpt lat="42.87605" lon="0.45663">
        <ele>1438.69</ele>
        <time>2025-06-09T09:06:09Z</time>
      </trkpt>
      <trkpt lat="42.87612" lon="0.45664">
        <ele>1437.6</ele>
        <time>2025-06-09T09:06:14Z</time>
      </trkpt>
      <trkpt lat="42.87622" lon="0.45667">
        <ele>1435.7</ele>
        <time>2025-06-09T09:06:21Z</time>
      </trkpt>
      <trkpt lat="42.87627" lon="0.45669">
        <ele>1435.91</ele>
        <time>2025-06-09T09:06:24Z</time>
      </trkpt>
      <trkpt lat="42.87642" lon="0.45675">
        <ele>1433</ele>
        <time>2025-06-09T09:06:32Z</time>
      </trkpt>
      <trkpt lat="42.87643" lon="0.45675">
        <ele>1432.67</ele>
        <time>2025-06-09T09:06:33Z</time>
      </trkpt>
      <trkpt lat="42.87652" lon="0.45674">
        <ele>1431.66</ele>
        <time>2025-06-09T09:06:39Z</time>
      </trkpt>
      <trkpt lat="42.87666" lon="0.45679">
        <ele>1429.69</ele>
        <time>2025-06-09T09:06:48Z</time>
      </trkpt>
      <trkpt lat="42.87682" lon="0.45689">
        <ele>1428.35</ele>
        <time>2025-06-09T09:06:58Z</time>
      </trkpt>
      <trkpt lat="42.87687" lon="0.45687">
        <ele>1428.12</ele>
        <time>2025-06-09T09:07:02Z</time>
      </trkpt>
      <trkpt lat="42.87692" lon="0.45683">
        <ele>1425.92</ele>
        <time>2025-06-09T09:07:06Z</time>
      </trkpt>
      <trkpt lat="42.87693" lon="0.45682">
        <ele>1430.15</ele>
        <time>2025-06-09T09:07:07Z</time>
      </trkpt>
      <trkpt lat="42.87695" lon="0.45682">
        <ele>1427.44</ele>
        <time>2025-06-09T09:07:08Z</time>
      </trkpt>
      <trkpt lat="42.87699" lon="0.45681">
        <ele>1426.72</ele>
        <time>2025-06-09T09:07:10Z</time>
      </trkpt>
      <trkpt lat="42.87727" lon="0.45666">
        <ele>1425.22</ele>
        <time>2025-06-09T09:07:29Z</time>
      </trkpt>
      <trkpt lat="42.87738" lon="0.45663">
        <ele>1424.18</ele>
        <time>2025-06-09T09:07:37Z</time>
      </trkpt>
      <trkpt lat="42.87762" lon="0.45656">
        <ele>1422.4</ele>
        <time>2025-06-09T09:07:53Z</time>
      </trkpt>
      <trkpt lat="42.87786" lon="0.45641">
        <ele>1419.17</ele>
        <time>2025-06-09T09:08:10Z</time>
      </trkpt>
      <trkpt lat="42.87797" lon="0.45635">
        <ele>1419.52</ele>
        <time>2025-06-09T09:08:18Z</time>
      </trkpt>
      <trkpt lat="42.87809" lon="0.45634">
        <ele>1417.79</ele>
        <time>2025-06-09T09:08:26Z</time>
      </trkpt>
      <trkpt lat="42.87814" lon="0.45633">
        <ele>1417.79</ele>
        <time>2025-06-09T09:08:29Z</time>
      </trkpt>
      <trkpt lat="42.87835" lon="0.45632">
        <ele>1415.72</ele>
        <time>2025-06-09T09:08:43Z</time>
      </trkpt>
      <trkpt lat="42.87858" lon="0.45625">
        <ele>1414.39</ele>
        <time>2025-06-09T09:08:58Z</time>
      </trkpt>
      <trkpt lat="42.87877" lon="0.45615">
        <ele>1412.77</ele>
        <time>2025-06-09T09:09:10Z</time>
      </trkpt>
      <trkpt lat="42.87887" lon="0.45605">
        <ele>1411.82</ele>
        <time>2025-06-09T09:09:21Z</time>
      </trkpt>
      <trkpt lat="42.87899" lon="0.45596">
        <ele>1411.21</ele>
        <time>2025-06-09T09:09:31Z</time>
      </trkpt>
      <trkpt lat="42.87908" lon="0.45593">
        <ele>1410.62</ele>
        <time>2025-06-09T09:09:36Z</time>
      </trkpt>
      <trkpt lat="42.87921" lon="0.45584">
        <ele>1410.3</ele>
        <time>2025-06-09T09:09:45Z</time>
      </trkpt>
      <trkpt lat="42.87924" lon="0.45583">
        <ele>1410.28</ele>
        <time>2025-06-09T09:09:46Z</time>
      </trkpt>
      <trkpt lat="42.87945" lon="0.45572">
        <ele>1408.63</ele>
        <time>2025-06-09T09:10:01Z</time>
      </trkpt>
      <trkpt lat="42.87952" lon="0.45569">
        <ele>1408.48</ele>
        <time>2025-06-09T09:10:04Z</time>
      </trkpt>
      <trkpt lat="42.87966" lon="0.45565">
        <ele>1408.93</ele>
        <time>2025-06-09T09:10:10Z</time>
      </trkpt>
      <trkpt lat="42.87987" lon="0.45557">
        <ele>1407.83</ele>
        <time>2025-06-09T09:10:22Z</time>
      </trkpt>
      <trkpt lat="42.87999" lon="0.45552">
        <ele>1407.93</ele>
        <time>2025-06-09T09:10:30Z</time>
      </trkpt>
      <trkpt lat="42.88007" lon="0.45546">
        <ele>1406.68</ele>
        <time>2025-06-09T09:10:37Z</time>
      </trkpt>
      <trkpt lat="42.88015" lon="0.45539">
        <ele>1407.24</ele>
        <time>2025-06-09T09:10:42Z</time>
      </trkpt>
      <trkpt lat="42.88024" lon="0.45534">
        <ele>1405.51</ele>
        <time>2025-06-09T09:10:48Z</time>
      </trkpt>
      <trkpt lat="42.88044" lon="0.45518">
        <ele>1404.87</ele>
        <time>2025-06-09T09:11:01Z</time>
      </trkpt>
      <trkpt lat="42.88047" lon="0.45517">
        <ele>1404.87</ele>
        <time>2025-06-09T09:11:03Z</time>
      </trkpt>
      <trkpt lat="42.88072" lon="0.45508">
        <ele>1403.41</ele>
        <time>2025-06-09T09:11:19Z</time>
      </trkpt>
      <trkpt lat="42.88074" lon="0.45506">
        <ele>1403.12</ele>
        <time>2025-06-09T09:11:21Z</time>
      </trkpt>
      <trkpt lat="42.88091" lon="0.45494">
        <ele>1401.99</ele>
        <time>2025-06-09T09:11:31Z</time>
      </trkpt>
      <trkpt lat="42.88098" lon="0.45488">
        <ele>1401.78</ele>
        <time>2025-06-09T09:11:36Z</time>
      </trkpt>
      <trkpt lat="42.88101" lon="0.45486">
        <ele>1401.87</ele>
        <time>2025-06-09T09:11:38Z</time>
      </trkpt>
      <trkpt lat="42.88106" lon="0.45478">
        <ele>1401.19</ele>
        <time>2025-06-09T09:11:43Z</time>
      </trkpt>
      <trkpt lat="42.88124" lon="0.45454">
        <ele>1398.95</ele>
        <time>2025-06-09T09:11:59Z</time>
      </trkpt>
      <trkpt lat="42.88141" lon="0.45436">
        <ele>1397.29</ele>
        <time>2025-06-09T09:12:11Z</time>
      </trkpt>
      <trkpt lat="42.88146" lon="0.45436">
        <ele>1396.84</ele>
        <time>2025-06-09T09:12:14Z</time>
      </trkpt>
      <trkpt lat="42.8815" lon="0.45433">
        <ele>1395.83</ele>
        <time>2025-06-09T09:12:17Z</time>
      </trkpt>
      <trkpt lat="42.88152" lon="0.45431">
        <ele>1395.72</ele>
        <time>2025-06-09T09:12:19Z</time>
      </trkpt>
      <trkpt lat="42.88169" lon="0.45412">
        <ele>1392.87</ele>
        <time>2025-06-09T09:12:33Z</time>
      </trkpt>
      <trkpt lat="42.88176" lon="0.45399">
        <ele>1392.43</ele>
        <time>2025-06-09T09:12:40Z</time>
      </trkpt>
      <trkpt lat="42.88179" lon="0.4539">
        <ele>1390.73</ele>
        <time>2025-06-09T09:12:44Z</time>
      </trkpt>
      <trkpt lat="42.88181" lon="0.45384">
        <ele>1390.3</ele>
        <time>2025-06-09T09:12:47Z</time>
      </trkpt>
      <trkpt lat="42.882" lon="0.45349">
        <ele>1387.75</ele>
        <time>2025-06-09T09:13:03Z</time>
      </trkpt>
      <trkpt lat="42.88205" lon="0.45341">
        <ele>1386.88</ele>
        <time>2025-06-09T09:13:08Z</time>
      </trkpt>
      <trkpt lat="42.88217" lon="0.45316">
        <ele>1383.99</ele>
        <time>2025-06-09T09:13:23Z</time>
      </trkpt>
      <trkpt lat="42.88223" lon="0.45305">
        <ele>1383.52</ele>
        <time>2025-06-09T09:13:29Z</time>
      </trkpt>
      <trkpt lat="42.88229" lon="0.45285">
        <ele>1383.32</ele>
        <time>2025-06-09T09:13:39Z</time>
      </trkpt>
      <trkpt lat="42.88238" lon="0.4527">
        <ele>1380.52</ele>
        <time>2025-06-09T09:13:52Z</time>
      </trkpt>
      <trkpt lat="42.88242" lon="0.45265">
        <ele>1379.04</ele>
        <time>2025-06-09T09:13:56Z</time>
      </trkpt>
      <trkpt lat="42.88248" lon="0.45247">
        <ele>1378.34</ele>
        <time>2025-06-09T09:14:07Z</time>
      </trkpt>
      <trkpt lat="42.88255" lon="0.45234">
        <ele>1376.42</ele>
        <time>2025-06-09T09:14:15Z</time>
      </trkpt>
      <trkpt lat="42.88263" lon="0.45216">
        <ele>1374.15</ele>
        <time>2025-06-09T09:14:26Z</time>
      </trkpt>
      <trkpt lat="42.88265" lon="0.45219">
        <ele>1373.18</ele>
        <time>2025-06-09T09:14:31Z</time>
      </trkpt>
      <trkpt lat="42.88268" lon="0.45215">
        <ele>1373.1</ele>
        <time>2025-06-09T09:14:32Z</time>
      </trkpt>
      <trkpt lat="42.88272" lon="0.45205">
        <ele>1372.79</ele>
        <time>2025-06-09T09:14:35Z</time>
      </trkpt>
      <trkpt lat="42.88283" lon="0.45182">
        <ele>1371.42</ele>
        <time>2025-06-09T09:14:45Z</time>
      </trkpt>
      <trkpt lat="42.8829" lon="0.45164">
        <ele>1371.6</ele>
        <time>2025-06-09T09:14:53Z</time>
      </trkpt>
      <trkpt lat="42.88292" lon="0.45158">
        <ele>1371.04</ele>
        <time>2025-06-09T09:14:57Z</time>
      </trkpt>
      <trkpt lat="42.88296" lon="0.45145">
        <ele>1370.47</ele>
        <time>2025-06-09T09:15:04Z</time>
      </trkpt>
      <trkpt lat="42.88306" lon="0.45131">
        <ele>1369.84</ele>
        <time>2025-06-09T09:15:13Z</time>
      </trkpt>
      <trkpt lat="42.88309" lon="0.45122">
        <ele>1369.33</ele>
        <time>2025-06-09T09:15:17Z</time>
      </trkpt>
      <trkpt lat="42.88322" lon="0.45104">
        <ele>1370.15</ele>
        <time>2025-06-09T09:15:30Z</time>
      </trkpt>
      <trkpt lat="42.88323" lon="0.45101">
        <ele>1370.12</ele>
        <time>2025-06-09T09:15:31Z</time>
      </trkpt>
      <trkpt lat="42.88332" lon="0.45069">
        <ele>1368.88</ele>
        <time>2025-06-09T09:15:48Z</time>
      </trkpt>
      <trkpt lat="42.88332" lon="0.45067">
        <ele>1368.83</ele>
        <time>2025-06-09T09:15:51Z</time>
      </trkpt>
      <trkpt lat="42.88335" lon="0.45056">
        <ele>1367.92</ele>
        <time>2025-06-09T09:15:57Z</time>
      </trkpt>
      <trkpt lat="42.88343" lon="0.45021">
        <ele>1367.03</ele>
        <time>2025-06-09T09:16:13Z</time>
      </trkpt>
      <trkpt lat="42.88344" lon="0.45017">
        <ele>1366.96</ele>
        <time>2025-06-09T09:16:15Z</time>
      </trkpt>
      <trkpt lat="42.88353" lon="0.45">
        <ele>1365.91</ele>
        <time>2025-06-09T09:16:24Z</time>
      </trkpt>
      <trkpt lat="42.88354" lon="0.44994">
        <ele>1366.12</ele>
        <time>2025-06-09T09:16:28Z</time>
      </trkpt>
      <trkpt lat="42.88358" lon="0.44985">
        <ele>1365.09</ele>
        <time>2025-06-09T09:16:33Z</time>
      </trkpt>
      <trkpt lat="42.88364" lon="0.44975">
        <ele>1364.76</ele>
        <time>2025-06-09T09:16:39Z</time>
      </trkpt>
      <trkpt lat="42.8837" lon="0.4496">
        <ele>1364.38</ele>
        <time>2025-06-09T09:16:48Z</time>
      </trkpt>
      <trkpt lat="42.88374" lon="0.44952">
        <ele>1362.71</ele>
        <time>2025-06-09T09:16:54Z</time>
      </trkpt>
      <trkpt lat="42.88381" lon="0.44944">
        <ele>1362.12</ele>
        <time>2025-06-09T09:17:00Z</time>
      </trkpt>
      <trkpt lat="42.88403" lon="0.4492">
        <ele>1360.1</ele>
        <time>2025-06-09T09:17:13Z</time>
      </trkpt>
      <trkpt lat="42.88405" lon="0.44918">
        <ele>1360.55</ele>
        <time>2025-06-09T09:17:14Z</time>
      </trkpt>
      <trkpt lat="42.88407" lon="0.44911">
        <ele>1359.66</ele>
        <time>2025-06-09T09:17:18Z</time>
      </trkpt>
      <trkpt lat="42.8841" lon="0.44908">
        <ele>1359.56</ele>
        <time>2025-06-09T09:17:21Z</time>
      </trkpt>
      <trkpt lat="42.88415" lon="0.44904">
        <ele>1357.98</ele>
        <time>2025-06-09T09:17:25Z</time>
      </trkpt>
      <trkpt lat="42.88419" lon="0.44897">
        <ele>1357.03</ele>
        <time>2025-06-09T09:17:29Z</time>
      </trkpt>
      <trkpt lat="42.88432" lon="0.44885">
        <ele>1354.61</ele>
        <time>2025-06-09T09:17:44Z</time>
      </trkpt>
      <trkpt lat="42.88434" lon="0.44885">
        <ele>1352.92</ele>
        <time>2025-06-09T09:17:48Z</time>
      </trkpt>
      <trkpt lat="42.88437" lon="0.44881">
        <ele>1351.75</ele>
        <time>2025-06-09T09:17:53Z</time>
      </trkpt>
      <trkpt lat="42.88445" lon="0.44867">
        <ele>1349.92</ele>
        <time>2025-06-09T09:18:06Z</time>
      </trkpt>
      <trkpt lat="42.88454" lon="0.44853">
        <ele>1347.15</ele>
        <time>2025-06-09T09:18:20Z</time>
      </trkpt>
      <trkpt lat="42.88456" lon="0.44847">
        <ele>1346.15</ele>
        <time>2025-06-09T09:18:24Z</time>
      </trkpt>
      <trkpt lat="42.88463" lon="0.44835">
        <ele>1344.09</ele>
        <time>2025-06-09T09:18:32Z</time>
      </trkpt>
      <trkpt lat="42.88474" lon="0.44819">
        <ele>1342.58</ele>
        <time>2025-06-09T09:18:49Z</time>
      </trkpt>
      <trkpt lat="42.88478" lon="0.44814">
        <ele>1341.83</ele>
        <time>2025-06-09T09:19:02Z</time>
      </trkpt>
      <trkpt lat="42.88482" lon="0.44807">
        <ele>1341.44</ele>
        <time>2025-06-09T09:19:32Z</time>
      </trkpt>
      <trkpt lat="42.88488" lon="0.448">
        <ele>1339.1</ele>
        <time>2025-06-09T09:19:52Z</time>
      </trkpt>
      <trkpt lat="42.88494" lon="0.44796">
        <ele>1338.25</ele>
        <time>2025-06-09T09:19:58Z</time>
      </trkpt>
      <trkpt lat="42.88503" lon="0.44791">
        <ele>1336.64</ele>
        <time>2025-06-09T09:20:04Z</time>
      </trkpt>
      <trkpt lat="42.88509" lon="0.44785">
        <ele>1335.66</ele>
        <time>2025-06-09T09:20:10Z</time>
      </trkpt>
      <trkpt lat="42.88516" lon="0.44776">
        <ele>1334.41</ele>
        <time>2025-06-09T09:20:17Z</time>
      </trkpt>
      <trkpt lat="42.88523" lon="0.44761">
        <ele>1331.4</ele>
        <time>2025-06-09T09:20:29Z</time>
      </trkpt>
      <trkpt lat="42.88539" lon="0.44742">
        <ele>1328.05</ele>
        <time>2025-06-09T09:20:46Z</time>
      </trkpt>
      <trkpt lat="42.8855" lon="0.44736">
        <ele>1326.21</ele>
        <time>2025-06-09T09:20:55Z</time>
      </trkpt>
      <trkpt lat="42.88566" lon="0.4472">
        <ele>1322.47</ele>
        <time>2025-06-09T09:21:07Z</time>
      </trkpt>
      <trkpt lat="42.88581" lon="0.44702">
        <ele>1319.12</ele>
        <time>2025-06-09T09:21:20Z</time>
      </trkpt>
      <trkpt lat="42.88592" lon="0.44689">
        <ele>1315.8</ele>
        <time>2025-06-09T09:21:33Z</time>
      </trkpt>
      <trkpt lat="42.88593" lon="0.44687">
        <ele>1315.72</ele>
        <time>2025-06-09T09:21:34Z</time>
      </trkpt>
      <trkpt lat="42.88605" lon="0.44669">
        <ele>1312.06</ele>
        <time>2025-06-09T09:21:48Z</time>
      </trkpt>
      <trkpt lat="42.88622" lon="0.44654">
        <ele>1309.52</ele>
        <time>2025-06-09T09:22:02Z</time>
      </trkpt>
      <trkpt lat="42.88624" lon="0.44651">
        <ele>1309.05</ele>
        <time>2025-06-09T09:22:04Z</time>
      </trkpt>
      <trkpt lat="42.88627" lon="0.44648">
        <ele>1308.6</ele>
        <time>2025-06-09T09:22:06Z</time>
      </trkpt>
      <trkpt lat="42.8864" lon="0.44631">
        <ele>1305.42</ele>
        <time>2025-06-09T09:22:18Z</time>
      </trkpt>
      <trkpt lat="42.88651" lon="0.44614">
        <ele>1303.51</ele>
        <time>2025-06-09T09:22:33Z</time>
      </trkpt>
      <trkpt lat="42.88655" lon="0.44609">
        <ele>1302.66</ele>
        <time>2025-06-09T09:22:40Z</time>
      </trkpt>
      <trkpt lat="42.88657" lon="0.44606">
        <ele>1302.86</ele>
        <time>2025-06-09T09:22:42Z</time>
      </trkpt>
      <trkpt lat="42.8866" lon="0.44598">
        <ele>1301.98</ele>
        <time>2025-06-09T09:22:47Z</time>
      </trkpt>
      <trkpt lat="42.88668" lon="0.44579">
        <ele>1300.66</ele>
        <time>2025-06-09T09:22:57Z</time>
      </trkpt>
      <trkpt lat="42.88685" lon="0.44553">
        <ele>1299.6</ele>
        <time>2025-06-09T09:23:12Z</time>
      </trkpt>
      <trkpt lat="42.88696" lon="0.44538">
        <ele>1298.17</ele>
        <time>2025-06-09T09:23:21Z</time>
      </trkpt>
      <trkpt lat="42.88705" lon="0.44526">
        <ele>1297.68</ele>
        <time>2025-06-09T09:23:29Z</time>
      </trkpt>
      <trkpt lat="42.8871" lon="0.44512">
        <ele>1294.87</ele>
        <time>2025-06-09T09:23:38Z</time>
      </trkpt>
      <trkpt lat="42.8872" lon="0.44488">
        <ele>1292.43</ele>
        <time>2025-06-09T09:23:53Z</time>
      </trkpt>
      <trkpt lat="42.88723" lon="0.44482">
        <ele>1292.07</ele>
        <time>2025-06-09T09:23:57Z</time>
      </trkpt>
      <trkpt lat="42.88723" lon="0.44477">
        <ele>1290.89</ele>
        <time>2025-06-09T09:24:00Z</time>
      </trkpt>
      <trkpt lat="42.88725" lon="0.44474">
        <ele>1291.35</ele>
        <time>2025-06-09T09:24:02Z</time>
      </trkpt>
      <trkpt lat="42.88734" lon="0.44462">
        <ele>1291.27</ele>
        <time>2025-06-09T09:24:17Z</time>
      </trkpt>
      <trkpt lat="42.88741" lon="0.44449">
        <ele>1288.63</ele>
        <time>2025-06-09T09:24:34Z</time>
      </trkpt>
      <trkpt lat="42.88741" lon="0.44446">
        <ele>1288.4</ele>
        <time>2025-06-09T09:24:36Z</time>
      </trkpt>
      <trkpt lat="42.88746" lon="0.44431">
        <ele>1286.69</ele>
        <time>2025-06-09T09:24:45Z</time>
      </trkpt>
      <trkpt lat="42.88748" lon="0.44421">
        <ele>1285.61</ele>
        <time>2025-06-09T09:24:50Z</time>
      </trkpt>
      <trkpt lat="42.88751" lon="0.44411">
        <ele>1285.11</ele>
        <time>2025-06-09T09:24:56Z</time>
      </trkpt>
      <trkpt lat="42.8876" lon="0.4439">
        <ele>1283.07</ele>
        <time>2025-06-09T09:25:08Z</time>
      </trkpt>
      <trkpt lat="42.88765" lon="0.44378">
        <ele>1283.06</ele>
        <time>2025-06-09T09:25:14Z</time>
      </trkpt>
      <trkpt lat="42.8877" lon="0.4436">
        <ele>1281.23</ele>
        <time>2025-06-09T09:25:22Z</time>
      </trkpt>
      <trkpt lat="42.88777" lon="0.44344">
        <ele>1280.3</ele>
        <time>2025-06-09T09:25:35Z</time>
      </trkpt>
      <trkpt lat="42.88783" lon="0.44336">
        <ele>1280.08</ele>
        <time>2025-06-09T09:25:41Z</time>
      </trkpt>
      <trkpt lat="42.88784" lon="0.44334">
        <ele>1279.73</ele>
        <time>2025-06-09T09:25:43Z</time>
      </trkpt>
      <trkpt lat="42.88793" lon="0.44315">
        <ele>1278.92</ele>
        <time>2025-06-09T09:25:59Z</time>
      </trkpt>
      <trkpt lat="42.88804" lon="0.44298">
        <ele>1277.33</ele>
        <time>2025-06-09T09:26:14Z</time>
      </trkpt>
      <trkpt lat="42.88813" lon="0.44284">
        <ele>1276.51</ele>
        <time>2025-06-09T09:26:25Z</time>
      </trkpt>
      <trkpt lat="42.88822" lon="0.44267">
        <ele>1275.09</ele>
        <time>2025-06-09T09:26:37Z</time>
      </trkpt>
      <trkpt lat="42.88832" lon="0.44251">
        <ele>1273.64</ele>
        <time>2025-06-09T09:26:53Z</time>
      </trkpt>
      <trkpt lat="42.8885" lon="0.44235">
        <ele>1271.59</ele>
        <time>2025-06-09T09:27:14Z</time>
      </trkpt>
      <trkpt lat="42.88869" lon="0.44211">
        <ele>1270.07</ele>
        <time>2025-06-09T09:27:33Z</time>
      </trkpt>
      <trkpt lat="42.88871" lon="0.44207">
        <ele>1269.95</ele>
        <time>2025-06-09T09:27:36Z</time>
      </trkpt>
      <trkpt lat="42.88888" lon="0.4419">
        <ele>1269.23</ele>
        <time>2025-06-09T09:27:50Z</time>
      </trkpt>
      <trkpt lat="42.88905" lon="0.44165">
        <ele>1265.72</ele>
        <time>2025-06-09T09:28:08Z</time>
      </trkpt>
      <trkpt lat="42.88909" lon="0.44158">
        <ele>1265.2</ele>
        <time>2025-06-09T09:28:12Z</time>
      </trkpt>
      <trkpt lat="42.88916" lon="0.44145">
        <ele>1263.36</ele>
        <time>2025-06-09T09:28:23Z</time>
      </trkpt>
      <trkpt lat="42.88921" lon="0.44136">
        <ele>1262.71</ele>
        <time>2025-06-09T09:28:28Z</time>
      </trkpt>
      <trkpt lat="42.8893" lon="0.44124">
        <ele>1261.76</ele>
        <time>2025-06-09T09:28:36Z</time>
      </trkpt>
      <trkpt lat="42.88938" lon="0.4411">
        <ele>1260.72</ele>
        <time>2025-06-09T09:28:44Z</time>
      </trkpt>
      <trkpt lat="42.88948" lon="0.44086">
        <ele>1257.71</ele>
        <time>2025-06-09T09:28:59Z</time>
      </trkpt>
      <trkpt lat="42.8895" lon="0.44072">
        <ele>1256.4</ele>
        <time>2025-06-09T09:29:06Z</time>
      </trkpt>
      <trkpt lat="42.8895" lon="0.44056">
        <ele>1255.18</ele>
        <time>2025-06-09T09:29:14Z</time>
      </trkpt>
      <trkpt lat="42.88952" lon="0.44049">
        <ele>1253.88</ele>
        <time>2025-06-09T09:29:18Z</time>
      </trkpt>
      <trkpt lat="42.8895" lon="0.44034">
        <ele>1252.72</ele>
        <time>2025-06-09T09:29:25Z</time>
      </trkpt>
      <trkpt lat="42.88951" lon="0.4401">
        <ele>1251.33</ele>
        <time>2025-06-09T09:29:38Z</time>
      </trkpt>
      <trkpt lat="42.88953" lon="0.43977">
        <ele>1249.73</ele>
        <time>2025-06-09T09:29:53Z</time>
      </trkpt>
      <trkpt lat="42.88955" lon="0.43958">
        <ele>1249.22</ele>
        <time>2025-06-09T09:30:02Z</time>
      </trkpt>
      <trkpt lat="42.88959" lon="0.43934">
        <ele>1246.73</ele>
        <time>2025-06-09T09:30:15Z</time>
      </trkpt>
      <trkpt lat="42.88963" lon="0.43917">
        <ele>1243.6</ele>
        <time>2025-06-09T09:30:27Z</time>
      </trkpt>
      <trkpt lat="42.88965" lon="0.43895">
        <ele>1242.04</ele>
        <time>2025-06-09T09:30:40Z</time>
      </trkpt>
      <trkpt lat="42.88965" lon="0.43893">
        <ele>1242</ele>
        <time>2025-06-09T09:30:41Z</time>
      </trkpt>
      <trkpt lat="42.88965" lon="0.43884">
        <ele>1240.89</ele>
        <time>2025-06-09T09:30:45Z</time>
      </trkpt>
      <trkpt lat="42.88968" lon="0.43856">
        <ele>1238.88</ele>
        <time>2025-06-09T09:30:59Z</time>
      </trkpt>
      <trkpt lat="42.88969" lon="0.43847">
        <ele>1238.45</ele>
        <time>2025-06-09T09:31:04Z</time>
      </trkpt>
      <trkpt lat="42.88969" lon="0.43831">
        <ele>1235.73</ele>
        <time>2025-06-09T09:31:17Z</time>
      </trkpt>
      <trkpt lat="42.88968" lon="0.43816">
        <ele>1234.57</ele>
        <time>2025-06-09T09:31:24Z</time>
      </trkpt>
      <trkpt lat="42.88973" lon="0.43804">
        <ele>1232.32</ele>
        <time>2025-06-09T09:31:41Z</time>
      </trkpt>
      <trkpt lat="42.88974" lon="0.4379">
        <ele>1230.18</ele>
        <time>2025-06-09T09:31:49Z</time>
      </trkpt>
      <trkpt lat="42.88973" lon="0.43785">
        <ele>1229.9</ele>
        <time>2025-06-09T09:31:52Z</time>
      </trkpt>
      <trkpt lat="42.88976" lon="0.43761">
        <ele>1227.22</ele>
        <time>2025-06-09T09:32:06Z</time>
      </trkpt>
      <trkpt lat="42.88976" lon="0.43758">
        <ele>1226.95</ele>
        <time>2025-06-09T09:32:08Z</time>
      </trkpt>
      <trkpt lat="42.88977" lon="0.4374">
        <ele>1223.45</ele>
        <time>2025-06-09T09:32:19Z</time>
      </trkpt>
      <trkpt lat="42.88979" lon="0.43719">
        <ele>1220.68</ele>
        <time>2025-06-09T09:32:31Z</time>
      </trkpt>
      <trkpt lat="42.8898" lon="0.43706">
        <ele>1217.65</ele>
        <time>2025-06-09T09:32:40Z</time>
      </trkpt>
      <trkpt lat="42.8898" lon="0.43704">
        <ele>1217.45</ele>
        <time>2025-06-09T09:32:41Z</time>
      </trkpt>
      <trkpt lat="42.88982" lon="0.4369">
        <ele>1215.71</ele>
        <time>2025-06-09T09:32:49Z</time>
      </trkpt>
      <trkpt lat="42.88985" lon="0.43665">
        <ele>1211.85</ele>
        <time>2025-06-09T09:33:02Z</time>
      </trkpt>
      <trkpt lat="42.88985" lon="0.43654">
        <ele>1210.78</ele>
        <time>2025-06-09T09:33:13Z</time>
      </trkpt>
      <trkpt lat="42.88988" lon="0.43641">
        <ele>1208.28</ele>
        <time>2025-06-09T09:33:22Z</time>
      </trkpt>
      <trkpt lat="42.88987" lon="0.43632">
        <ele>1207.94</ele>
        <time>2025-06-09T09:33:27Z</time>
      </trkpt>
      <trkpt lat="42.88988" lon="0.43609">
        <ele>1203.59</ele>
        <time>2025-06-09T09:33:42Z</time>
      </trkpt>
      <trkpt lat="42.8899" lon="0.43585">
        <ele>1200.01</ele>
        <time>2025-06-09T09:33:55Z</time>
      </trkpt>
      <trkpt lat="42.88993" lon="0.43565">
        <ele>1197.38</ele>
        <time>2025-06-09T09:34:06Z</time>
      </trkpt>
      <trkpt lat="42.88997" lon="0.43546">
        <ele>1194.06</ele>
        <time>2025-06-09T09:34:17Z</time>
      </trkpt>
      <trkpt lat="42.89003" lon="0.43525">
        <ele>1191.05</ele>
        <time>2025-06-09T09:34:29Z</time>
      </trkpt>
      <trkpt lat="42.89004" lon="0.43519">
        <ele>1190.59</ele>
        <time>2025-06-09T09:34:32Z</time>
      </trkpt>
      <trkpt lat="42.89008" lon="0.43498">
        <ele>1186.45</ele>
        <time>2025-06-09T09:34:45Z</time>
      </trkpt>
      <trkpt lat="42.89009" lon="0.43496">
        <ele>1186.53</ele>
        <time>2025-06-09T09:34:46Z</time>
      </trkpt>
      <trkpt lat="42.89008" lon="0.43489">
        <ele>1185.46</ele>
        <time>2025-06-09T09:34:52Z</time>
      </trkpt>
      <trkpt lat="42.8901" lon="0.43479">
        <ele>1184.59</ele>
        <time>2025-06-09T09:34:59Z</time>
      </trkpt>
      <trkpt lat="42.89013" lon="0.43469">
        <ele>1182.83</ele>
        <time>2025-06-09T09:35:06Z</time>
      </trkpt>
      <trkpt lat="42.89017" lon="0.43456">
        <ele>1179.85</ele>
        <time>2025-06-09T09:35:16Z</time>
      </trkpt>
      <trkpt lat="42.89024" lon="0.43442">
        <ele>1178.19</ele>
        <time>2025-06-09T09:35:33Z</time>
      </trkpt>
      <trkpt lat="42.89025" lon="0.43423">
        <ele>1175.07</ele>
        <time>2025-06-09T09:35:45Z</time>
      </trkpt>
      <trkpt lat="42.89032" lon="0.43408">
        <ele>1172.28</ele>
        <time>2025-06-09T09:35:56Z</time>
      </trkpt>
      <trkpt lat="42.89034" lon="0.434">
        <ele>1171.56</ele>
        <time>2025-06-09T09:36:00Z</time>
      </trkpt>
      <trkpt lat="42.89036" lon="0.43388">
        <ele>1169.74</ele>
        <time>2025-06-09T09:36:07Z</time>
      </trkpt>
      <trkpt lat="42.89039" lon="0.43379">
        <ele>1168.44</ele>
        <time>2025-06-09T09:36:12Z</time>
      </trkpt>
      <trkpt lat="42.89042" lon="0.43361">
        <ele>1165.91</ele>
        <time>2025-06-09T09:36:22Z</time>
      </trkpt>
      <trkpt lat="42.89045" lon="0.43352">
        <ele>1164.58</ele>
        <time>2025-06-09T09:36:27Z</time>
      </trkpt>
      <trkpt lat="42.89048" lon="0.43341">
        <ele>1163.27</ele>
        <time>2025-06-09T09:36:33Z</time>
      </trkpt>
      <trkpt lat="42.89053" lon="0.43323">
        <ele>1161.27</ele>
        <time>2025-06-09T09:36:44Z</time>
      </trkpt>
      <trkpt lat="42.89055" lon="0.43315">
        <ele>1160.09</ele>
        <time>2025-06-09T09:36:48Z</time>
      </trkpt>
      <trkpt lat="42.89061" lon="0.43294">
        <ele>1157.86</ele>
        <time>2025-06-09T09:37:00Z</time>
      </trkpt>
      <trkpt lat="42.8907" lon="0.43268">
        <ele>1155.05</ele>
        <time>2025-06-09T09:37:16Z</time>
      </trkpt>
      <trkpt lat="42.89074" lon="0.43249">
        <ele>1152.34</ele>
        <time>2025-06-09T09:37:26Z</time>
      </trkpt>
      <trkpt lat="42.89079" lon="0.43236">
        <ele>1151.08</ele>
        <time>2025-06-09T09:37:33Z</time>
      </trkpt>
      <trkpt lat="42.89087" lon="0.43215">
        <ele>1148.62</ele>
        <time>2025-06-09T09:37:46Z</time>
      </trkpt>
      <trkpt lat="42.89097" lon="0.43186">
        <ele>1147.15</ele>
        <time>2025-06-09T09:38:04Z</time>
      </trkpt>
      <trkpt lat="42.89098" lon="0.43176">
        <ele>1147.03</ele>
        <time>2025-06-09T09:38:09Z</time>
      </trkpt>
      <trkpt lat="42.89101" lon="0.43162">
        <ele>1144.54</ele>
        <time>2025-06-09T09:38:19Z</time>
      </trkpt>
      <trkpt lat="42.89102" lon="0.4314">
        <ele>1141.77</ele>
        <time>2025-06-09T09:38:37Z</time>
      </trkpt>
      <trkpt lat="42.89101" lon="0.43135">
        <ele>1142.02</ele>
        <time>2025-06-09T09:38:40Z</time>
      </trkpt>
      <trkpt lat="42.89102" lon="0.43129">
        <ele>1141.95</ele>
        <time>2025-06-09T09:38:44Z</time>
      </trkpt>
      <trkpt lat="42.89104" lon="0.43123">
        <ele>1140.86</ele>
        <time>2025-06-09T09:38:47Z</time>
      </trkpt>
      <trkpt lat="42.89108" lon="0.43112">
        <ele>1140.35</ele>
        <time>2025-06-09T09:38:54Z</time>
      </trkpt>
      <trkpt lat="42.89109" lon="0.43106">
        <ele>1139.56</ele>
        <time>2025-06-09T09:38:57Z</time>
      </trkpt>
      <trkpt lat="42.89111" lon="0.431">
        <ele>1139.22</ele>
        <time>2025-06-09T09:39:00Z</time>
      </trkpt>
      <trkpt lat="42.89114" lon="0.43088">
        <ele>1138.45</ele>
        <time>2025-06-09T09:39:06Z</time>
      </trkpt>
      <trkpt lat="42.89117" lon="0.43066">
        <ele>1136.19</ele>
        <time>2025-06-09T09:39:19Z</time>
      </trkpt>
      <trkpt lat="42.89118" lon="0.43064">
        <ele>1135.99</ele>
        <time>2025-06-09T09:39:20Z</time>
      </trkpt>
      <trkpt lat="42.89128" lon="0.43042">
        <ele>1133.92</ele>
        <time>2025-06-09T09:39:36Z</time>
      </trkpt>
      <trkpt lat="42.89135" lon="0.43032">
        <ele>1133.17</ele>
        <time>2025-06-09T09:39:46Z</time>
      </trkpt>
      <trkpt lat="42.89139" lon="0.43022">
        <ele>1133.16</ele>
        <time>2025-06-09T09:39:52Z</time>
      </trkpt>
      <trkpt lat="42.89142" lon="0.43015">
        <ele>1129.72</ele>
        <time>2025-06-09T09:39:58Z</time>
      </trkpt>
      <trkpt lat="42.89146" lon="0.43012">
        <ele>1130.04</ele>
        <time>2025-06-09T09:40:02Z</time>
      </trkpt>
      <trkpt lat="42.89146" lon="0.43011">
        <ele>1130.08</ele>
        <time>2025-06-09T09:40:03Z</time>
      </trkpt>
      <trkpt lat="42.89149" lon="0.43006">
        <ele>1128.47</ele>
        <time>2025-06-09T09:40:07Z</time>
      </trkpt>
      <trkpt lat="42.89161" lon="0.42994">
        <ele>1125.95</ele>
        <time>2025-06-09T09:40:20Z</time>
      </trkpt>
      <trkpt lat="42.89171" lon="0.42981">
        <ele>1122.77</ele>
        <time>2025-06-09T09:40:31Z</time>
      </trkpt>
      <trkpt lat="42.89186" lon="0.42962">
        <ele>1119.23</ele>
        <time>2025-06-09T09:40:49Z</time>
      </trkpt>
      <trkpt lat="42.89188" lon="0.4296">
        <ele>1118.38</ele>
        <time>2025-06-09T09:40:51Z</time>
      </trkpt>
      <trkpt lat="42.892" lon="0.42946">
        <ele>1115.32</ele>
        <time>2025-06-09T09:41:06Z</time>
      </trkpt>
      <trkpt lat="42.89203" lon="0.42947">
        <ele>1115.63</ele>
        <time>2025-06-09T09:41:09Z</time>
      </trkpt>
      <trkpt lat="42.89206" lon="0.42952">
        <ele>1115.41</ele>
        <time>2025-06-09T09:41:12Z</time>
      </trkpt>
      <trkpt lat="42.89213" lon="0.42979">
        <ele>1114.49</ele>
        <time>2025-06-09T09:41:25Z</time>
      </trkpt>
      <trkpt lat="42.89223" lon="0.43001">
        <ele>1113.48</ele>
        <time>2025-06-09T09:41:36Z</time>
      </trkpt>
      <trkpt lat="42.89224" lon="0.43003">
        <ele>1113.97</ele>
        <time>2025-06-09T09:41:37Z</time>
      </trkpt>
      <trkpt lat="42.89226" lon="0.43008">
        <ele>1113.17</ele>
        <time>2025-06-09T09:41:50Z</time>
      </trkpt>
      <trkpt lat="42.89226" lon="0.43008">
        <ele>1114.94</ele>
        <time>2025-06-09T09:41:52Z</time>
      </trkpt>
    </trkseg>
  </trk>
</gpx>